[[[{"header":{"parameterUnit":"kt","parameterCategory":2,"dx":1,"dy":1,"la1":29.285339999999998,"la2":30.599998999999997,"lo1":-89.70041500000002,"lo2":-87.6738589999976,"nx":112,"ny":82,"refTime":"2022-09-23T18:00:00:Z","depth":0,"parameterNumber":1,"parameterNumberName":"U-component_of_WINDS"},"data":[-4.2889,-4.5468,-4.5981,-3.3691,-3.3415,-3.3008,-2.1155,-1.9202,-1.9619,-1.8461,-1.7165,-1.7439,-2.1318,-1.6837,-1.2915,-1.408,-1.1153,-0.8276,0.0,-0.7371,-0.79,0.0,0.0,0.0,0.0,0.0,0.0,0.0,0.0,0.0,0.0,-5.2213,-5.2016,-5.2809,-5.2503,-5.2141,-5.1897,-5.1401,-5.1175,-5.1143,-5.0983,-5.1386,-5.2203,-5.1388,-5.1237,-5.154,-5.0687,-5.0143,-4.9803,-4.9893,-4.9648,-4.9137,-4.9222,-4.8867,-4.8529,-4.9452,-4.9638,-4.9469,-4.9587,-5.0162,-5.058,-4.9372,-4.9018,-4.8786,-4.759,-4.7239,-4.7248,-4.748,-4.7354,-4.7287,-4.7625,-4.758,-4.7519,-4.7621,-4.7625,-4.7769,-4.7769,-4.7577,-4.748,-4.7411,-4.7245,-4.6979,-4.6881,-4.6302,-4.6017,-4.6515,-4.5702,-4.4996,-4.4689,-4.4119,-4.3655,-4.3038,-4.2604,-4.2349,-4.2451,-4.133,-3.9972,-3.8488,-3.7777,-3.6949,-3.5672,-3.6432,-3.6486,-3.5695,-3.5374,-3.5201,-3.5176,-3.4157,-3.3156,-3.2374,-3.2621,-3.2174,-3.6778,-3.91,-3.9643,-2.6375,-2.6335,-2.6777,-1.6258,-1.4769,-1.5227,-1.4046,-1.4702,-1.5148,-1.4057,-1.2984,-1.1736,-1.0112,-0.9554,-0.8604,0.0,-0.746,-0.8649,-0.9258,0.0,0.0,0.0,0.0,0.0,0.0,-3.9382,0.0,-5.2813,-5.2231,-5.1977,-5.2808,-5.2535,-5.2204,-5.1965,-5.1501,-5.1293,-5.1079,-5.0968,-5.1343,-5.2211,-5.1559,-5.156,-5.1955,-5.1271,-5.0778,-5.0521,-5.0628,-5.0366,-4.9898,-5.0026,-4.9654,-4.9262,-5.0366,-5.0347,-4.9924,-5.1304,-5.1737,-5.1526,-5.0312,-4.9927,-4.9608,-4.8322,-4.7886,-4.7886,-4.7772,-4.7687,-4.7634,-4.7726,-4.7798,-4.784,-4.7915,-4.8091,-4.8231,-4.8231,-4.8103,-4.7902,-4.7902,-4.7754,-4.7578,-4.7578,-4.7124,-4.6717,-4.6574,-4.5786,-4.5316,-4.5707,-4.4999,-4.4344,-4.4238,-4.3775,-4.3441,-4.3255,-4.2651,-4.1433,-3.9322,-3.8829,-3.8117,-3.6774,-3.7582,-3.7527,-3.6456,-3.6393,-3.6232,-3.6006,-3.4642,-3.3581,-3.2679,-3.3144,-3.2495,-3.0904,-2.8369,-2.7049,-1.7741,-1.6478,-1.6901,-1.4596,-1.4986,-1.5524,-1.4385,-1.4908,-1.5315,-1.4495,-1.3132,-1.1709,-1.0357,-1.0525,0.0,0.0,-0.7938,-0.9945,-1.1727,-1.898,0.0,0.0,-2.6925,-2.8411,0.0,-3.6142,-3.7989,-5.2844,-5.3078,-5.2779,-5.2836,-5.2836,-5.2808,-5.2879,-5.23,-5.1906,-5.1531,-5.1171,-5.0985,-5.1016,-5.0985,-5.1182,-5.1531,-5.1501,-5.1471,-5.1592,-5.2712,-5.2353,-5.1016,-5.1804,-5.1135,-5.0148,-5.3234,-5.2996,-5.1368,-5.2923,-5.1997,-5.0034,-5.0034,-4.9823,-4.9641,-4.9274,-4.9182,-4.9182,-4.8875,-4.8566,-4.8472,-4.878,-4.8476,-4.8336,-4.848,-4.8579,-4.8606,-4.8606,-4.8606,-4.8606,-4.8606,-4.8606,-4.8579,-4.8553,-4.7656,-4.6944,-4.6944,-4.6944,-4.734,-4.8447,-4.6433,-4.4864,-4.4864,-4.3557,-4.2692,-4.2692,-4.3411,-4.3217,-4.1611,-4.0452,-3.9874,-3.9874,-4.007,-3.9947,-3.933,-3.7922,-3.6774,-3.6055,-3.3226,-3.1842,-3.1663,-3.3117,-3.3173,-2.2288,-2.3455,-2.5513,-1.8417,-1.9308,-2.0774,-1.6173,-1.4497,-1.3851,-1.3439,-1.2742,0.0,0.0,0.0,-1.0308,-1.0879,0.0,-1.5425,-0.9419,-1.7834,-2.5061,-2.6234,-2.8351,-3.2812,-4.0733,-3.9552,-4.2085,-5.1253,-4.4068,-4.3487,-5.3203,-5.2466,-5.1919,-5.2332,-5.236,-5.2207,-5.1917,-5.1732,-5.1636,-5.1564,-5.1365,-5.1843,-5.2792,-5.1995,-5.2027,-5.2712,-5.1893,-5.1471,-5.1501,-5.1893,-5.1763,-5.141,-5.1805,-5.1585,-5.1119,-5.1964,-5.2091,-5.1914,-5.3128,-5.3162,-5.2505,-5.1872,-5.1598,-5.1237,-4.9874,-4.9492,-4.9429,-4.9153,-4.8968,-4.8961,-4.886,-4.8816,-4.8863,-4.8733,-4.8859,-4.8825,-4.8606,-4.8606,-4.8606,-4.8606,-4.8606,-4.8342,-4.7498,-4.7788,-4.8131,-4.8131,-4.8131,-4.8236,-4.8579,-4.7987,-4.7584,-4.7584,-4.6391,-4.5632,-4.5632,-4.41,-4.2977,-4.2818,-4.1138,-3.9888,-3.9455,-3.9455,-3.954,-3.9516,-3.8921,-3.8411,-3.8171,-3.7177,-3.6061,-3.5028,-3.4827,-3.4514,-2.0817,-2.1401,-2.3225,-1.8131,-1.9958,-2.1553,-1.5928,-1.4773,-1.4611,-1.35,0.0,0.0,0.0,0.0,0.0,0.0,-1.6671,-1.9247,-1.4361,-2.3878,-3.1578,-3.2264,-3.7903,-4.2546,-4.445,-4.4089,-4.6818,-5.416,-4.6952,-4.5623,-5.3388,-5.3524,-5.3363,-5.3434,-5.4051,-5.381,-5.2748,-5.272,-5.2369,-5.1491,-5.1491,-5.1935,-5.2602,-5.2001,-5.2133,-5.2761,-5.2092,-5.174,-5.174,-5.1862,-5.1784,-5.158,-5.2023,-5.2138,-5.2109,-5.2109,-5.223,-5.2531,-5.3089,-5.3325,-5.3262,-5.2819,-5.2629,-5.2292,-5.0965,-5.0544,-5.0352,-5.009,-4.9924,-4.9826,-4.9602,-4.9636,-4.9578,-4.9295,-4.9286,-4.926,-4.8825,-4.8715,-4.8715,-4.8606,-4.8606,-4.7882,-4.5733,-4.5846,-4.628,-4.628,-4.628,-4.6459,-4.7031,-4.6605,-4.6263,-4.6263,-4.5575,-4.5228,-4.5228,-4.4202,-4.3462,-4.3164,-4.2085,-4.1087,-3.9858,-3.9723,-3.9611,-3.9699,-3.9448,-3.9245,-3.9221,-3.843,-3.762,-3.68,-3.6054,-3.5646,-2.2578,-2.0267,-2.0082,-1.711,-1.881,-2.0009,-1.5678,0.0,-1.7485,-1.5931,0.0,-1.3904,-1.5364,0.0,0.0,-1.3158,-1.9544,-2.3505,-2.104,-2.8861,-3.5052,-3.5451,-4.7344,-5.3125,-4.7198,-4.5437,-4.7493,-5.4222,-4.8044,-4.7136,-5.4273,-5.5684,-5.61,-5.5548,-5.6933,-5.6754,-5.4881,-5.4776,-5.3912,-5.2225,-5.2129,-5.1975,-5.183,-5.1781,-5.1874,-5.2055,-5.2016,-5.2044,-5.2055,-5.2389,-5.2177,-5.1752,-5.2207,-5.2563,-5.2736,-5.2736,-5.2936,-5.3164,-5.2936,-5.2836,-5.2936,-5.3164,-5.3036,-5.2736,-5.2259,-5.1924,-5.156,-5.1277,-5.0965,-5.086,-5.0755,-5.0544,-5.0333,-4.988,-4.9772,-4.9558,-4.8798,-4.8579,-4.8469,-4.8249,-4.8138,-4.7135,-4.3973,-4.335,-4.3463,-4.3488,-4.3488,-4.3805,-4.4873,-4.4033,-4.332,-4.332,-4.3201,-4.3081,-4.3081,-4.4057,-4.4024,-4.2763,-4.2968,-4.2373,-4.058,-4.0339,-4.0071,-3.9732,-3.9591,-3.9482,-3.9432,-3.8006,-3.7385,-3.7439,-3.6909,-3.6577,-1.6586,-1.4661,-1.5108,-1.5334,-1.5267,-1.64,0.0,0.0,0.0,-2.7128,-2.6831,-2.6143,-2.7619,-2.7184,-2.6673,-2.6879,-3.3745,-3.6577,-2.9389,-4.1318,-5.1283,-5.2618,-5.5337,-5.709,-5.6976,-5.6686,-5.7238,-5.8682,-5.7258,-5.6856,-5.802,-5.8318,-5.8236,-5.7698,-5.8007,-5.7933,-5.7595,-5.7137,-5.6696,-5.6408,-5.5891,-5.4956,-5.3908,-5.352,-5.2905,-5.21,-5.1747,-5.1792,-5.2055,-5.2157,-5.2117,-5.202,-5.2174,-5.2157,-5.2259,-5.2259,-5.236,-5.2692,-5.2836,-5.2836,-5.2836,-5.2936,-5.2936,-5.2836,-5.249,-5.2389,-5.2259,-5.1952,-5.1691,-5.1353,-5.1069,-5.0992,-5.065,-4.918,-4.8854,-4.8391,-4.6856,-4.6263,-4.601,-4.5895,-4.5805,-4.5501,-4.4933,-4.4908,-4.5023,-4.5278,-4.5392,-4.5467,-4.569,-4.5459,-4.5344,-4.5344,-4.441,-4.3677,-4.3677,-4.3055,-4.267,-4.2582,-4.2152,-4.1452,-4.0373,-4.0484,-4.0426,-4.0103,-3.9407,-3.9003,-3.898,-3.8086,-3.7496,-3.7184,-3.7069,-3.7069,-1.5975,-1.4352,-1.4583,-1.4968,-1.5353,0.0,0.0,-2.0385,-2.2706,-2.605,-2.6787,-2.7734,-3.0777,-3.1054,-3.0857,-3.0909,-3.8272,-4.3445,-4.1978,-4.9388,-5.5284,-5.6096,-5.6689,-5.7239,-5.806,-5.8122,-5.811,-5.811,-5.8622,-5.8926,-5.8622,-5.9989,-6.0451,-5.9912,-6.0672,-6.0569,-5.9543,-5.9262,-5.8654,-5.7695,-5.7381,-5.6747,-5.596,-5.5811,-5.5316,-5.4566,-5.3583,-5.3281,-5.3446,-5.2514,-5.3173,-5.4745,-5.3834,-5.3475,-5.352,-5.2485,-5.2287,-5.249,-5.2462,-5.2433,-5.2534,-5.2836,-5.2736,-5.2664,-5.2865,-5.2764,-5.2521,-5.1893,-5.1519,-5.1186,-5.0702,-5.0804,-5.0832,-4.9852,-4.9825,-4.9529,-4.768,-4.7091,-4.6627,-4.5534,-4.4421,-4.3534,-4.3749,-4.3749,-4.3749,-4.401,-4.401,-4.401,-4.401,-4.401,-4.401,-4.401,-4.3415,-4.3055,-4.3055,-4.252,-4.23,-4.2399,-4.2254,-4.1782,-4.1184,-4.0656,-4.0292,-3.9927,-3.8684,-3.8023,-3.8023,-3.8505,-3.8297,-3.7446,-3.771,-3.7929,-1.6093,-1.4815,-1.4674,-1.4896,-1.5786,0.0,-1.7106,-2.0186,-2.3789,-2.6656,-2.8261,-3.0386,-3.4389,-3.5159,-3.5217,-3.5366,-4.1735,-4.8225,-5.2731,-5.441,-5.5233,-5.5568,-5.6329,-5.696,-5.7326,-5.7298,-5.7277,-5.7277,-5.8244,-5.8742,-5.8712,-6.0925,-6.2043,-6.1733,-6.3026,-6.3056,-6.1465,-6.136,-6.0539,-5.9055,-5.8951,-5.8624,-5.818,-5.8105,-5.7749,-5.7171,-5.592,-5.5383,-5.5193,-5.3777,-5.4963,-5.7428,-5.5966,-5.5239,-5.5025,-5.3304,-5.2587,-5.249,-5.2389,-5.2259,-5.236,-5.2836,-5.2865,-5.2692,-5.3065,-5.2936,-5.2407,-5.1506,-5.1079,-5.066,-4.9896,-5.0265,-5.0672,-5.0066,-5.0384,-5.0215,-4.832,-4.7759,-4.7254,-4.5649,-4.3874,-4.2642,-4.252,-4.2422,-4.2422,-4.2422,-4.2422,-4.2422,-4.2422,-4.2422,-4.2422,-4.2422,-4.2422,-4.2422,-4.2422,-4.2422,-4.2422,-4.2422,-4.252,-4.2428,-4.2002,-4.1144,-4.0474,-3.9915,-3.87,-3.7863,-3.7491,-3.8411,-3.857,-3.7795,-3.8446,-3.8918,-1.292,-1.2128,-1.1973,-1.4347,-1.3488,0.0,-2.8241,-3.0527,-3.3046,-4.3738,-4.5914,-4.6495,-4.8431,-4.9552,-5.0303,-5.0604,-5.2308,-5.396,-5.4503,-5.5587,-5.6727,-5.8112,-5.8366,-5.9018,-6.0536,-6.0731,-6.0673,-6.0673,-6.0755,-6.0866,-6.0697,-6.1035,-6.1674,-6.2737,-6.3023,-6.3449,-6.4296,-6.3808,-6.3433,-6.3282,-6.2664,-6.1687,-6.0345,-6.003,-5.92,-5.777,-5.7474,-5.7207,-5.7178,-5.7032,-5.7282,-5.7858,-5.737,-5.6434,-5.514,-5.4996,-5.3839,-5.2591,-5.2965,-5.2965,-5.2836,-5.3136,-5.3164,-5.3164,-5.2936,-5.2275,-5.1607,-5.1261,-5.0352,-4.945,-4.9208,-4.9396,-4.9153,-4.7479,-4.7616,-4.7505,-4.5706,-4.4805,-4.4421,-4.4608,-4.4425,-4.4176,-4.3796,-4.3581,-4.3342,-4.3342,-4.3245,-4.3004,-4.3004,-4.3004,-4.3004,-4.3004,-4.3004,-4.3004,-4.3004,-4.3004,-4.3004,-4.3004,-4.3028,-4.2585,-4.1418,-4.1921,-4.1778,-4.0484,-4.1304,-4.0588,-3.8456,-3.7165,-3.7078,-3.8073,-3.9026,-3.9547,-1.1835,-1.1512,-1.1505,-1.2653,0.0,0.0,-2.4646,-2.967,-3.5206,-4.2935,-4.5934,-4.8112,-5.1565,-5.3129,-5.3683,-5.3197,-5.4933,-5.6402,-5.6358,-5.6716,-5.7231,-5.7965,-5.8021,-5.8334,-5.8983,-5.9039,-5.9039,-5.9039,-5.9039,-5.9334,-5.9971,-6.1356,-6.2376,-6.2976,-6.2976,-6.2868,-6.2731,-6.3113,-6.3357,-6.3143,-6.3569,-6.3373,-6.2515,-6.244,-6.1899,-6.0851,-5.9764,-5.9259,-5.9271,-6.0296,-6.0804,-6.0745,-5.8807,-5.7688,-5.6927,-5.5106,-5.3893,-5.3147,-5.2585,-5.2335,-5.209,-5.1235,-5.0986,-5.0986,-5.109,-5.0777,-5.0462,-5.0356,-4.96,-4.8819,-4.8244,-4.8458,-4.8772,-4.8002,-4.8197,-4.8233,-4.662,-4.6061,-4.5795,-4.5622,-4.5122,-4.4766,-4.4859,-4.4295,-4.3844,-4.3844,-4.3485,-4.3148,-4.3148,-4.3148,-4.3148,-4.3148,-4.3148,-4.3148,-4.3148,-4.3148,-4.3148,-4.3148,-4.3148,-4.2938,-4.2589,-4.2165,-4.1722,-4.1187,-4.0301,-3.9242,-3.809,-3.7212,-3.7606,-3.9211,-3.887,-3.8827,-1.1282,0.0,0.0,0.0,0.0,0.0,-2.56,-3.1726,-3.7918,-4.2962,-4.6036,-4.9047,-5.3035,-5.4429,-5.4768,-5.4141,-5.5798,-5.73,-5.73,-5.73,-5.73,-5.73,-5.73,-5.7421,-5.7421,-5.7543,-5.7543,-5.7543,-5.7421,-5.7878,-5.8776,-6.0343,-6.1468,-6.2158,-6.2267,-6.2188,-6.1998,-6.279,-6.322,-6.3113,-6.3886,-6.426,-6.4156,-6.4051,-6.3811,-6.3267,-6.1959,-6.1326,-6.1449,-6.2767,-6.322,-6.3023,-6.0641,-5.9512,-5.8778,-5.6234,-5.4919,-5.4252,-5.2927,-5.2488,-5.2187,-5.0719,-5.0205,-5.0043,-4.9799,-4.9611,-4.9288,-4.9288,-4.8752,-4.7976,-4.7394,-4.7729,-4.8054,-4.7969,-4.8443,-4.8507,-4.7417,-4.7124,-4.6907,-4.6389,-4.579,-4.5558,-4.593,-4.5234,-4.4673,-4.4649,-4.3939,-4.3485,-4.3365,-4.3389,-4.3389,-4.3389,-4.3004,-4.274,-4.286,-4.2353,-4.2109,-4.2254,-4.2254,-4.2231,-4.2451,-4.1617,-4.0967,-4.0848,-3.918,-3.8236,-3.8021,-3.7236,-3.7761,-3.9524,-3.8662,-3.8577,0.0,0.0,0.0,-2.0384,-2.0553,-2.2375,-3.7693,-4.1465,-4.3481,-4.9389,-5.1833,-5.3413,-5.4997,-5.5359,-5.562,-5.6391,-5.6537,-5.6564,-5.6564,-5.6564,-5.6564,-5.6564,-5.6933,-5.7178,-5.7178,-5.7421,-5.7543,-5.7543,-5.73,-5.73,-5.7543,-5.7028,-5.7823,-6.02,-6.0314,-6.1497,-6.3841,-6.3977,-6.4051,-6.423,-6.4334,-6.4438,-6.4716,-6.4438,-6.4334,-6.423,-6.3615,-6.3664,-6.4185,-6.4005,-6.3946,-6.3841,-6.316,-6.1926,-6.0402,-5.9192,-5.7564,-5.5799,-5.4839,-5.442,-5.4003,-5.2793,-5.2163,-5.1725,-5.0177,-4.9098,-4.8275,-4.8275,-4.7608,-4.6933,-4.682,-4.6845,-4.687,-4.6554,-4.6933,-4.722,-4.6933,-4.687,-4.6757,-4.6554,-4.6643,-4.6845,-4.7108,-4.6453,-4.579,-4.583,-4.5069,-4.4413,-4.4106,-4.4106,-4.4106,-4.4106,-4.2595,-4.182,-4.2018,-4.0296,-3.9463,-4.0112,-3.984,-3.9693,-3.984,-3.9671,-3.9524,-3.9147,-3.9126,-3.8978,-3.8978,-3.7018,-3.678,-3.8154,-3.8429,-3.919,-1.6249,-1.6951,-1.8183,-2.554,-3.0518,-3.5023,-4.0117,-4.5467,-5.0228,-5.3278,-5.4285,-5.5052,-5.6364,-5.6339,-5.623,-5.651,-5.6564,-5.6564,-5.6564,-5.6564,-5.6564,-5.6564,-5.6933,-5.7178,-5.7178,-5.7421,-5.7421,-5.73,-5.73,-5.73,-5.6933,-5.7823,-5.8483,-5.8927,-5.9161,-5.9306,-5.9011,-6.0683,-6.1497,-6.1608,-6.3516,-6.4414,-6.4499,-6.455,-6.4512,-6.4322,-6.4292,-6.434,-6.4185,-6.2618,-6.2213,-6.2126,-5.985,-5.8763,-5.831,-5.7099,-5.6255,-5.5555,-5.4351,-5.3846,-5.3514,-5.2083,-5.1454,-5.1127,-4.9742,-4.8947,-4.8475,-4.7502,-4.7097,-4.687,-4.687,-4.687,-4.687,-4.6782,-4.687,-4.6958,-4.6668,-4.6782,-4.687,-4.6933,-4.6958,-4.6958,-4.722,-4.611,-4.521,-4.5185,-4.3749,-4.2814,-4.3581,-4.3175,-4.3055,-4.4082,-4.3581,-4.2935,-4.2041,-4.1407,-4.069,-4.0112,-3.9987,-3.9965,-4.0361,-4.0068,-3.9796,-3.9671,-3.8916,-3.7919,-3.678,-3.6038,-3.6038,-3.667,-3.7059,-3.7575,-1.8953,-2.0418,-2.2352,-3.1554,-3.7529,-4.191,-4.4729,-4.9795,-5.4204,-5.5133,-5.5739,-5.6282,-5.7042,-5.6687,-5.6317,-5.6193,-5.6193,-5.6193,-5.6193,-5.6193,-5.6193,-5.6193,-5.6687,-5.6933,-5.6687,-5.7178,-5.73,-5.6933,-5.7055,-5.7055,-5.6564,-5.7461,-5.7915,-5.7675,-5.8127,-5.7888,-5.7028,-5.8955,-6.0199,-6.0888,-6.2662,-6.3822,-6.4412,-6.4704,-6.4567,-6.4504,-6.4684,-6.4766,-6.449,-6.2962,-6.2044,-6.1414,-5.9309,-5.8152,-5.7499,-5.6333,-5.6015,-5.5935,-5.445,-5.409,-5.403,-5.2486,-5.2001,-5.1646,-5.0151,-4.9698,-4.9466,-4.799,-4.7569,-4.7493,-4.6972,-4.687,-4.687,-4.687,-4.687,-4.6782,-4.6554,-4.6668,-4.687,-4.6933,-4.6958,-4.6958,-4.7332,-4.6339,-4.5674,-4.5765,-4.4105,-4.3055,-4.3295,-4.267,-4.2284,-4.2693,-4.233,-4.1697,-4.0792,-4.0149,-3.9671,-3.9106,-3.8979,-3.8979,-3.9358,-3.8937,-3.8662,-3.8536,-3.7662,-3.678,-3.5907,-3.5907,-3.6038,-3.6429,-3.669,-3.6949,-1.9496,-2.106,-2.4168,-3.8506,-4.1732,-4.3461,-5.1378,-5.4366,-5.5522,-5.5522,-5.6391,-5.7178,-5.7055,-5.644,-5.5819,-5.5568,-5.5568,-5.5568,-5.5568,-5.5568,-5.5568,-5.5568,-5.6193,-5.644,-5.6068,-5.6933,-5.7178,-5.6564,-5.6564,-5.6564,-5.6564,-5.5944,-5.5944,-5.6564,-5.7069,-5.7527,-5.7823,-5.8748,-6.0016,-6.1859,-6.1857,-6.2897,-6.4621,-6.4645,-6.4622,-6.4667,-6.4945,-6.5104,-6.5118,-6.4735,-6.3472,-6.1822,-6.1048,-5.9837,-5.8062,-5.6771,-5.6553,-5.6607,-5.5364,-5.5264,-5.5285,-5.3933,-5.3593,-5.3235,-5.1698,-5.1215,-5.0982,-4.9518,-4.9067,-4.8836,-4.7442,-4.7048,-4.7023,-4.6972,-4.6972,-4.6833,-4.6579,-4.6719,-4.6719,-4.6439,-4.6529,-4.6845,-4.7332,-4.7046,-4.6757,-4.7071,-4.6095,-4.4697,-4.3198,-4.2716,-4.1842,-4.0274,-3.9168,-3.8557,-3.8577,-3.7059,-3.6449,-3.7337,-3.6949,-3.669,-3.7079,-3.669,-3.6299,-3.6057,-3.5776,-3.5907,-3.656,-3.656,-3.669,-3.7079,-3.7337,-3.7337,-2.5211,-3.1892,-3.784,-4.635,-5.0083,-5.2194,-5.4285,-5.5994,-5.6985,-5.6743,-5.6961,-5.6933,-5.644,-5.5944,-5.5694,-5.5568,-5.5568,-5.5568,-5.5568,-5.5568,-5.5568,-5.5568,-5.5944,-5.6068,-5.5944,-5.644,-5.6564,-5.6193,-5.644,-5.644,-5.6193,-5.6193,-5.644,-5.6564,-5.666,-5.6783,-5.6906,-5.715,-5.7987,-5.9341,-6.0434,-6.1751,-6.317,-6.3352,-6.3453,-6.3455,-6.441,-6.48,-6.469,-6.3346,-6.2502,-6.1981,-5.9001,-5.7787,-5.7339,-5.5732,-5.5164,-5.519,-5.481,-5.481,-5.4784,-5.4698,-5.4594,-5.4384,-5.3261,-5.2921,-5.2565,-5.1008,-5.0579,-5.0501,-5.0125,-5.0022,-4.9698,-4.8643,-4.8438,-4.8118,-4.6959,-4.7043,-4.6876,-4.4957,-4.4669,-4.4762,-4.4854,-4.4483,-4.4201,-4.4649,-4.3534,-4.2807,-4.3331,-4.2303,-4.1382,-4.1475,-4.0792,-3.9943,-3.9063,-3.8302,-3.7554,-3.682,-3.669,-3.656,-3.669,-3.656,-3.656,-3.6429,-3.6299,-3.656,-3.6949,-3.669,-3.669,-3.7079,-3.7188,-3.7188,-2.3949,-3.344,-4.3043,-5.0212,-5.3634,-5.5549,-5.6092,-5.6837,-5.73,-5.6933,-5.681,-5.644,-5.5944,-5.5694,-5.5568,-5.5568,-5.5568,-5.5568,-5.5568,-5.6143,-5.6587,-5.6587,-5.7419,-5.778,-5.6893,-5.7952,-5.8158,-5.6893,-5.7826,-5.8248,-5.784,-5.7967,-5.8221,-5.8347,-5.8248,-5.7979,-5.7592,-5.7467,-5.7323,-5.7394,-5.8873,-6.0484,-6.2034,-6.2728,-6.2478,-6.178,-6.3356,-6.3853,-6.3582,-6.3284,-6.277,-6.1987,-5.9847,-5.8628,-5.7915,-5.6137,-5.5436,-5.5461,-5.4609,-5.4454,-5.4581,-5.481,-5.4784,-5.4781,-5.428,-5.4097,-5.3862,-5.2591,-5.2131,-5.2027,-5.1241,-5.1112,-5.0956,-5.0099,-4.9944,-4.9672,-4.8913,-4.842,-4.7781,-4.6392,-4.5787,-4.5446,-4.5446,-4.4892,-4.4578,-4.4876,-4.3354,-4.2182,-4.2035,-4.0874,-3.9914,-3.9211,-3.8916,-3.8429,-3.7683,-3.7426,-3.7188,-3.682,-3.6429,-3.6429,-3.6949,-3.669,-3.656,-3.682,-3.669,-3.641,-3.626,-3.5998,-3.5868,-3.5717,-3.5717,-3.5848,-2.1443,-3.1079,-4.2636,-5.1215,-5.4525,-5.5902,-5.6961,-5.7178,-5.7055,-5.6687,-5.6193,-5.5819,-5.5568,-5.5568,-5.5647,-5.5905,-5.5674,-5.5674,-5.6117,-5.7138,-5.7979,-5.8166,-5.9566,-5.9938,-5.8401,-5.9905,-6.0224,-5.8375,-5.962,-6.0446,-6.0185,-6.0054,-6.0185,-6.0733,-6.0315,-5.9857,-5.9213,-5.8832,-5.7987,-5.6433,-5.78,-5.9332,-6.0966,-6.2254,-6.164,-5.9939,-6.1824,-6.22,-6.1745,-6.3311,-6.2986,-6.1638,-6.1369,-6.0246,-5.8654,-5.6867,-5.6267,-5.6318,-5.4712,-5.4274,-5.4581,-5.4581,-5.4581,-5.4709,-5.4885,-5.5012,-5.4803,-5.3862,-5.3724,-5.3365,-5.2079,-5.1698,-5.1646,-5.1517,-5.1354,-5.1215,-5.1068,-4.9936,-4.8945,-4.8671,-4.7821,-4.7116,-4.714,-4.6548,-4.5997,-4.6017,-4.4541,-4.2658,-4.0712,-3.9806,-3.8465,-3.6299,-3.6168,-3.6057,-3.5776,-3.5926,-3.6299,-3.7079,-3.6429,-3.6449,-3.7337,-3.6949,-3.682,-3.7079,-3.682,-3.6279,-3.5455,-3.5192,-3.4777,-3.4229,-3.383,-3.4115,-3.0457,-3.4738,-3.8505,-5.0439,-5.5297,-5.7176,-5.7394,-5.73,-5.7055,-5.6687,-5.6068,-5.5694,-5.5568,-5.5568,-5.6011,-5.7346,-5.6455,-5.6508,-5.8909,-5.8535,-5.8428,-5.9521,-5.9947,-6.0,-5.9785,-6.0077,-6.0131,-5.9785,-5.9947,-6.0315,-6.0576,-6.0185,-6.0369,-6.1073,-6.076,-6.0651,-6.0874,-6.0746,-5.9992,-5.8768,-5.9017,-5.9277,-5.9712,-6.0975,-6.0364,-5.8363,-5.9916,-6.0244,-5.9607,-5.9926,-5.99,-5.9501,-5.7888,-5.7522,-5.7441,-5.5539,-5.5096,-5.5247,-5.4937,-5.4504,-5.4146,-5.4581,-5.4581,-5.4581,-5.4709,-5.4784,-5.4959,-5.475,-5.4698,-5.4797,-5.4765,-5.4837,-5.4476,-5.3287,-5.2635,-5.1988,-5.0784,-4.9554,-4.843,-4.7247,-4.6069,-4.5256,-4.5539,-4.5531,-4.5432,-4.5525,-4.5011,-4.423,-4.3123,-4.1842,-4.0317,-3.8596,-3.7703,-3.7079,-3.6929,-3.656,-3.656,-3.669,-3.656,-3.656,-3.669,-3.6949,-3.7059,-3.7079,-3.7208,-3.7466,-3.7575,-3.637,-3.5848,-3.6018,-3.4,-3.3047,-2.7408,-3.3408,-3.9413,-4.7119,-5.3348,-5.7543,-5.73,-5.7055,-5.6725,-5.6307,-5.5837,-5.5568,-5.5568,-5.5568,-5.6064,-5.7612,-5.7346,-5.7585,-5.9682,-6.0239,-6.0481,-6.1178,-6.1959,-6.2228,-6.1313,-6.1959,-6.2228,-6.1286,-6.1986,-6.2605,-6.2739,-6.2605,-6.2632,-6.3059,-6.2899,-6.2599,-6.2131,-6.2131,-6.1373,-5.9992,-6.0174,-6.0225,-5.9994,-6.0911,-6.0461,-5.9119,-5.9943,-6.043,-6.0566,-5.9661,-5.9927,-6.0379,-5.8521,-5.7942,-5.8074,-5.6267,-5.5669,-5.5796,-5.4839,-5.4402,-5.4428,-5.4581,-5.4581,-5.4581,-5.481,-5.4784,-5.4784,-5.5012,-5.4885,-5.481,-5.5064,-5.481,-5.4273,-5.3604,-5.3248,-5.2693,-5.1455,-5.0399,-4.9396,-4.8724,-4.7429,-4.6612,-4.6995,-4.713,-4.6837,-4.6205,-4.5505,-4.4743,-4.3698,-4.2852,-4.1645,-4.0084,-3.8661,-3.7582,-3.7099,-3.6429,-3.6168,-3.656,-3.6319,-3.6429,-3.682,-3.656,-3.6168,-3.6038,-3.5625,-3.5079,-3.4532,-3.3867,-3.3333,-3.293,-3.1714,-3.1442,-2.5439,-3.2761,-4.1001,-4.5558,-5.0905,-5.5423,-5.6741,-5.6601,-5.6057,-5.6032,-5.5665,-5.5317,-5.5568,-5.5653,-5.6333,-5.8113,-5.8428,-5.9066,-6.0777,-6.1797,-6.2444,-6.2849,-6.4044,-6.4262,-6.2985,-6.4044,-6.4234,-6.2958,-6.4071,-6.478,-6.478,-6.478,-6.478,-6.478,-6.478,-6.4315,-6.3387,-6.352,-6.2731,-6.1113,-6.1557,-6.1421,-6.076,-6.1318,-6.114,-6.072,-6.0581,-6.075,-6.1154,-5.9528,-5.9608,-6.0486,-5.8733,-5.8127,-5.8021,-5.6606,-5.6241,-5.6343,-5.4943,-5.4428,-5.4581,-5.4581,-5.4581,-5.4555,-5.4631,-5.453,-5.4555,-5.4758,-5.4657,-5.4581,-5.4581,-5.4197,-5.3526,-5.2693,-5.2431,-5.2167,-5.1455,-5.054,-4.9999,-4.9999,-4.9111,-4.8443,-4.8697,-4.8697,-4.842,-4.734,-4.6447,-4.5454,-4.4341,-4.3941,-4.3054,-4.1417,-3.9855,-3.8788,-3.7945,-3.7095,-3.6772,-3.7119,-3.6857,-3.6758,-3.7079,-3.6257,-3.567,-3.5536,-3.4523,-3.3505,-3.2418,-3.1835,-3.1204,-3.0228,-2.9815,-2.9969,-3.4736,-3.7439,-4.0245,-4.9765,-4.9555,-4.8639,-5.5426,-5.5743,-5.5038,-5.6299,-5.5217,-5.453,-5.5443,-5.5926,-5.7129,-5.9444,-5.992,-6.0831,-6.3826,-6.3148,-6.2904,-6.4316,-6.4698,-6.4725,-6.448,-6.4698,-6.4725,-6.448,-6.4725,-6.478,-6.478,-6.478,-6.478,-6.478,-6.478,-6.4725,-6.4616,-6.4888,-6.4284,-6.2813,-6.3105,-6.2529,-6.1229,-6.2004,-6.2494,-6.2626,-6.0828,-5.9607,-5.87,-5.7284,-5.6497,-5.6207,-5.5047,-5.4814,-5.5426,-5.5195,-5.5548,-5.5951,-5.5595,-5.509,-5.4581,-5.4581,-5.4428,-5.4017,-5.363,-5.3888,-5.4146,-5.412,-5.4146,-5.4146,-5.4581,-5.4581,-5.3656,-5.0405,-4.9111,-4.872,-4.895,-4.895,-4.895,-4.895,-4.8835,-4.8697,-4.8326,-4.8581,-4.8789,-4.8558,-4.8236,-4.757,-4.6453,-4.5798,-4.4762,-4.3142,-4.2454,-4.1717,-4.0549,-4.0392,-3.9927,-3.886,-3.8819,-3.832,-3.7228,-3.684,-3.6803,-3.7085,-3.6347,-3.5832,-3.5695,-3.3695,-3.2661,-3.2509,-3.0486,-2.9555,-2.3804,-2.935,-3.4891,-3.7503,-4.1805,-4.651,-5.0452,-5.1287,-5.2202,-5.5485,-5.4119,-5.1825,-5.0971,-5.4416,-5.6811,-5.5479,-5.8806,-6.2255,-6.4398,-6.4207,-6.4071,-6.4725,-6.478,-6.478,-6.478,-6.478,-6.478,-6.478,-6.478,-6.478,-6.478,-6.478,-6.4916,-6.5052,-6.4916,-6.4916,-6.5052,-6.5052,-6.467,-6.407,-6.4205,-6.3958,-6.336,-6.3689,-6.3907,-6.4042,-6.3255,-6.2068,-6.0754,-5.9077,-5.8626,-5.9045,-5.744,-5.6839,-5.6761,-5.5824,-5.5825,-5.6005,-5.5018,-5.4683,-5.4581,-5.4581,-5.4581,-5.4428,-5.4171,-5.4146,-5.3863,-5.3346,-5.2955,-5.2587,-5.2167,-5.1745,-5.0944,-4.9179,-4.8789,-4.8674,-4.8164,-4.8304,-4.8443,-4.8443,-4.8443,-4.8326,-4.8187,-4.8326,-4.8581,-4.8697,-4.8443,-4.8166,-4.8005,-4.7662,-4.6885,-4.5055,-4.3972,-4.2936,-4.17,-4.0975,-4.0104,-3.876,-3.874,-3.8581,-3.8282,-3.6971,-3.6191,-3.6334,-3.547,-3.4881,-3.456,-3.3675,-3.2728,-3.1898,-3.1075,-3.0268,-1.8577,-2.4387,-3.0588,-3.0255,-3.5586,-4.2104,-4.6187,-4.6442,-4.7607,-5.3628,-5.1917,-4.9192,-4.8338,-5.2251,-5.5098,-5.3088,-5.8596,-6.3473,-6.4643,-6.478,-6.478,-6.478,-6.478,-6.478,-6.478,-6.478,-6.478,-6.478,-6.478,-6.478,-6.478,-6.478,-6.4916,-6.5188,-6.4916,-6.4916,-6.5188,-6.5052,-6.4916,-6.478,-6.4916,-6.4916,-6.478,-6.478,-6.478,-6.478,-6.478,-6.4125,-6.2985,-6.1584,-6.1154,-6.1257,-5.9363,-5.8622,-5.8249,-5.7067,-5.6782,-5.6891,-5.5332,-5.4944,-5.5022,-5.4557,-5.4325,-5.4325,-5.4325,-5.4017,-5.3759,-5.2955,-5.2587,-5.206,-5.1102,-4.975,-4.8512,-4.8235,-4.8235,-4.8258,-4.7605,-4.7627,-4.7627,-4.7627,-4.7767,-4.7767,-4.7745,-4.7908,-4.8187,-4.842,-4.8304,-4.8326,-4.8697,-4.8835,-4.8259,-4.6863,-4.581,-4.4576,-4.3236,-4.248,-4.136,-3.9776,-3.9495,-3.9049,-3.8482,-3.6778,-3.6044,-3.632,-3.5243,-3.4533,-3.4204,-3.3852,-3.3203,-3.2154,-3.2154,-3.1712,-2.4988,-2.6038,-2.8564,-3.3029,-3.2524,-3.3532,-4.3556,-4.1802,-4.0816,-5.0581,-4.8902,-4.6505,-4.9041,-5.0028,-5.1253,-5.3863,-6.0139,-6.4752,-6.478,-6.478,-6.478,-6.478,-6.478,-6.478,-6.478,-6.478,-6.478,-6.478,-6.478,-6.478,-6.478,-6.478,-6.478,-6.478,-6.478,-6.478,-6.478,-6.5052,-6.5052,-6.478,-6.5052,-6.5052,-6.478,-6.478,-6.478,-6.478,-6.478,-6.478,-6.4616,-6.426,-6.301,-6.1257,-5.9766,-5.9156,-5.9023,-5.8596,-5.8782,-5.8784,-5.6917,-5.6396,-5.6057,-5.4506,-5.3759,-5.3526,-5.3526,-5.3501,-5.3501,-5.3501,-5.3371,-5.3241,-5.2192,-4.9477,-4.7041,-4.7041,-4.6736,-4.6594,-4.69,-4.6736,-4.6453,-4.6453,-4.6736,-4.6878,-4.6594,-4.7182,-4.7605,-4.7627,-4.7908,-4.8326,-4.8697,-4.8835,-4.8697,-4.8187,-4.8187,-4.7582,-4.5982,-4.5839,-4.5,-4.2909,-4.1593,-3.9802,-3.7039,-3.6627,-3.6765,-3.7501,-3.6415,-3.571,-3.571,-3.4732,-3.4239,-3.4239,-3.4239,-3.4221,-1.834,-2.1586,-2.5691,-2.8084,-2.891,-3.1629,-4.0816,-4.3745,-4.4455,-4.4325,-4.6195,-4.7275,-4.527,-5.2353,-5.7758,-5.5243,-6.0403,-6.478,-6.478,-6.478,-6.478,-6.478,-6.478,-6.478,-6.478,-6.478,-6.478,-6.478,-6.478,-6.478,-6.478,-6.478,-6.4916,-6.5052,-6.4916,-6.4916,-6.5052,-6.5052,-6.4916,-6.478,-6.4916,-6.4916,-6.478,-6.478,-6.478,-6.478,-6.478,-6.478,-6.478,-6.4616,-6.4261,-6.3609,-6.2904,-6.247,-6.1816,-5.9346,-5.8531,-5.8238,-5.5265,-5.4195,-5.4121,-5.364,-5.3403,-5.3117,-5.2551,-5.2307,-5.2025,-5.0597,-5.0111,-5.0444,-5.1828,-5.0696,-4.9027,-4.8621,-4.7675,-4.6878,-4.7041,-4.6878,-4.6878,-4.6878,-4.69,-4.7019,-4.69,-4.7041,-4.7323,-4.7605,-4.7745,-4.7908,-4.8326,-4.8326,-4.8326,-4.8187,-4.7019,-4.5739,-4.4711,-4.3693,-4.2229,-4.0454,-3.9541,-3.8753,-3.8097,-3.6937,-3.6489,-3.6644,-3.6401,-3.6126,-3.6126,-3.5901,-3.52,-3.4501,-3.4501,-3.4097,-1.6387,-2.0246,-2.471,-2.5817,-2.6049,-2.8163,-3.6436,-3.9046,-3.9495,-3.8699,-4.1809,-4.4047,-4.2188,-4.9989,-5.5719,-5.2786,-5.7811,-6.2687,-6.4507,-6.4315,-6.4039,-6.4039,-6.3598,-6.334,-6.3793,-6.3139,-6.2892,-6.3484,-6.3112,-6.3014,-6.3874,-6.3874,-6.415,-6.5052,-6.4916,-6.4916,-6.5052,-6.4916,-6.478,-6.478,-6.478,-6.478,-6.478,-6.478,-6.478,-6.478,-6.478,-6.478,-6.478,-6.478,-6.478,-6.478,-6.4452,-6.415,-6.3463,-6.1189,-6.0367,-5.9789,-5.638,-5.5153,-5.4817,-5.3687,-5.328,-5.3161,-5.2493,-5.2303,-5.2018,-5.0793,-5.0324,-5.051,-5.1401,-5.1117,-5.0366,-5.0075,-4.9163,-4.8423,-4.8423,-4.8279,-4.8023,-4.7501,-4.7434,-4.7323,-4.6944,-4.69,-4.6878,-4.7323,-4.7464,-4.7605,-4.7908,-4.8047,-4.8047,-4.821,-4.6926,-4.5512,-4.4002,-4.3103,-4.1717,-3.9789,-3.8695,-3.8258,-3.8705,-3.6922,-3.6315,-3.7218,-3.6471,-3.6178,-3.6351,-3.6351,-3.5938,-3.527,-3.5423,-3.5182,-1.8064,-2.1372,-2.4751,-2.5622,-2.4234,-2.4493,-3.1558,-3.0075,-2.8613,-3.3808,-3.5891,-3.7419,-3.9455,-4.3709,-4.7394,-4.8641,-5.3468,-5.864,-6.3335,-6.2887,-6.2135,-6.2381,-6.1184,-6.0779,-6.2,-6.0543,-6.0071,-6.1503,-6.0492,-6.049,-6.2513,-6.2513,-6.3266,-6.4643,-6.478,-6.478,-6.478,-6.478,-6.478,-6.478,-6.478,-6.478,-6.478,-6.478,-6.478,-6.478,-6.478,-6.478,-6.478,-6.478,-6.478,-6.478,-6.4725,-6.445,-6.4121,-6.348,-6.3112,-6.2363,-5.9375,-5.7994,-5.7268,-5.4264,-5.3204,-5.3204,-5.3133,-5.3109,-5.3086,-5.3014,-5.3086,-5.2913,-5.1317,-5.0974,-5.1226,-5.1226,-5.0906,-5.0712,-5.0712,-5.0414,-4.9824,-4.8466,-4.8289,-4.8001,-4.6948,-4.6793,-4.6958,-4.7242,-4.7384,-4.7362,-4.7717,-4.7717,-4.7858,-4.8021,-4.779,-4.6515,-4.383,-4.3808,-4.3021,-4.0545,-3.9087,-3.8378,-3.8872,-3.6538,-3.6313,-3.8765,-3.687,-3.6056,-3.6351,-3.6403,-3.6403,-3.6351,-3.6782,-3.6937,-1.6757,-1.8816,-2.1271,-2.3783,-2.748,-3.122,-3.3503,-3.3128,-3.1435,-2.882,-2.9077,-3.0575,-3.3139,-3.9032,-4.7053,-5.7701,-5.3477,-5.0756,-5.6069,-5.4336,-5.3492,-5.6103,-5.6837,-5.8141,-6.0411,-6.0207,-6.0593,-6.2172,-6.1937,-6.2399,-6.415,-6.4177,-6.4315,-6.4752,-6.478,-6.478,-6.478,-6.478,-6.478,-6.478,-6.478,-6.478,-6.478,-6.478,-6.478,-6.478,-6.478,-6.478,-6.478,-6.478,-6.478,-6.4725,-6.4308,-6.4058,-6.3705,-6.1735,-6.0959,-6.0345,-5.6943,-5.583,-5.5353,-5.3606,-5.2999,-5.2841,-5.2071,-5.1996,-5.1837,-5.0916,-5.208,-5.3396,-5.3728,-5.2871,-5.2019,-5.2277,-5.1383,-5.0518,-5.0518,-5.0815,-5.077,-5.052,-5.0327,-5.0259,-5.0032,-4.9987,-5.0134,-5.0134,-5.0134,-4.9861,-4.8991,-4.8756,-4.8302,-4.6928,-4.683,-4.6066,-4.4311,-4.4191,-4.3116,-4.0764,-3.9405,-3.8872,-3.9383,-3.7809,-3.7144,-3.7804,-3.8057,-3.7673,-3.6782,-3.7358,-3.7201,-3.6351,-3.6506,-3.6489,-1.6918,-1.9684,-2.201,-2.065,-2.356,-2.6659,-2.6049,-2.5922,-2.5192,-2.2372,-2.241,-2.4626,-3.0123,-3.2157,-3.7118,-4.956,-4.843,-4.773,-5.2633,-5.337,-5.366,-5.4074,-5.5257,-5.6201,-5.6652,-5.7886,-5.9352,-6.0913,-6.155,-6.259,-6.4376,-6.4516,-6.4823,-6.5433,-6.5053,-6.478,-6.478,-6.498,-6.525,-6.5599,-6.471,-6.4441,-6.478,-6.478,-6.478,-6.478,-6.478,-6.478,-6.478,-6.478,-6.478,-6.4615,-6.4175,-6.3875,-6.3714,-6.2131,-6.1592,-6.113,-5.7332,-5.5407,-5.4336,-5.2747,-5.2433,-5.2503,-5.1971,-5.1973,-5.2018,-5.1614,-5.253,-5.3656,-5.4128,-5.3606,-5.3064,-5.3351,-5.2763,-5.2224,-5.2224,-5.2505,-5.2671,-5.1911,-5.197,-5.1982,-5.1203,-5.0518,-4.9898,-4.9898,-4.9297,-4.8496,-4.7845,-4.7802,-4.733,-4.6425,-4.6171,-4.5686,-4.4828,-4.3933,-4.2882,-4.1517,-4.0957,-4.0451,-4.0247,-3.8639,-3.8072,-3.8695,-3.8143,-3.7514,-3.6644,-3.7044,-3.673,-3.571,-3.6005,-3.6022,-1.7499,-2.1279,-2.3643,-1.8046,-1.7949,-1.8736,-1.6772,-1.6398,-1.6401,-1.6442,-1.6662,-1.9219,-2.6881,-2.5112,-2.5277,-3.373,-4.0535,-4.5965,-4.9708,-5.3758,-5.5479,-5.3492,-5.466,-5.5104,-5.3901,-5.6011,-5.8111,-5.9497,-6.0622,-6.211,-6.4059,-6.4059,-6.4694,-6.6377,-6.54,-6.4885,-6.4885,-6.5369,-6.5994,-6.6828,-6.5063,-6.453,-6.5023,-6.4556,-6.431,-6.431,-6.4121,-6.4039,-6.4039,-6.4039,-6.4039,-6.4009,-6.3429,-6.3265,-6.3126,-6.2593,-6.2375,-6.1914,-5.8742,-5.6039,-5.3973,-5.2455,-5.2113,-5.2433,-5.2433,-5.2592,-5.291,-5.3341,-5.3476,-5.3318,-5.3499,-5.3859,-5.4039,-5.4039,-5.4039,-5.4039,-5.4039,-5.4486,-5.4366,-5.3184,-5.3177,-5.3052,-5.1878,-5.0518,-4.9585,-4.928,-4.7895,-4.6764,-4.6306,-4.6129,-4.5973,-4.5816,-4.555,-4.5265,-4.511,-4.3799,-4.2943,-4.2701,-4.2849,-4.2556,-4.1558,-3.9893,-3.9496,-4.0339,-3.8846,-3.767,-3.6974,-3.694,-3.6401,-3.5224,-3.5537,-3.5693,-1.6778,-1.8998,-2.1018,-1.985,-1.9387,-1.9051,-1.8257,-1.6496,-1.4873,-1.4245,-1.3652,-1.4102,-1.6894,-2.1622,-2.4358,-2.2128,-3.1871,-4.0324,-4.2342,-4.5348,-4.8348,-5.1312,-5.2596,-5.4524,-5.741,-5.8361,-5.9437,-6.0958,-6.1272,-6.2076,-6.379,-6.3511,-6.4118,-6.5791,-6.57,-6.5594,-6.5594,-6.5643,-6.6514,-6.8057,-6.6753,-6.606,-6.614,-6.362,-6.2565,-6.2513,-6.1361,-6.0779,-6.0779,-6.0779,-6.0779,-6.0763,-6.0253,-5.994,-5.991,-5.9485,-5.9271,-5.9085,-5.8596,-5.7087,-5.5155,-5.336,-5.2774,-5.2774,-5.2774,-5.2774,-5.291,-5.3341,-5.316,-5.3183,-5.3859,-5.3859,-5.3499,-5.3499,-5.3499,-5.3499,-5.3499,-5.4016,-5.4307,-5.399,-5.4257,-5.4475,-5.4336,-5.4313,-5.3826,-5.2397,-5.1563,-5.0285,-4.7594,-4.6853,-4.6032,-4.4635,-4.4771,-4.4792,-4.4553,-4.4535,-4.4404,-4.4103,-4.4385,-4.4252,-4.3439,-4.3104,-4.2727,-4.2191,-4.2577,-4.1678,-3.9499,-3.9516,-3.8359,-3.6178,-3.538,-3.5067,-1.7421,-1.8567,-1.9678,-1.9599,-1.9198,-1.8589,-1.7619,-1.6563,-1.5357,-1.4156,-1.284,-1.2817,-1.5822,-1.7815,-1.9641,-2.1456,-2.6046,-3.1078,-3.6306,-4.3009,-4.844,-5.1547,-5.422,-5.587,-5.5966,-5.8504,-6.0324,-6.107,-6.2535,-6.3647,-6.4297,-6.4141,-6.4453,-6.5227,-6.466,-6.4892,-6.6233,-6.5319,-6.5508,-6.6474,-6.5866,-6.5428,-6.4981,-6.4611,-6.4078,-6.3453,-6.2738,-6.2025,-6.1315,-6.1779,-6.1652,-6.0974,-6.1025,-6.0899,-6.0813,-5.9771,-5.93,-5.9136,-5.755,-5.6209,-5.5015,-5.2903,-5.2433,-5.2614,-5.2614,-5.2614,-5.2592,-5.2729,-5.257,-5.2388,-5.2751,-5.291,-5.2729,-5.257,-5.2888,-5.3047,-5.2888,-5.3544,-5.4196,-5.3836,-5.3814,-5.3634,-5.3431,-5.2163,-5.0878,-5.023,-4.9046,-4.775,-4.6233,-4.5843,-4.5345,-4.4549,-4.4736,-4.4721,-4.4289,-4.4649,-4.4819,-4.4649,-4.48,-4.4818,-4.4439,-4.4002,-4.3585,-4.3205,-4.2512,-4.1213,-3.9699,-3.88,-3.7831,-3.6937,-3.5565,-3.4695,-2.0369,0.0,-2.2921,-2.2843,-2.197,-2.0749,0.0,-1.7661,-1.6235,-1.4494,-1.2942,-1.2894,-1.5772,-1.4954,-1.5627,-2.1053,-2.1108,-2.3207,-3.1127,-3.9495,-4.6108,-4.9722,-5.4081,-5.6021,-5.4042,-5.8247,-6.1073,-6.1073,-6.3072,-6.4323,-6.4323,-6.4162,-6.4323,-6.4779,-6.3549,-6.3924,-6.6037,-6.4748,-6.4494,-6.5257,-6.5123,-6.4876,-6.4712,-6.5249,-6.5146,-6.4328,-6.3766,-6.2824,-6.1786,-6.2464,-6.216,-6.1227,-6.1498,-6.1525,-6.1146,-5.9748,-5.93,-5.9043,-5.6394,-5.5453,-5.4831,-5.2903,-5.2273,-5.2433,-5.2433,-5.2455,-5.2273,-5.2433,-5.2113,-5.1792,-5.1792,-5.1953,-5.2113,-5.1792,-5.2273,-5.2614,-5.2273,-5.3092,-5.3724,-5.3363,-5.2843,-5.2344,-5.1821,-4.9721,-4.7933,-4.7435,-4.6284,-4.514,-4.4819,-4.463,-4.463,-4.463,-4.4649,-4.4649,-4.4308,-4.4479,-4.4535,-4.4535,-4.4706,-4.463,-4.4065,-4.3817,-4.3495,-4.3142,-4.1541,-4.0431,-3.9814,-3.8214,-3.741,-3.7161,-3.5632,-3.4456,0.0,-3.1589,-3.4437,-3.4143,-3.1575,-2.837,-2.5509,-2.1013,0.0,-1.4301,-1.3635,-1.3366,-1.3047,-1.4122,-1.5044,-1.5122,-1.6358,-2.0022,-2.7385,-3.0196,-3.4522,-4.2616,-4.8106,-5.1927,-5.3605,-5.8913,-6.204,-6.204,-6.2257,-6.2474,-6.2474,-6.2111,-6.2573,-6.4153,-6.267,-6.2525,-6.4275,-6.4275,-6.5054,-6.6558,-6.5848,-6.6037,-6.7041,-6.3777,-6.3009,-6.3899,-6.1265,-6.0165,-6.0092,-6.0189,-6.0005,-5.9957,-5.9456,-5.875,-5.7896,-5.7309,-5.7173,-5.7009,-5.5754,-5.5538,-5.5544,-5.4381,-5.3566,-5.2774,-5.2774,-5.2614,-5.2433,-5.2774,-5.2273,-5.1792,-5.2113,-5.1953,-5.1792,-5.1792,-5.1953,-5.2273,-5.2273,-5.2614,-5.2933,-5.2933,-5.1909,-5.1061,-5.1061,-5.0047,-4.8882,-4.7081,-4.6747,-4.6096,-4.4649,-4.3965,-4.3622,-4.3622,-4.4137,-4.4326,-4.4326,-4.3635,-4.3205,-4.3205,-4.4234,-4.3933,-4.1558,-4.2554,-4.2572,-4.1429,-4.1318,-4.1082,-4.1082,-3.9478,-3.7953,-3.6351,-3.538,-3.4703,-3.2351,-3.4635,-3.5842,-3.5666,-3.2519,-2.8887,-2.6641,-2.2457,-1.8114,-1.5339,-1.4018,-1.3466,-1.387,-1.3657,-1.4548,-1.7844,-1.8547,-2.0204,-2.4759,-3.1951,-3.8197,-4.1937,-5.1261,-5.7865,-5.8646,-6.0672,-6.191,-6.191,-6.191,-6.191,-6.191,-6.1715,-6.2058,-6.2861,-6.2229,-6.2229,-6.2885,-6.2885,-6.3199,-6.3488,-6.4324,-6.4706,-6.4731,-6.4312,-6.4116,-6.414,-6.3066,-6.2179,0.0,-6.1947,-6.1686,-6.083,-6.1334,-6.1334,-6.074,-6.0098,-5.9698,-5.9461,-5.7391,-5.643,-5.5979,-5.4697,-5.3566,-5.2933,-5.2933,-5.3597,-5.4256,-5.3353,-5.2524,-5.2067,-5.1622,-5.1309,-5.1148,-5.1148,-5.0943,-5.0576,-5.0294,-5.0089,-4.9884,-4.96,-4.8759,-4.7913,-4.7747,-4.658,-4.559,-4.4932,-4.5102,-4.497,-4.4308,-4.4308,-4.4102,-4.3448,-4.341,-4.3784,-4.427,-4.2926,-4.2222,-4.3074,-4.2721,-4.2147,-4.1193,-4.1651,-4.1669,-4.1174,-4.0536,-4.0297,-4.0438,-3.9809,-3.9027,-3.7918,-3.654,-3.5145,-3.7289,-3.9152,-4.0101,-3.9914,-3.7085,-3.3287,-2.9507,-2.5347,-2.0975,-1.6378,-1.4611,-1.408,-1.4432,-1.4026,-1.4831,-1.8653,-1.9317,-2.0806,-2.5153,-3.2969,-3.9242,-4.1979,-5.0463,-5.691,-5.8439,-6.0409,-6.1544,-6.1544,-6.1544,-6.1544,-6.1544,-6.1544,-6.191,-6.2447,-6.2447,-6.2447,-6.2276,-6.2276,-6.2081,-6.1715,-6.2861,-6.3536,-6.3416,-6.4231,-6.4755,-6.478,-6.428,-6.3532,-6.2736,-6.3486,-6.3198,-6.2453,-6.3007,-6.2911,-6.2551,-6.1667,-6.1404,-6.1141,-5.8981,-5.7778,-5.7087,-5.6093,-5.4973,-5.3781,-5.3789,-5.4658,-5.5488,-5.4345,-5.3308,-5.2586,-5.1915,-5.1363,-5.0986,-5.1148,-5.0273,-4.9558,-4.9272,-4.8573,-4.7892,-4.7601,-4.66,-4.574,-4.5422,-4.427,-4.3451,-4.3451,-4.3794,-4.4137,-4.4137,-4.4308,-4.4083,-4.3392,-4.3094,-4.3001,-4.3539,-4.2205,-4.18,-4.2723,-4.2057,-4.1177,-4.0503,-4.0646,-4.0677,-4.0261,-3.9572,-3.9298,-3.961,-3.961,-3.9279,-3.8792,-3.7338,-3.5732,-4.2175,-4.6272,-4.9065,-4.8835,-4.7172,-4.3296,-3.4866,-3.0198,-2.5376,-1.7269,-1.5566,-1.526,-1.4242,-1.5146,-1.6093,-1.5943,-1.7545,-2.1432,-2.926,-3.1759,-3.5383,-4.2205,-4.4019,-4.6741,-5.1854,-5.7905,-6.1544,-6.1544,-6.1544,-6.1544,-6.1544,-6.1567,-6.2081,-6.2981,-6.2981,-6.2787,-6.2276,-6.2276,-6.2081,-6.1567,-6.2081,-6.2885,-6.4133,-6.3247,-6.3945,-6.5392,-6.4064,-6.3777,-6.4304,-6.4304,-6.4304,-6.428,-6.3753,-6.2957,-6.2039,-6.1569,-6.1428,-6.126,-6.0299,-5.963,-5.9335,-5.9324,-5.7639,-5.5777,-5.5771,-5.5853,-5.5811,-5.5811,-5.4478,-5.3256,-5.3541,-5.235,-5.1007,-5.1631,-5.0576,-4.9537,-4.9537,-4.8409,-4.7621,-4.7621,-4.6096,-4.4894,-4.4894,-4.3757,-4.2952,-4.2952,-4.3279,-4.3622,-4.3622,-4.3622,-4.3622,-4.3604,-4.2905,-4.2259,-4.1906,-4.172,-4.1702,-4.172,-4.2073,-4.1215,-3.882,-3.9542,-3.9472,-3.8206,-3.8476,-3.8629,-3.8611,-3.8611,-3.8763,-3.8611,-3.7827,-3.6902,-4.6466,-4.8189,-4.9113,-4.9974,-4.7204,-4.2801,-3.723,-3.203,-2.6282,-1.9175,-1.6832,-1.5786,-1.4828,-1.5517,-1.6481,-1.7075,-2.2434,-2.7464,-3.0169,-3.885,-4.5906,-4.8603,-5.2823,-5.634,-5.8676,-6.0479,-6.1544,-6.1544,-6.1544,-6.1739,-6.2081,-6.2423,-6.2787,-6.344,-6.344,-6.3271,-6.3102,-6.2957,-6.2447,-6.2081,-6.191,-6.2058,-6.2716,-6.2593,-6.2933,-6.3777,-6.3271,-6.344,-6.3777,-6.3464,-6.3801,-6.428,-6.3753,-6.3583,-6.365,-6.3484,-6.3508,-6.3338,-6.1918,-6.0763,-5.967,-5.8645,-5.7121,-5.6024,-5.7434,-5.7767,-5.7731,-5.7061,-5.6467,-5.6075,-5.5927,-5.4209,-5.2131,-5.0563,-4.8902,-4.7415,-4.6116,-4.4781,-4.3757,-4.3757,-4.3432,-4.2898,-4.2898,-4.2589,-4.2433,-4.2433,-4.2779,-4.3125,-4.3125,-4.3451,-4.3231,-4.2475,-4.1697,-4.1787,-4.2536,-4.1205,-4.0792,-4.1666,-4.1029,-4.0196,-3.9569,-3.9713,-3.9658,-3.8864,-3.9003,-3.9179,-3.9239,-3.9239,-3.9372,-3.9675,-3.8745,-3.7845,-4.8578,-4.9671,-4.981,-5.081,-4.9408,-4.5798,-3.8402,-3.4142,-2.9125,-2.0356,-1.7393,-1.6193,-1.5798,-1.6066,-1.7473,-2.0908,-2.6183,-3.1692,-3.7249,-4.5517,-5.2128,-5.511,-5.857,-6.0866,-6.1497,-6.1544,-6.1544,-6.1544,-6.1715,-6.2081,-6.2763,-6.3126,-6.344,-6.3777,-6.3945,-6.3777,-6.3585,-6.3271,-6.2957,-6.2447,-6.2081,-6.191,-6.2276,-6.2553,-6.2914,-6.3235,-6.3235,-6.3578,-6.3872,-6.3294,-6.3295,-6.3801,-6.344,-6.3609,-6.3945,-6.3945,-6.4112,-6.4206,-6.3217,-6.2144,-6.1044,-6.0241,-5.8837,-5.7767,-5.8892,-5.8964,-5.8623,-5.8043,-5.7864,-5.7579,-5.6161,-5.4879,-5.3265,-5.0899,-4.8986,-4.7301,-4.6323,-4.493,-4.37,-4.37,-4.37,-4.37,-4.37,-4.37,-4.37,-4.37,-4.4052,-4.3943,-4.3459,-4.3579,-4.327,-4.213,-4.17,-4.1708,-4.2571,-4.1539,-4.1199,-4.1834,-4.0662,-4.0014,-4.0335,-3.991,-3.966,-3.98,-3.9846,-3.9914,-3.9914,-3.9711,-3.9827,-3.9978,-3.9524,-3.8763,-4.9392,-5.0863,-5.1002,-5.1879,-5.2878,-5.0748,-3.9024,-3.6292,-3.2911,-2.1036,-1.7553,-1.6681,-1.6827,-1.7182,-1.9643,-2.6076,-2.9774,-3.5817,-4.762,-5.1505,-5.5283,-6.0905,-6.1544,-6.1544,-6.1544,-6.1544,-6.1544,-6.1544,-6.191,-6.2593,-6.344,-6.3585,-6.3777,-6.4304,-6.4304,-6.4112,-6.3609,-6.3585,-6.344,-6.2957,-6.2447,-6.2276,-6.23,-6.2864,-6.3333,-6.3661,-6.3755,-6.4153,-6.4605,-6.3478,-6.3267,-6.3267,-6.3244,-6.3414,-6.3874,-6.3778,-6.409,-6.4426,-6.4329,-6.3801,-6.2981,-6.2981,-6.1739,-6.0334,-6.016,-5.9438,-5.8735,-5.8735,-5.8735,-5.816,-5.548,-5.5025,-5.4593,-5.2353,-5.0357,-4.8726,-4.8548,-4.7278,-4.6015,-4.6015,-4.6015,-4.6015,-4.6015,-4.6015,-4.5997,-4.5923,-4.5923,-4.5449,-4.4112,-4.4021,-4.3555,-4.2331,-4.226,-4.226,-4.226,-4.2242,-4.2242,-4.2242,-4.0906,-4.0389,-4.1013,-4.0073,-3.9945,-4.0488,-4.0567,-4.0691,-4.0459,-4.0124,-3.9845,-3.9618,-3.9711,-3.9235,-5.0721,-5.145,-5.2018,-5.3797,-5.4115,-5.1193,-4.1365,-3.8277,-3.3973,-2.2023,-1.9286,-1.8531,-1.6744,-2.1642,-2.6095,-2.667,-3.7171,-4.6282,-4.8922,-5.5338,-6.02,-6.145,-6.1544,-6.1544,-6.1544,-6.1544,-6.1544,-6.1544,-6.191,-6.2447,-6.3126,-6.3801,-6.428,-6.4304,-6.4304,-6.428,-6.4112,-6.3777,-6.3609,-6.344,-6.2957,-6.2617,-6.23,-6.3189,-6.3485,-6.338,-6.42,-6.4707,-6.5018,-6.4651,-6.4734,-6.5442,-6.4888,-6.5065,-6.5498,-6.4982,-6.484,-6.4891,-6.4405,-6.3801,-6.2981,-6.2981,-6.2617,-6.2081,-6.1027,-6.0334,-5.9811,-5.9438,-5.924,-5.902,-5.8115,-5.6751,-5.5421,-5.4572,-5.1507,-4.837,-4.6918,-4.6377,-4.6015,-4.6015,-4.6015,-4.6015,-4.6015,-4.6015,-4.5813,-4.4634,-4.4543,-4.4075,-4.2774,-4.2666,-4.2438,-4.226,-4.2607,-4.2779,-4.2779,-4.3106,-4.3279,-4.3279,-4.295,-4.2379,-4.1738,-4.201,-4.1648,-4.0525,-4.0996,-4.0777,-3.9477,-3.93,-3.8392,-3.6825,-3.7423,-3.6886,-5.2349,-5.2994,-5.3782,-5.5084,-5.5162,-5.2864,-4.5303,-4.2506,-3.8348,-2.6657,-2.4045,-2.269,-1.8812,-2.4223,-2.9871,-3.1848,-4.2257,-5.1036,-5.3115,-5.8196,-6.1544,-6.1544,-6.1544,-6.1754,-6.2268,-6.1848,-6.1777,-6.2292,-6.2216,-6.2447,-6.3271,-6.3969,-6.4304,-6.4304,-6.4304,-6.4304,-6.4304,-6.4112,-6.4043,-6.4357,-6.3869,-6.3812,-6.3789,-6.4472,-6.4762,-6.4629,-6.5167,-6.5583,-6.5718,-6.5067,-6.506,-6.5396,-6.5216,-6.5396,-6.5611,-6.4717,-6.4684,-6.5034,-6.4309,-6.3777,-6.3633,-6.3633,-6.3126,-6.2252,-6.1372,-6.0334,-5.9438,-5.9263,-5.9263,-5.9263,-5.8381,-5.6702,-5.5228,-5.4356,-5.1705,-4.9058,-4.8138,-4.7953,-4.7953,-4.7953,-4.7953,-4.7953,-4.7953,-4.7414,-4.6822,-4.6034,-4.5467,-4.458,-4.3253,-4.3339,-4.3369,-4.2816,-4.3106,-4.3279,-4.3279,-4.3451,-4.3622,-4.3622,-4.3254,-4.2846,-4.264,-4.2506,-4.2155,-4.1684,-4.0862,-4.0163,-3.9259,-3.8397,-3.751,-3.6467,-3.6848,-3.6318,-5.3777,-5.4794,-5.546,-5.6187,-5.6296,-5.4553,-4.8941,-4.6814,-4.3167,-3.2592,-2.9546,-2.7259,-2.2357,-2.7024,-3.2812,-3.6689,-4.4999,-5.2529,-5.6613,-5.906,-6.0795,-6.152,-6.1544,-6.1894,-6.2806,-6.2254,-6.2114,-6.3005,-6.2765,-6.2954,-6.3609,-6.4112,-6.4304,-6.4304,-6.4304,-6.4377,-6.4405,-6.4405,-6.4746,-6.5295,-6.4971,-6.4898,-6.5396,-6.5888,-6.6172,-6.6195,-6.6359,-6.6429,-6.6382,-6.5564,-6.5237,-6.5237,-6.5237,-6.5278,-6.5334,-6.4474,-6.4479,-6.4861,-6.3971,-6.3945,-6.4304,-6.4304,-6.3271,-6.191,-6.1715,-6.0288,-5.8536,-5.8558,-5.8536,-5.8359,-5.7136,-5.5633,-5.4137,-5.3036,-5.1259,-5.0039,-5.0039,-5.0039,-5.0039,-5.0039,-5.0039,-5.0039,-5.0039,-4.9038,-4.8326,-4.799,-4.7026,-4.5886,-4.4416,-4.4771,-4.4727,-4.3917,-4.3825,-4.377,-4.3641,-4.3776,-4.3776,-4.3776,-4.3166,-4.3036,-4.3383,-4.242,-4.2046,-4.2545,-4.0518,-3.9218,-3.9166,-3.754,-3.6503,-3.6206,-3.6334,-3.598,-5.3926,-5.5803,-5.6764,-5.7867,-5.7385,-5.5029,-4.9623,-4.7751,-4.5167,-3.7976,-3.3675,-3.0371,-2.78,-3.3108,-3.6979,-3.4438,-4.396,-5.2212,-5.4114,-5.5375,-5.7641,-6.1255,-6.1544,-6.1614,-6.1754,-6.2004,-6.2152,-6.2294,-6.3841,-6.4404,-6.3633,-6.4112,-6.4304,-6.4304,-6.4304,-6.4551,-6.4961,-6.4985,-6.5343,-6.5896,-6.5896,-6.5611,-6.5396,-6.6253,-6.6541,-6.6218,-6.7107,-6.7504,-6.7481,-6.7364,-6.7294,-6.7294,-6.7294,-6.6756,-6.6028,-6.592,-6.5322,-6.454,-6.4333,-6.428,-6.4304,-6.4304,-6.3633,-6.2787,-6.2205,-6.0242,-5.7961,-5.765,-5.6397,-5.5132,-5.4768,-5.367,-5.2562,-5.2377,-5.1111,-5.0039,-5.0039,-5.0039,-5.0039,-5.0039,-5.0039,-5.0039,-5.0039,-4.9755,-4.9396,-4.8269,-4.7878,-4.7079,-4.504,-4.5445,-4.5555,-4.4764,-4.5023,-4.49,-4.4211,-4.4478,-4.48,-4.48,-4.4706,-4.3878,-4.261,-4.2314,-4.1961,-4.136,-3.9746,-3.8628,-3.8171,-3.666,-3.5096,-3.3344,-3.3896,-3.3852,-5.0381,-5.2726,-5.4721,-5.4738,-5.4989,-5.4318,-5.1733,-5.1632,-5.0152,-4.3961,-3.9135,-3.4708,-3.0759,-3.5462,-3.9312,-3.7503,-4.7566,-5.5705,-5.6322,-5.7393,-5.8926,-6.1403,-6.1544,-6.2184,-6.3532,-6.326,-6.3513,-6.4328,-6.5102,-6.5329,-6.4867,-6.5013,-6.4914,-6.4304,-6.4304,-6.4331,-6.4285,-6.4545,-6.5322,-6.6609,-6.6609,-6.6554,-6.6567,-6.7013,-6.7224,-6.706,-6.7504,-6.7691,-6.7644,-6.727,-6.7036,-6.6779,-6.6403,-6.5911,-6.5213,-6.4899,-6.4741,-6.4564,-6.3971,-6.4112,-6.4304,-6.4304,-6.3801,-6.2593,-6.1106,-5.9325,-5.7606,-5.6217,-5.5292,-5.4726,-5.4726,-5.3629,-5.2707,-5.2707,-5.1278,-5.0039,-5.0039,-5.0039,-5.0039,-5.0039,-5.0039,-5.0039,-5.0039,-4.9433,-4.8588,-4.8009,-4.7396,-4.7005,-4.7124,-4.7406,-4.7312,-4.6486,-4.5803,-4.5373,-4.5018,-4.4397,-4.4289,-4.4478,-4.4649,-4.4328,-4.3784,-4.3615,-4.295,-4.1792,-4.0233,-3.8819,-3.7879,-3.567,-3.426,-3.3455,-3.3005,-3.2824,-4.6818,-4.9269,-5.1592,-5.2246,-5.3019,-5.3629,-5.3633,-5.4309,-5.3901,-4.967,-4.4913,-4.0186,-3.62,-3.9308,-4.2042,-4.0983,-4.9608,-5.6553,-5.6828,-5.7911,-5.9206,-6.138,-6.195,-6.2991,-6.5183,-6.4556,-6.4836,-6.6755,-6.6809,-6.6598,-6.6133,-6.6108,-6.5646,-6.4406,-6.4526,-6.4189,-6.368,-6.439,-6.5314,-6.6564,-6.6541,-6.694,-6.7317,-6.7574,-6.7691,-6.7691,-6.7691,-6.7691,-6.7621,-6.6964,-6.6356,-6.6078,-6.5436,-6.4872,-6.4208,-6.3943,-6.3821,-6.4032,-6.3874,-6.3945,-6.4304,-6.4304,-6.344,-6.1863,-5.9826,-5.8072,-5.6333,-5.4403,-5.3833,-5.3792,-5.3792,-5.2872,-5.2151,-5.2151,-5.1091,-5.0039,-5.0039,-4.9849,-4.9831,-4.9849,-4.9831,-4.9831,-4.9849,-4.9114,-4.8476,-4.8476,-4.76,-4.7617,-4.8976,-4.9071,-4.8729,-4.7875,-4.6872,-4.6149,-4.556,-4.4432,-4.3872,-4.4174,-4.3979,-4.4169,-4.4478,-4.3965,-4.3104,-4.2277,-3.9932,-3.8467,-3.7657,-3.5479,-3.4321,-3.4307,-3.3473,-3.2983,-4.4802,-4.6579,-4.807,-5.2849,-5.3519,-5.3224,-5.4217,-5.4201,-5.4181,-5.4775,-5.0744,-4.7088,-4.6891,-4.7044,-4.6298,-4.3235,-4.7525,-5.1482,-5.2434,-5.3554,-5.6097,-6.0944,-6.2906,-6.4096,-6.5254,-6.5107,-6.6048,-6.8664,-6.8786,-6.812,-6.6748,-6.6676,-6.6041,-6.466,-6.4934,-6.4588,-6.3741,-6.4781,-6.5302,-6.5686,-6.601,-6.6195,-6.6289,-6.7247,-6.7691,-6.7691,-6.7691,-6.7691,-6.7621,-6.6592,-6.6172,-6.6055,-6.5073,-6.4115,-6.325,-6.3684,-6.3544,-6.3198,-6.3969,-6.4304,-6.4304,-6.4304,-6.2522,-6.0045,-5.9477,-5.6469,-5.3117,-5.2582,-5.1298,-5.0209,-5.0209,-5.0209,-5.002,-5.002,-5.002,-5.0039,-5.0039,-4.9641,-4.9452,-4.9831,-4.9641,-4.9452,-4.9831,-4.9982,-4.9774,-4.9774,-4.9736,-4.9717,-4.9963,-4.9963,-4.9621,-4.8767,-4.8634,-4.7769,-4.5654,-4.4709,-4.4134,-4.3542,-4.3429,-4.3325,-4.3641,-4.2207,-4.1529,-4.1756,-3.8504,-3.7009,-3.7657,-3.6293,-3.5527,-3.5527,-3.5499,-3.5157,-4.0359,-4.2813,-4.4605,-4.916,-5.072,-5.1279,-5.1652,-5.2623,-5.3669,-5.4216,-5.0562,-4.733,-4.7973,-4.778,-4.7309,-4.6425,-5.0531,-5.4064,-5.5108,-5.554,-5.7286,-6.1216,-6.2388,-6.3892,-6.6514,-6.7294,-6.8372,-7.0015,-6.9478,-6.8582,-6.7835,-6.7835,-6.7173,-6.5585,-6.5714,-6.5361,-6.4828,-6.6507,-6.6684,-6.5499,-6.5935,-6.6235,-6.6258,-6.6627,-6.6632,-6.6195,-6.6195,-6.6011,-6.5681,-6.5013,-6.4411,-6.4138,-6.3438,-6.2827,-6.2671,-6.3015,-6.3267,-6.344,-6.3777,-6.4112,-6.4112,-6.2885,-6.184,-6.0415,-5.7362,-5.5187,-5.3404,-5.1819,-5.0547,-5.0039,-5.0039,-5.0039,-4.9831,-4.9452,-4.9452,-4.9452,-4.9452,-4.9262,-4.9243,-4.9849,-4.9831,-4.9831,-4.9831,-5.0039,-5.0039,-5.0039,-5.0039,-5.0039,-5.0039,-5.0039,-4.9906,-4.9602,-4.8866,-4.7913,-4.7131,-4.4832,-4.3336,-4.3009,-4.2047,-4.1571,-4.1344,-4.1249,-4.0941,-4.0164,-3.8868,-3.8066,-3.7572,-3.5982,-3.5021,-3.4607,-3.3805,-3.3135,-3.5048,-3.82,-4.1203,-4.5325,-4.8029,-4.9783,-5.0272,-5.1385,-5.2623,-5.3144,-5.115,-4.9431,-4.9953,-5.0022,-5.0221,-5.0571,-5.3191,-5.5498,-5.6331,-5.6729,-5.8246,-6.1534,-6.2536,-6.4527,-6.8085,-6.9104,-6.9917,-7.0625,-7.0039,-6.9286,-6.8763,-6.8763,-6.7894,-6.612,-6.6253,-6.6073,-6.5372,-6.6893,-6.7037,-6.5985,-6.6275,-6.6406,-6.6406,-6.6406,-6.6419,-6.6149,-6.5801,-6.5453,-6.5097,-6.4073,-6.372,-6.3601,-6.2874,-6.2474,-6.2647,-6.2968,-6.3869,-6.4623,-6.4431,-6.4116,-6.368,-6.1934,-6.0819,-5.9247,-5.5835,-5.4343,-5.3254,-5.1188,-5.0209,-5.0039,-5.0039,-4.9831,-4.9641,-4.9243,-4.9243,-4.9243,-4.9243,-4.9243,-4.9243,-4.9849,-4.9831,-4.9831,-4.9831,-5.0039,-5.0039,-5.0039,-5.0039,-5.0039,-5.0039,-5.0039,-5.0039,-5.0039,-4.9133,-4.8271,-4.7026,-4.4703,-4.2808,-4.1821,-4.078,-4.03,-4.0293,-4.0406,-4.0055,-3.9368,-3.8426,-3.7776,-3.6835,-3.5426,-3.4605,-3.3985,-3.3376,-3.2804,-2.9842,-3.3403,-3.7939,-4.1818,-4.5633,-4.8928,-5.016,-5.0417,-5.0766,-5.2054,-5.2981,-5.3703,-5.3726,-5.4366,-5.4885,-5.5265,-5.5086,-5.4931,-5.5265,-5.6285,-5.82,-6.178,-6.3597,-6.5809,-6.9341,-7.0208,-7.06,-7.0625,-7.0649,-7.033,-6.9241,-6.9241,-6.8206,-6.6242,-6.6588,-6.6427,-6.5546,-6.5895,-6.6383,-6.6932,-6.7002,-6.7002,-6.6932,-6.6979,-6.7146,-6.7598,-6.6592,-6.6148,-6.5961,-6.4021,-6.3811,-6.4606,-6.3601,-6.3227,-6.3227,-6.3661,-6.4955,-6.6379,-6.5911,-6.4612,-6.2806,-6.1675,-5.9382,-5.6739,-5.4834,-5.3556,-5.2447,-5.0475,-5.0039,-4.9849,-5.0039,-4.9641,-4.9243,-4.9243,-4.9243,-4.9243,-4.9243,-4.9243,-4.9243,-4.9849,-4.9641,-4.9433,-4.9831,-5.0039,-5.0039,-5.0039,-5.0039,-5.0039,-5.0039,-5.0039,-5.0039,-5.0039,-5.0039,-4.8529,-4.5225,-4.4288,-4.2543,-4.0036,-3.943,-3.9685,-4.0487,-3.9607,-3.9174,-3.9159,-3.6859,-3.5594,-3.5541,-3.4951,-3.4307,-3.3664,-3.4261,-3.4219,-3.822,-3.7777,-3.7006,-4.1211,-4.2917,-4.3716,-4.427,-4.4587,-4.6066,-5.0345,-5.0815,-5.1128,-5.3111,-5.2848,-5.2618,-5.3003,-5.4105,-5.4463,-5.3656,-5.4693,-5.6547,-5.956,-6.2072,-6.3221,-6.2627,-6.6039,-6.8135,-6.756,-6.9477,-7.033,-6.9241,-6.9241,-6.8537,-6.7294,-6.727,-6.7294,-6.7106,-6.7828,-6.7777,-6.6955,-6.8412,-6.8194,-6.6429,-6.7116,-6.685,-6.6056,-6.5778,-6.543,-6.5073,-6.4512,-6.4442,-6.4676,-6.4395,-6.4458,-6.4698,-6.392,-6.3426,-6.2835,-6.3086,-6.2524,-6.1261,-5.8926,-5.7541,-5.6404,-5.371,-5.2277,-5.139,-5.0969,-5.0093,-4.9452,-4.9849,-4.9641,-4.9053,-4.8672,-4.8863,-4.9053,-4.8654,-4.8863,-4.9243,-4.9849,-4.9831,-4.9831,-4.9849,-5.0039,-5.0039,-5.0039,-5.0039,-5.0039,-5.0039,-5.0039,-5.0039,-5.0039,-5.0039,-4.8941,-4.6538,-4.4771,-4.2545,-3.9939,-3.8603,-3.7682,-3.6939,-3.7141,-3.7063,-3.6598,-3.5576,-3.4882,-3.4887,-3.3807,-3.3005,-3.2488,-3.2563,-3.2483,-3.2949,-3.2255,-3.1989,-3.6453,-3.7288,-3.8368,-4.3064,-4.2899,-4.3342,-4.8905,-5.0028,-5.0338,-5.1988,-5.1724,-5.1549,-5.2397,-5.3183,-5.3454,-5.2662,-5.3948,-5.5515,-5.6847,-5.8248,-5.9165,-5.9047,-6.2934,-6.5776,-6.6647,-6.8837,-6.9868,-6.9589,-6.9241,-6.8867,-6.8068,-6.7714,-6.7691,-6.7691,-6.8299,-6.8318,-6.7771,-6.9367,-6.9125,-6.7433,-6.818,-6.7771,-6.6452,-6.6011,-6.5499,-6.526,-6.4419,-6.4559,-6.5237,-6.4395,-6.4481,-6.4942,-6.413,-6.2778,-6.1221,-6.1108,-6.0249,-5.9035,-5.6537,-5.5383,-5.4712,-5.2277,-5.1523,-5.1371,-5.0836,-4.9999,-4.9243,-4.9831,-4.9452,-4.8863,-4.8672,-4.9053,-4.9053,-4.8863,-4.9053,-4.9641,-4.9849,-5.0039,-5.0039,-5.0039,-5.0039,-5.0039,-5.0039,-5.0039,-5.0039,-5.0039,-5.0039,-5.0039,-5.0039,-5.0039,-4.8826,-4.586,-4.3721,-4.1273,-3.8471,-3.7644,-3.6622,-3.5612,-3.5925,-3.5954,-3.5584,-3.4515,-3.3935,-3.3849,-3.2945,-3.216,-3.1668,-3.17,-3.1844,-2.0457,-2.1997,-2.5551,-2.9234,-2.9986,-3.2498,0.0,-4.1462,-4.0358,-4.6122,-4.7913,-4.8789,-4.9506,-4.9466,-5.0046,-5.1912,-5.1906,-5.1673,-5.1783,-5.3452,-5.4268,-5.2964,-5.3244,-5.4531,-5.6517,-5.9897,-6.3274,-6.6138,-6.7675,-6.8837,-6.9767,-6.9169,-6.8656,-6.8468,-6.7903,-6.7714,-6.788,-6.7714,-6.8159,-6.9263,-6.9765,-6.9765,-6.9263,-6.9765,-6.9247,-6.7833,-6.6919,-6.652,-6.6195,-6.4302,-6.4489,-6.5821,-6.4021,-6.3633,-6.3924,-6.3331,-6.2035,-6.0355,-5.9249,-5.7769,-5.6121,-5.4509,-5.3549,-5.2623,-5.1256,-5.1296,-5.1661,-5.0361,-4.9508,-4.9243,-4.9831,-4.9243,-4.8482,-4.9053,-4.9243,-4.9243,-4.9262,-4.9641,-5.0039,-5.0039,-5.0039,-5.0039,-5.0039,-5.0039,-5.0039,-5.0039,-5.0039,-5.0039,-5.0039,-5.0039,-5.0039,-5.0039,-4.9831,-4.8045,-4.4485,-4.1889,-3.9452,-3.6748,-3.6451,-3.6124,-3.5499,-3.547,-3.5442,-3.5371,-3.3849,-3.2976,-3.2768,-3.2357,-3.1767,-3.1047,-3.1502,-3.1756,0.0,0.0,0.0,0.0,0.0,0.0,0.0,-2.7118,-2.8554,-3.4732,-3.5297,-3.6179,-4.1637,-4.1608,-4.2098,-4.5677,-4.7543,-4.8702,-4.9473,-4.9896,-4.9073,-4.5717,-4.8944,-5.0808,-4.9301,-5.467,-5.8775,-5.993,-6.305,-6.5876,-6.8656,-6.7388,-6.7455,-6.9054,-6.8092,-6.8092,-6.8843,-6.8468,-6.8563,-6.9176,-7.0198,-7.0174,-6.92,-7.0221,-7.0031,-6.8843,-6.8629,-6.8558,-6.8439,-6.6837,-6.5876,-6.5452,-6.5051,-6.2444,-5.8817,-5.8553,-5.7706,-5.6745,-5.5559,-5.5084,-5.4572,-5.3227,-5.2697,-5.2241,-5.1083,-5.0673,-5.0615,-5.0271,-4.9364,-4.8863,-4.9641,-4.9243,-4.8482,-4.9053,-4.9452,-4.9641,-4.9262,-4.9641,-5.0039,-5.0039,-5.0039,-5.0039,-5.0039,-5.0039,-5.0039,-5.0039,-5.0039,-5.0039,-5.0039,-5.0039,-5.0039,-5.0039,-4.8426,-4.7033,-4.6246,-4.2398,-3.8952,-3.672,-3.6039,-3.547,-3.4844,-3.4816,-3.4574,-3.4062,-3.3337,-3.2882,-3.2768,-3.2256,-3.1886,-3.1644,-3.1275,-3.1549,0.0,0.0,0.0,0.0,0.0,0.0,0.0,0.0,0.0,0.0,0.0,-3.1784,-3.5535,0.0,-3.9435,-4.1721,-4.5876,-4.8212,-4.6677,-4.8553,-4.8502,-4.4407,-4.5215,-4.6544,-4.7042,-5.071,-5.5029,-5.9325,-6.1629,-6.4073,-6.7139,-6.7281,-6.7479,-6.8059,-6.7997,-6.8468,-6.9241,-6.8656,-6.8656,-6.9241,-6.9978,-7.0117,-6.9637,-7.0165,-7.0117,-6.9589,-6.8297,-6.8059,-6.8172,-6.6005,-6.4138,-6.2537,-6.0868,-5.8136,-5.5142,-5.4145,-5.2907,-5.1556,-5.0801,-5.0536,-5.0378,-4.9622,-4.9224,-4.9224,-4.8654,-4.8566,-4.8607,-4.8232,-4.7748,-4.7434,-4.7824,-4.7935,-4.7874,-4.842,-4.9321,-4.9831,-4.9641,-4.9831,-5.0039,-5.0039,-5.0039,-5.0039,-5.0039,-4.915,-4.853,-4.9317,-4.9374,-4.9545,-4.9982,-5.0039,-4.8776,-4.5325,-4.3999,-4.27,-4.0496,-3.7833,-3.6393,-3.6437,-3.5627,-3.4688,-3.3735,-3.3888,-3.3768,-3.3121,-3.2805,-3.2677,-3.253,-3.2344,-3.2185,-3.2036,-3.1396,-3.1419,0.0,0.0,0.0,0.0,0.0,0.0,0.0,0.0,0.0,0.0,0.0,0.0,0.0,0.0,0.0,-3.8342,-4.4105,-4.7286,-4.4411,-4.7366,-4.829,-4.4274,-4.2577,-4.2921,-4.559,-4.738,-5.1004,-5.7532,-5.8971,-6.0875,-6.3989,-6.5483,-6.6395,-6.6188,-6.7222,-6.8066,-6.8434,-6.8466,-6.8561,-6.8744,-6.9541,0.0,-6.9613,-6.9421,-6.951,-6.9229,-6.6837,-6.6112,-6.6586,-6.3692,-6.1516,-5.9681,-5.6157,-5.4332,-5.3269,-5.1202,-4.918,-4.7315,-4.6757,-4.6576,-4.6576,-4.6196,-4.6015,-4.6015,-4.6015,-4.6396,0.0,-4.6215,-4.6015,-4.6015,-4.6034,-4.6531,-4.7213,-4.7747,-4.8643,-4.9545,-4.9545,-4.9545,-4.9526,-4.9358,-4.9339,-4.9339,-4.9339,-4.7838,-4.6794,-4.6725,-4.7575,-4.8172,-4.7583,-4.8252,-4.6714,-4.144,-4.0225,-3.8478,-3.4987,-3.3259,-3.3369,-3.5826,-3.4172,-3.2656,-3.171,-3.1855,-3.1787,-3.1443,-3.1429,-3.1708,-3.2443,-3.2453,-3.2438,-3.2413,-2.9714,-2.8971,0.0,0.0,0.0,0.0,0.0,0.0,0.0,0.0,0.0,0.0,0.0,0.0,0.0,0.0,0.0,0.0,-3.9147,-4.3552,-4.4327,-4.4165,-4.3245,-4.1345,-4.1428,-4.1771,-4.1933,-4.3665,-4.5871,-4.8135,-5.0216,-5.2932,-5.6979,-5.8448,0.0,0.0,0.0,-6.5891,-6.5883,-6.8125,-6.8182,-6.6705,-6.8972,-6.9427,-6.8632,-6.7684,-6.7441,-6.7346,-6.4792,-6.3767,-6.3603,-6.0967,-5.9837,-5.9165,-5.4876,-5.4057,-5.5073,-5.157,-4.8806,-4.6757,-4.5834,0.0,0.0,-4.6034,-4.6015,-4.6015,-4.6015,-4.6015,-4.6215,-4.6034,-4.5653,-4.5471,-4.6015,-4.6089,-4.6344,-4.6906,-4.7324,-4.7761,-4.7761,-4.7761,-4.7561,-4.7218,-4.7237,-4.7237,-4.7237,-4.6688,-4.4689,-4.016,-4.3346,-4.4601,-3.9745,-4.2277,-4.4246,-4.3511,-4.1278,0.0,-3.8155,-3.3482,-3.162,-3.3765,-3.0354,-2.7957,-2.7135,-2.6962,-2.7096,-2.7841,-2.7655,-2.9238,-3.294,-3.3014,-3.3014,-3.2763,-2.2352,-1.9828,0.0,0.0,0.0,0.0,0.0,0.0,0.0,0.0,0.0,0.0,0.0,0.0,0.0,0.0,0.0,0.0,-3.4695,-3.8974,-3.7066,-3.8314,-3.9129,-3.8257,-3.9232,-3.9996,-4.0138,-4.1641,-4.3924,-4.7565,-4.8207,-4.9774,-5.3049,-5.5662,-5.7489,-5.8381,-6.1238,-6.3073,-6.3726,-6.4427,-6.4923,-6.491,-6.592,-6.611,-6.5523,-6.5098,-6.458,-6.392,-6.1768,-6.1115,-6.134,-5.85,-5.7593,-5.7578,0.0,0.0,0.0,0.0,-4.6323,-4.4459,-4.3754,-4.3754,-4.4283,-4.4283,-4.4459,-4.4616,-4.4616,-4.481,-4.4986,-4.4459,-4.4283,-4.4265,-4.393,-4.4452,-4.4977,-4.5156,-4.6222,-4.7117,-4.7117,-4.7297,-4.7278,-4.6937,-4.6775,0.0,-4.5504,-4.4986,-4.4221,-4.3007,-4.4422,-4.4707,-4.252,-4.3206,-4.2288,-3.804,-3.6028,-3.462,-3.3128,-3.0184,0.0,0.0,0.0,-2.9873,-2.9612,-2.9117,0.0,0.0,0.0,-2.6062,-2.7363,-2.4838,0.0,0.0,-1.9648,-2.0387,0.0,0.0,0.0,0.0,0.0,0.0,0.0,0.0,0.0,0.0,0.0,0.0,0.0,0.0,0.0,0.0,-3.0318,-3.4523,-2.9764,-3.2585,-3.4648,-3.3685,-3.6247,-3.7738,-3.7241,-3.8995,-4.1771,-4.5379,-4.5414,-4.6025,-4.8091,-5.2156,-5.4211,-5.3694,-5.7942,-6.0471,-6.0726,-6.1263,-6.1605,-6.2094,-6.2874,-6.2817,-6.2269,-6.2013,-6.1478,-6.0711,-5.8592,-5.8019,-5.8404,-5.5531,-5.4963,-5.5649,-5.0411,-4.8553,-4.8532,-4.6412,-4.4762,-4.3432,-4.2589,-4.2779,-4.3125,-4.3125,-4.3279,-4.3622,-4.3622,-4.3794,-4.3984,-4.3297,-4.3279,-4.3432,-4.2761,-4.3369,-4.4155,-4.4155,-4.5301,-4.6261,-4.6261,-4.6616,-4.6597,-4.6261,-4.6102,-4.571,-4.4513,-4.3451,-4.2689,-4.2699,-4.2756,-4.2494,-4.1419,-4.1588,-3.9554,-3.4253,-3.2963,-3.1873,-3.0182,-2.8281,-2.8799,-3.2845,-3.1162,-3.043,-3.1289,-2.99,-2.9012,-2.884,-2.5828,-2.3986,0.0,0.0,0.0,0.0,0.0,0.0,0.0,0.0,0.0,0.0,0.0,0.0,0.0,0.0,0.0,0.0,0.0,0.0,0.0,0.0,0.0,0.0,0.0,0.0,-2.4434,-2.7322,-2.9258,-2.6696,-3.2288,-3.5071,-3.1635,-3.5049,-3.7792,-3.8324,-3.9418,-4.0291,-4.0817,-4.5825,-4.8949,-4.942,-5.5069,-5.7778,-5.6805,-5.969,-5.9852,-5.7613,-5.9898,-6.053,-5.9613,-5.8707,-5.8277,-5.8118,-5.5652,-5.4636,-5.4406,-5.1514,-5.161,-5.3408,-5.104,-5.0026,-4.97,-4.6747,-4.5252,-4.4573,-4.3451,-4.3125,-4.3451,-4.3451,-4.3432,-4.3622,-4.3622,-4.3622,-4.3622,-4.3432,-4.3622,-4.3622,-4.3451,-4.3984,-4.4364,-4.4364,-4.4705,-4.4876,-4.4876,-4.5065,-4.4895,-4.4382,-4.4401,-4.4382,-4.4326,-4.238,-3.9129,-3.4158,-3.6037,0.0,-3.0754,-3.3577,-3.5864,-3.5788,-3.4898,-3.429,-3.3496,-2.9776,-2.8619,-3.1787,-2.7557,-2.6412,-2.9818,-2.67,-2.484,-2.4491,-2.4152,-2.352,-2.2764,0.0,0.0,0.0,0.0,0.0,0.0,0.0,0.0,0.0,0.0,0.0,0.0,0.0,0.0,0.0,0.0,0.0,0.0,0.0,0.0,0.0,0.0,0.0,0.0,-2.4194,-2.7462,-2.3849,-2.8993,-3.0794,-2.5615,-3.0236,-3.3745,-3.3745,-3.6764,-3.8964,-3.9619,-4.237,-4.4097,-4.4261,-4.7813,-4.9978,-5.063,-5.1717,-5.2543,-5.3102,-5.4849,-5.5322,-5.4731,-5.5397,-5.536,-5.4546,-5.3714,-5.3424,-5.3379,-5.2383,-5.1457,-5.0245,-4.531,-4.4685,-4.6289,-4.3444,-4.1984,-4.1488,-4.1506,-4.134,-4.1174,-4.1524,-4.1837,-4.2003,-4.2003,-4.2003,-4.2003,-4.1672,-4.1837,-4.2132,-4.2329,-4.2644,-4.3147,-4.3665,-4.4137,-4.4478,-4.4478,-4.4649,-4.4819,-4.4308,-4.0867,-3.7691,-3.6993,-4.038,-4.0631,-3.3143,-3.6418,-3.8557,-3.5262,-3.5294,-3.5638,-3.5,-3.4685,-3.4315,-3.4099,-3.2156,-3.136,-3.233,-2.9741,-2.8678,-2.9804,-2.833,-2.7465,-2.7452,-2.7011,-2.362,-1.7495,0.0,0.0,0.0,0.0,0.0,0.0,0.0,0.0,0.0,0.0,0.0,0.0,0.0,0.0,0.0,0.0,0.0,0.0,0.0,0.0,0.0,0.0,0.0,0.0,0.0,0.0,-2.2253,-2.6104,0.0,-2.283,-2.5728,-2.8065,-2.8487,-3.1058,-3.3567,-3.5577,-3.8387,-4.0307,-4.1242,-4.4431,-4.6349,-4.6813,-4.7428,-4.8362,-4.9782,-5.1195,-5.1683,-5.1415,-5.2215,-5.1968,-5.0879,-5.1237,-5.108,-5.0564,-5.1215,-4.9324,-4.5518,-4.0848,-3.9396,-3.9862,-3.9014,-3.843,-3.8413,-4.0576,-4.1049,-4.0452,-3.9694,-3.8,-3.6539,-3.7467,-3.6274,-3.5132,-3.7002,-3.7583,-3.8258,-4.0375,-4.1119,-4.141,-4.1745,-4.2203,-4.2386,-4.2386,-4.1159,-4.0704,-4.2419,-3.889,-3.486,-3.2907,-3.5577,-3.6138,-3.1142,-3.3332,-3.5692,-3.6045,-3.5562,-3.4731,-3.4247,-3.4315,-3.4266,-3.407,-3.3271,-3.2545,-3.2359,-3.0843,-2.9895,-2.9667,-2.9111,-2.8193,-2.6609,-2.5765,-2.1845,0.0,0.0,0.0,0.0,0.0,0.0,0.0,0.0,0.0,0.0,0.0,0.0,0.0,0.0,0.0,0.0,0.0,0.0,0.0,0.0,0.0,0.0,0.0,0.0,0.0,0.0,0.0,-2.1291,-2.3233,0.0,0.0,0.0,0.0,-2.2691,-2.2624,-2.4409,-2.8817,-3.3428,-3.7065,-3.9562,-4.4286,-4.6066,-4.484,-4.6428,-4.7216,-4.7368,-4.9058,-4.9898,-4.9898,-4.9642,-4.8713,-4.7275,-4.8409,-4.8083,-4.6637,-4.7653,-4.4612,-3.9244,-3.7321,-3.4134,-3.1034,-3.3604,-3.4479,-3.5139,-4.0061,-4.1569,-4.0597,-3.7501,-3.2467,-2.7995,-3.0024,-2.7149,0.0,0.0,-3.1306,-3.2399,-3.7566,-3.8941,-3.9015,-3.8994,-3.8879,-3.8879,-3.8879,-3.5184,-3.3361,-3.8401,-3.7873,-3.5219,-3.1266,0.0,-2.6365,-2.756,-2.6722,-2.7814,-3.2611,-3.3397,-3.3678,-3.3678,-3.407,-3.4252,-3.365,-3.3067,-3.233,-3.1901,-3.0606,-2.9667,-2.9027,-2.8687,-2.6568,-2.2113,-2.0677,0.0,0.0,0.0,0.0,0.0,0.0,0.0,0.0,0.0,0.0,0.0,0.0,0.0,0.0,0.0,0.0,0.0,0.0,0.0,0.0,0.0,0.0,0.0,0.0,0.0,0.0,-1.5052,-1.668,-1.5865,-1.6973,-1.5952,0.0,0.0,0.0,0.0,0.0,0.0,-2.4325,-2.5254,-2.7639,-3.1853,-3.2887,-3.5104,-3.8979,-4.0388,-4.2175,-4.4206,-4.6488,-4.8069,-4.931,-5.0202,-5.0518,-5.0047,-5.0369,-4.9598,-4.7631,-3.9913,-3.5586,-3.3345,-2.7901,-2.5495,-2.5203,-2.5915,-2.5837,-2.6151,-3.0712,-3.1904,-3.1186,-2.9391,-2.8482,-2.7257,-2.3524,0.0,0.0,0.0,0.0,-2.4746,-3.0823,-3.2697,-3.4117,-3.8718,-3.9827,-3.9827,-3.9827,-3.8792,-3.6376,-3.1465,-2.762,-2.3299,-1.7536,-2.0577,0.0,-1.6042,-2.2193,-2.7767,-2.8084,-3.1328,-3.3678,-3.3678,-3.407,-3.4064,-3.3038,-3.2821,-3.2123,-3.0657,-2.971,-2.9013,-2.8387,-2.5067,-2.2313,-2.0578,0.0,0.0,0.0,0.0,0.0,0.0,0.0,0.0,0.0,0.0,0.0,0.0,0.0,0.0,0.0,0.0,0.0,0.0,0.0,0.0,0.0,0.0,0.0,0.0,0.0,0.0,0.0,-1.3587,-1.5415,-1.5621,-1.4103,-1.201,0.0,0.0,0.0,0.0,0.0,0.0,0.0,0.0,0.0,-2.5225,-2.6041,-2.7818,-3.0664,-3.4247,-3.6684,-3.8008,-4.2636,-4.5218,-4.5945,-4.6639,-4.686,-4.6695,-4.6596,-4.4556,-4.0804,-3.5137,-2.9664,-2.4648,0.0,0.0,0.0,0.0,-1.9761,-1.9835,-2.4957,-2.5863,-2.46,-2.3751,0.0,0.0,0.0,0.0,0.0,0.0,0.0,-2.0621,-2.8806,-3.0872,-3.1793,-3.57,-3.668,-3.6792,-3.729,-3.3862,-2.9205,-2.4608,-2.0966,-1.7005,-1.1765,-1.3856,0.0,0.0,0.0,-2.4191,-2.5658,-3.0612,-3.374,-3.365,-3.4252,-3.4056,-3.2602,-3.2315,-3.1571,-2.9785,-2.8985,-2.7546,-2.5236,-2.243,-1.8807,0.0,0.0,0.0,0.0,0.0,0.0,0.0,0.0,0.0,0.0,0.0,0.0,0.0,0.0,0.0,0.0,0.0,0.0,0.0,0.0,0.0,0.0,0.0,0.0,0.0,0.0,0.0,0.0,0.0,-1.5998,-1.6923,0.0,0.0,0.0,0.0,0.0,0.0,0.0,0.0,0.0,0.0,0.0,0.0,0.0,-2.2326,-2.1992,-2.782,-3.0709,-3.0585,-3.7135,-4.0185,-4.0055,-3.9641,-3.9697,-3.9967,-3.8777,0.0,-3.133,-3.0577,0.0,0.0,0.0,0.0,0.0,0.0,0.0,0.0,0.0,0.0,0.0,0.0,0.0,0.0,0.0,0.0,0.0,0.0,0.0,0.0,0.0,0.0,-2.9587,-3.0212,-3.0908,-3.1449,-3.172,-2.5205,-1.8977,-1.8045,-1.6281,-1.3785,0.0,0.0,0.0,0.0,0.0,0.0,-2.3845,-2.991,-3.3709,-3.3545,-3.4191,-3.3651,-3.1829,-3.152,-3.0624,-2.8715,-2.8262,-2.5858,-2.1305,-2.0417,0.0,0.0,0.0,0.0,0.0,0.0,0.0,0.0,0.0,0.0,0.0,0.0,0.0,0.0,0.0,0.0,0.0,0.0,0.0,0.0,0.0,0.0,0.0,0.0,0.0,0.0,0.0,0.0,0.0,0.0,0.0,0.0,0.0,0.0,0.0,0.0,0.0,0.0,0.0,0.0,0.0,0.0,0.0,0.0,0.0,0.0,0.0,0.0,0.0,0.0,-2.6987,-2.874,-2.974,-2.9399,-3.1092,-3.4107,-2.7373,-2.6472,-2.9084,-2.0479,0.0,0.0,0.0,0.0,0.0,0.0,0.0,0.0,0.0,0.0,0.0,0.0,0.0,0.0,0.0,0.0,0.0,0.0,0.0,0.0,0.0,0.0,-2.0214,-2.0738,-2.3863,-2.5547,-2.1264,0.0,0.0,0.0,0.0,0.0,0.0,0.0,0.0,0.0,0.0,0.0,-1.9118,-2.5974,-3.1238,-3.2906,-3.1752,-3.07,-3.0279,-2.971,-2.8673,-2.6952,-2.6646,-2.4718,0.0,0.0,0.0,0.0,0.0,0.0,0.0,0.0,0.0,0.0,0.0,0.0,0.0,0.0,0.0,0.0,0.0,0.0,0.0,0.0,0.0,0.0,0.0,0.0,0.0,0.0,0.0,0.0,0.0,0.0,0.0,0.0,0.0,0.0,0.0,0.0,0.0,0.0,0.0,0.0,0.0,0.0,0.0,0.0,0.0,0.0,0.0,0.0,0.0,0.0,0.0,0.0,0.0,0.0,0.0,0.0,0.0,0.0,-2.199,-1.7799,0.0,0.0,0.0,0.0,0.0,0.0,0.0,0.0,0.0,0.0,0.0,0.0,0.0,0.0,0.0,0.0,0.0,0.0,0.0,0.0,0.0,0.0,0.0,0.0,0.0,0.0,0.0,0.0,0.0,0.0,0.0,0.0,0.0,0.0,0.0,0.0,0.0,0.0,0.0,0.0,-1.6874,-2.4655,-3.0496,-3.1275,-3.05,-2.9375,-2.8557,-2.7782,-2.6096,-2.3092,-2.2778,0.0,0.0,0.0,0.0,0.0,0.0,0.0,0.0,0.0,0.0,0.0,0.0,0.0,0.0,0.0,0.0,0.0,0.0,0.0,0.0,0.0,0.0,0.0,0.0,0.0,0.0,0.0,0.0,0.0,0.0,0.0,0.0,0.0,0.0,0.0,0.0,0.0,0.0,0.0,0.0,0.0,0.0,0.0,0.0,0.0,0.0,0.0,0.0,0.0,0.0,0.0,0.0,0.0,0.0,0.0,0.0,0.0,0.0,0.0,-1.7088,-1.0777,0.0,0.0,0.0,0.0,0.0,0.0,0.0,0.0,0.0,0.0,0.0,0.0,0.0,0.0,0.0,0.0,0.0,0.0,0.0,0.0,0.0,0.0,0.0,0.0,0.0,0.0,0.0,0.0,0.0,0.0,0.0,0.0,0.0,0.0,0.0,0.0,0.0,0.0,0.0,0.0,-1.5918,-2.3919,-2.9503,-2.9497,-2.8995,-2.8021,-2.6762,-2.5953,-2.3905,-1.9939,-1.918,0.0,0.0,0.0,0.0,0.0,0.0,0.0,0.0,0.0,0.0,0.0,0.0,0.0,0.0,0.0,0.0,0.0,0.0,0.0,0.0,0.0,0.0,0.0,0.0,0.0,0.0,0.0,0.0,0.0,0.0,0.0,0.0,0.0,0.0,0.0,0.0,0.0,0.0,0.0,0.0,0.0,0.0,0.0,0.0,0.0,0.0,0.0,0.0,0.0,0.0,0.0,0.0,0.0,0.0,0.0,0.0,0.0,0.0,0.0,0.0,0.0,0.0,0.0,0.0,0.0,0.0,0.0,0.0,0.0,0.0,0.0,0.0,0.0,0.0,0.0,0.0,0.0,0.0,0.0,0.0,0.0,0.0,0.0,0.0,0.0,0.0,0.0,0.0,0.0,0.0,0.0,0.0,0.0,0.0,0.0,0.0,0.0,0.0,0.0,0.0,0.0,-1.6158,-2.2328,-2.7082,-2.8269,-2.6632,-2.5579,-2.557,-2.4956,-2.3186,-1.9889,0.0,0.0,0.0,0.0,0.0,0.0,0.0,0.0,0.0,0.0,0.0,0.0,0.0,0.0,0.0,0.0,0.0,0.0,0.0,0.0,0.0,0.0,0.0,0.0,0.0,0.0,0.0,0.0,0.0,0.0,0.0,0.0,0.0,0.0,0.0,0.0,0.0,0.0,0.0,0.0,0.0,0.0,0.0,0.0,0.0,0.0,0.0,0.0,0.0,0.0,0.0,0.0,0.0,0.0,0.0,0.0,0.0,0.0,0.0,0.0,0.0,0.0,0.0,0.0,0.0,0.0,0.0,0.0,0.0,0.0,0.0,0.0,0.0,0.0,0.0,0.0,0.0,0.0,0.0,0.0,0.0,0.0,0.0,0.0,0.0,0.0,0.0,0.0,0.0,0.0,0.0,0.0,0.0,0.0,0.0,0.0,0.0,0.0,0.0,0.0,0.0,0.0,-1.4965,-2.0912,-2.5396,-2.5861,-2.4612,-2.3852,-2.4085,-2.3011,-2.0383,-1.602,0.0,0.0,0.0,0.0,0.0,0.0,0.0,0.0,0.0,0.0,0.0,0.0,0.0,0.0,0.0,0.0,0.0,0.0,0.0,0.0,0.0,0.0,0.0,0.0,0.0,0.0,0.0,0.0,0.0,0.0,0.0,0.0,0.0,0.0,0.0,0.0,0.0,0.0,0.0,0.0,0.0,0.0,0.0,0.0,0.0,0.0,0.0,0.0,0.0,0.0,0.0,0.0,0.0,0.0,0.0,0.0,0.0,0.0,0.0,0.0,0.0,0.0,0.0,0.0,0.0,0.0,0.0,0.0,0.0,0.0,0.0,0.0,0.0,0.0,0.0,0.0,0.0,0.0,0.0,0.0,0.0,0.0,0.0,0.0,0.0,0.0,0.0,0.0,0.0,0.0,0.0,0.0,0.0,0.0,0.0,0.0,0.0,0.0,0.0,0.0,0.0,0.0,-1.4885,-2.0325,-2.4126,-2.3832,-2.3131,-2.2555,-2.2555,-2.1649,-1.8657,-1.2977,0.0,0.0,0.0,0.0,0.0,0.0,0.0,0.0,0.0,0.0,0.0,0.0,0.0,0.0,0.0,0.0,0.0,0.0,0.0,0.0,0.0,0.0,0.0,0.0,0.0,0.0,0.0,0.0,0.0,0.0,0.0,0.0,0.0,0.0,0.0,0.0,0.0,0.0,0.0,0.0,0.0,0.0,0.0,0.0,0.0,0.0,0.0,0.0,0.0,0.0,0.0,0.0,0.0,0.0,0.0,0.0,0.0,0.0,0.0,0.0,0.0,0.0,0.0,0.0,0.0,0.0,0.0,0.0,0.0,0.0,0.0,0.0,0.0,0.0,0.0,0.0,0.0,0.0,0.0,0.0,0.0,0.0,0.0,0.0,0.0,0.0,0.0,0.0,0.0,0.0,0.0,0.0,0.0,0.0,0.0,0.0,0.0,0.0,0.0,0.0,0.0,0.0,-1.6557,-2.0712,-2.3041,-2.223,-2.223,-2.1817,-2.1149,-2.1416,-1.8602,0.0,0.0,0.0,0.0,0.0,0.0,0.0,0.0,0.0,0.0,0.0,0.0,0.0,0.0,0.0,0.0,0.0,0.0,0.0,0.0,0.0,0.0,0.0,0.0,0.0,0.0,0.0,0.0,0.0,0.0,0.0,0.0,0.0,0.0,0.0,0.0,0.0,0.0,0.0,0.0,0.0,0.0,0.0,0.0,0.0,0.0,0.0,0.0,0.0,0.0,0.0,0.0,0.0,0.0,0.0,0.0,0.0,0.0,0.0,0.0,0.0,0.0,0.0,0.0,0.0,0.0,0.0,0.0,0.0,0.0,0.0,0.0,0.0,0.0,0.0,0.0,0.0,0.0,0.0,0.0,0.0,0.0,0.0,0.0,0.0,0.0,0.0,0.0,0.0,0.0,0.0,0.0,0.0,0.0,0.0,0.0,0.0,0.0,0.0,0.0,0.0,0.0,0.0,-1.5681,-1.8011,-2.0014,-2.1557,-2.1538,-2.1404,-2.1404,-2.0934,-1.8267,-1.2804,0.0,0.0,0.0,0.0,0.0,0.0,0.0,0.0,0.0,0.0,0.0,0.0,0.0,0.0,0.0,0.0,0.0,0.0,0.0,0.0,0.0,0.0,0.0,0.0,0.0,0.0,0.0,0.0,0.0,0.0,0.0,0.0,0.0,0.0,0.0,0.0,0.0,0.0,0.0,0.0,0.0,0.0,0.0,0.0,0.0,0.0,0.0,0.0,0.0,0.0,0.0,0.0,0.0,0.0,0.0,0.0,0.0,0.0,0.0,0.0,0.0,0.0,0.0,0.0,0.0,0.0,0.0,0.0,0.0,0.0,0.0,0.0,0.0,0.0,0.0,0.0,0.0,0.0,0.0,0.0,0.0,0.0,0.0,0.0,0.0,0.0,0.0,0.0,0.0,0.0,0.0,0.0,0.0,0.0,0.0,0.0,0.0,0.0,0.0,0.0,0.0,0.0,0.0,-1.6268,-1.9271,-2.1078,-2.105,-2.092,-2.118,-2.0746,-1.8251,-1.3428,0.0,0.0,0.0,0.0,0.0,0.0,0.0,0.0,0.0,0.0,0.0,0.0,0.0,0.0,0.0,0.0,0.0,0.0,0.0,0.0,0.0,0.0,0.0,0.0,0.0,0.0,0.0,0.0,0.0,0.0,0.0,0.0,0.0,0.0,0.0,0.0,0.0,0.0,0.0,0.0,0.0,0.0,0.0,0.0,0.0,0.0,0.0,0.0,0.0,0.0,0.0,0.0,0.0,0.0,0.0,0.0,0.0,0.0,0.0,0.0,0.0,0.0,0.0,0.0,0.0,0.0,0.0,0.0,0.0,0.0,0.0,0.0,0.0,0.0,0.0,0.0,0.0,0.0,0.0,0.0,0.0,0.0,0.0,0.0,0.0,0.0,0.0,0.0,0.0,0.0,0.0,0.0,0.0,0.0,0.0,0.0,0.0,0.0,0.0,0.0,0.0,0.0,0.0,-1.5088,-2.0225,-2.0516,-2.0652,-2.0652,-2.0652,-2.0652,-1.8509,-1.3604,-1.0599,0.0,0.0,0.0,0.0,0.0,0.0,0.0,0.0,0.0,0.0,0.0,0.0,0.0,0.0,0.0,0.0,0.0,0.0,0.0,0.0,0.0,0.0,0.0,0.0,0.0,0.0,0.0,0.0,0.0,0.0,0.0,0.0,0.0,0.0,0.0,0.0,0.0,0.0,0.0,0.0,0.0,0.0,0.0,0.0,0.0,0.0,0.0,0.0,0.0,0.0,0.0,0.0,0.0,0.0,0.0,0.0,0.0,0.0,0.0,0.0,0.0,0.0,0.0,0.0,0.0,0.0,0.0,0.0,0.0,0.0,0.0,0.0,0.0,0.0,0.0,0.0,0.0,0.0,0.0,0.0,0.0,0.0,0.0,0.0,0.0,0.0,0.0,0.0,0.0,0.0,0.0,0.0,0.0,0.0,0.0,0.0,0.0,0.0,0.0,0.0,0.0,0.0,-1.3908,-1.6032,-2.02,-2.0652,-2.0652,-2.0652,-2.0652,-1.8281,-1.3042,-1.1042,0.0,0.0,0.0,0.0,0.0,0.0,0.0,0.0,0.0,0.0,0.0,0.0,0.0,0.0,0.0,0.0,0.0,0.0,0.0,0.0,0.0,0.0,0.0,0.0,0.0,0.0,0.0,0.0,0.0,0.0,0.0,0.0,0.0,0.0,0.0,0.0,0.0,0.0,0.0,0.0,0.0,0.0,0.0,0.0,0.0,0.0,0.0,0.0,0.0,0.0,0.0,0.0,0.0,0.0,0.0,0.0,0.0,0.0,0.0,0.0,0.0,0.0,0.0,0.0,0.0,0.0,0.0,0.0,0.0,0.0,0.0,0.0,0.0,0.0,0.0,0.0,0.0,0.0,0.0,0.0,0.0,0.0,0.0,0.0,0.0,0.0,0.0,0.0,0.0,0.0,0.0,0.0,0.0,0.0,0.0,0.0,0.0,0.0,0.0,0.0,0.0,0.0,-1.132,-1.3528,-1.9911,-2.0652,-2.0652,-2.0652,-2.0406,-1.8354,-1.3675,-1.1491,0.0,0.0,0.0,0.0,0.0,0.0,0.0,0.0,0.0,0.0,0.0,0.0,0.0,0.0,0.0,0.0,0.0,0.0,0.0,0.0,0.0,0.0,0.0,0.0,0.0,0.0,0.0,0.0,0.0,0.0,0.0,0.0,0.0,0.0,0.0,0.0,0.0,0.0,0.0,0.0,0.0,0.0,0.0,0.0,0.0,0.0,0.0,0.0,0.0,0.0,0.0,0.0,0.0,0.0,0.0,0.0,0.0,0.0,0.0,0.0,0.0,0.0,0.0,0.0,0.0,0.0,0.0,0.0,0.0,0.0,0.0,0.0,0.0,0.0,0.0,0.0,0.0,0.0,0.0,0.0,0.0,0.0,0.0,0.0,0.0,0.0,0.0,0.0,0.0,0.0,0.0,0.0,0.0,0.0,0.0,0.0,0.0,0.0,0.0,0.0,0.0,0.0,0.0,-1.2013,-1.8448,-1.993,-2.0529,-2.0652,-2.0283,-1.8342,-1.4276,0.0,0.0,0.0,0.0,0.0,0.0,0.0,0.0,0.0,0.0,0.0,0.0,0.0,0.0,0.0,0.0,0.0,0.0,0.0,0.0,0.0,0.0,0.0,0.0,0.0,0.0,0.0,0.0,0.0,0.0,0.0,0.0,0.0,0.0,0.0,0.0,0.0,0.0,0.0,0.0,0.0,0.0,0.0,0.0,0.0,0.0,0.0,0.0,0.0,0.0,0.0,0.0,0.0,0.0,0.0,0.0,0.0,0.0,0.0,0.0,0.0,0.0,0.0,0.0,0.0,0.0,0.0,0.0,0.0,0.0,0.0,0.0,0.0,0.0,0.0,0.0,0.0,0.0,0.0,0.0,0.0,0.0,0.0,0.0,0.0,0.0,0.0,0.0,0.0,0.0,0.0,0.0,0.0,0.0,0.0,0.0,0.0,0.0,0.0,0.0,0.0,0.0,0.0,0.0,-1.0981,-1.2429,-1.7048,-2.0283,-2.0529,-2.0283,-1.7539,-1.1702,0.0,0.0,0.0,0.0,0.0,0.0,0.0,0.0,0.0,0.0,0.0,0.0,0.0,0.0]}],[{"header":{"parameterUnit":"kt","parameterCategory":2,"dx":1,"dy":1,"la1":29.285339999999998,"la2":30.599998999999997,"lo1":-89.70041500000002,"lo2":-87.6738589999976,"nx":112,"ny":82,"refTime":"2022-09-23T18:00:00:Z","depth":0,"parameterNumber":2,"parameterNumberName":"V-component_of_WINDS"},"data":[-3.4269,-3.1837,-2.9293,-2.765,-2.5989,-2.322,-1.7131,-1.6914,-1.7588,-1.6261,-1.566,-1.5979,-1.7888,-1.4831,-1.2202,-1.2789,-1.0584,-0.8422,0.0,-0.787,-0.8362,0.0,0.0,0.0,0.0,0.0,0.0,0.0,0.0,0.0,0.0,-4.3618,-4.3261,-4.2955,-4.1576,-4.019,-3.8753,-3.6664,-3.5667,-3.5645,-3.4876,-3.4823,-3.5377,-3.6486,-3.571,-3.3631,-3.4836,-3.4623,-3.3435,-3.4451,-3.4603,-3.4406,-3.5272,-3.5504,-3.5259,-3.4949,-3.5081,-3.5449,-3.6193,-3.6949,-3.7598,-3.7373,-3.7274,-3.7266,-3.7014,-3.6908,-3.7081,-3.7767,-3.7499,-3.7278,-3.8738,-3.9748,-4.0585,-4.1397,-4.2882,-4.3964,-4.3964,-4.4172,-4.4276,-4.4406,-4.4638,-4.4973,-4.5075,-4.4909,-4.5418,-4.7334,-4.712,-4.6799,-4.7092,-4.69,-4.6814,-4.7381,-4.7109,-4.6828,-4.6735,-4.5701,-4.4982,-4.4866,-4.4624,-4.4229,-4.3855,-4.3226,-4.2532,-4.1609,-4.1235,-4.1033,-4.1004,-4.107,-4.0762,-3.9979,-3.9926,-3.9555,-2.7463,-2.5392,-2.4174,-2.3644,-2.1231,-1.8147,-1.4963,-1.5294,-1.5906,-1.4672,-1.5358,-1.5824,-1.4556,-1.327,-1.21,-1.1279,-1.0246,-0.9107,0.0,-0.8506,-0.948,-1.0464,0.0,0.0,0.0,0.0,0.0,0.0,-3.4842,0.0,-4.4908,-4.5005,-4.5183,-4.5905,-4.4474,-4.3034,-4.1521,-3.934,-3.7782,-3.7111,-3.6355,-3.6286,-3.6899,-3.7805,-3.7289,-3.5875,-3.691,-3.6555,-3.5211,-3.6113,-3.576,-3.4777,-3.5518,-3.5255,-3.4493,-3.576,-3.6244,-3.6439,-3.7446,-3.8459,-3.9182,-3.8956,-3.8832,-3.8932,-3.8782,-3.8778,-3.8778,-3.8858,-3.8962,-3.9266,-4.0047,-4.1367,-4.2699,-4.3523,-4.4846,-4.597,-4.597,-4.6049,-4.6258,-4.6258,-4.652,-4.6755,-4.6755,-4.6512,-4.6921,-4.8652,-4.8249,-4.7962,-4.8376,-4.8467,-4.8606,-4.8702,-4.8404,-4.8246,-4.8463,-4.7577,-4.6832,-4.6449,-4.6071,-4.5628,-4.521,-4.459,-4.3939,-4.3255,-4.2611,-4.2798,-4.3679,-4.2589,-4.2029,-4.2015,-4.2423,-4.2158,-2.065,-2.0049,-2.2397,-2.5813,-1.9725,-1.3086,-1.3851,-1.492,-1.5456,-1.4448,-1.5105,-1.545,-1.412,-1.2961,-1.1967,-1.1107,-1.0947,0.0,0.0,-0.8894,-1.0712,-1.355,-1.898,0.0,0.0,-2.4565,-2.5582,0.0,-3.2258,-3.3609,-4.4342,-4.5534,-4.588,-4.593,-4.593,-4.5905,-4.5765,-4.3691,-4.1473,-3.9363,-3.7178,-3.62,-3.6222,-3.62,-3.7357,-3.9363,-3.934,-3.9317,-3.9409,-4.063,-3.9094,-3.6222,-3.7984,-3.6643,-3.4145,-3.8147,-3.9755,-4.0133,-4.0793,-4.1176,-4.1428,-4.1428,-4.1622,-4.1839,-4.2271,-4.2378,-4.2378,-4.2674,-4.2968,-4.3644,-4.5888,-4.6812,-4.75,-4.9767,-5.0305,-5.0333,-5.0333,-5.0333,-5.0333,-5.0333,-5.0333,-5.0305,-5.0278,-4.935,-4.8612,-4.8612,-4.8612,-4.9022,-5.0169,-5.0451,-5.0487,-5.0487,-4.9667,-4.9111,-4.9111,-4.8425,-4.7578,-4.6826,-4.5723,-4.5069,-4.5069,-4.4894,-4.4953,-4.5444,-4.4401,-4.521,-4.7846,-4.3893,-4.3032,-4.5219,-4.6002,-4.5868,-2.318,-2.1776,-2.2672,-2.2947,-1.8809,-1.4614,-1.4435,-1.4817,-1.5115,-1.4925,-1.4529,0.0,0.0,0.0,-1.2016,-1.2626,0.0,-1.4961,-1.1028,-1.6558,-2.169,-2.3518,-2.5194,-2.8398,-3.4028,-3.2895,-3.4538,-4.1135,-3.6489,-3.6652,-4.4445,-4.4613,-4.5133,-4.6503,-4.6529,-4.5784,-4.4146,-4.3601,-4.2945,-4.2318,-4.1781,-4.1795,-4.237,-4.1544,-4.1015,-4.063,-3.964,-3.9317,-3.934,-3.964,-3.9184,-3.839,-3.8685,-3.8345,-3.7826,-3.898,-3.9253,-3.9298,-4.0399,-4.0793,-4.1021,-4.1818,-4.2157,-4.2237,-4.2035,-4.1898,-4.2031,-4.2353,-4.2567,-4.2749,-4.3609,-4.5125,-4.6573,-4.7474,-4.8859,-5.012,-5.0333,-5.0333,-5.0333,-5.0333,-5.0333,-5.006,-4.9186,-4.9486,-4.9841,-4.9841,-4.9841,-4.995,-5.0305,-5.0347,-5.0363,-5.0363,-5.0849,-5.1126,-5.1126,-5.0955,-5.0767,-5.0355,-4.9683,-4.9478,-4.9824,-4.9824,-4.9709,-4.9679,-4.8063,-4.7646,-4.842,-4.591,-4.5538,-4.6908,-4.7716,-4.7943,-2.416,-2.1122,-1.9924,-1.9274,-1.7892,-1.6315,-1.4984,-1.55,-1.6015,-1.5125,0.0,0.0,0.0,0.0,0.0,0.0,-1.6671,-1.8105,-1.5001,-2.1312,-2.733,-3.0087,-3.3534,-3.6177,-3.763,-3.6344,-3.7744,-4.3274,-3.8362,-3.7944,-4.4402,-4.4713,-4.5375,-4.6861,-4.7194,-4.6777,-4.5451,-4.5426,-4.4727,-4.3591,-4.3591,-4.3772,-4.4335,-4.3634,-4.3358,-4.3493,-4.2751,-4.2462,-4.2462,-4.2373,-4.1747,-4.1029,-4.1753,-4.2033,-4.2009,-4.2009,-4.1919,-4.1785,-4.2608,-4.2798,-4.2938,-4.3541,-4.3771,-4.3878,-4.3914,-4.3937,-4.4157,-4.4511,-4.4755,-4.4863,-4.5055,-4.6084,-4.7254,-4.7604,-4.8645,-4.9692,-5.012,-5.0227,-5.0227,-5.0333,-5.0333,-5.0237,-4.9908,-5.0473,-5.095,-5.095,-5.095,-5.1147,-5.1551,-5.1987,-5.2291,-5.2291,-5.2892,-5.3189,-5.3189,-5.2912,-5.249,-5.1899,-5.1509,-5.1194,-5.1246,-5.1303,-5.1389,-5.1272,-5.0265,-5.0231,-5.1114,-4.8748,-4.7935,-4.8615,-4.9171,-4.9515,-2.3585,-1.9402,-1.6702,-1.6166,-1.7011,-1.7548,-1.5678,0.0,-1.8265,-1.6861,0.0,-1.5375,-1.6404,0.0,0.0,-1.5474,-1.9544,-2.2111,-2.0676,-2.5534,-3.074,-3.499,-4.1886,-4.4775,-4.0668,-3.7455,-3.8117,-4.4105,-3.9605,-3.8856,-4.4343,-4.5496,-4.6246,-4.7025,-4.7561,-4.7833,-4.7918,-4.8037,-4.6659,-4.4017,-4.413,-4.4195,-4.4072,-4.3836,-4.4895,-4.687,-4.663,-4.6655,-4.687,-4.6554,-4.5357,-4.3811,-4.5784,-4.63,-4.6045,-4.6045,-4.5814,-4.5608,-4.5814,-4.593,-4.5814,-4.5608,-4.5699,-4.6045,-4.6643,-4.6958,-4.7246,-4.7608,-4.7943,-4.8054,-4.8165,-4.8386,-4.8606,-4.9016,-4.9125,-4.9342,-5.0093,-5.0305,-5.0411,-5.0622,-5.0727,-5.0991,-5.1714,-5.1892,-5.1797,-5.1827,-5.1827,-5.2205,-5.3241,-5.4134,-5.4706,-5.4706,-5.48,-5.4894,-5.4894,-5.4163,-5.3405,-5.2573,-5.2357,-5.1862,-5.1016,-5.14,-5.1753,-5.2014,-5.1596,-5.2394,-5.4273,-5.1128,-4.9838,-5.0366,-5.0568,-5.0809,-2.0031,-2.0086,-2.0605,-1.8356,-1.6443,-1.57,0.0,0.0,0.0,-2.7848,-2.8028,-2.7791,-2.8851,-2.8897,-2.8855,-2.9078,-3.3745,-3.5632,-3.0835,-3.5917,-4.061,-4.2042,-4.3624,-4.4403,-4.4116,-4.3497,-4.3525,-4.4825,-4.3936,-4.4023,-4.5739,-4.5974,-4.6323,-4.6931,-4.6973,-4.7123,-4.7057,-4.7731,-4.7784,-4.7123,-4.7735,-4.7773,-4.7069,-4.5308,-4.5385,-4.6706,-4.4983,-4.5221,-4.687,-4.6757,-4.6516,-4.6226,-4.6567,-4.6757,-4.6643,-4.6643,-4.6529,-4.621,-4.593,-4.593,-4.593,-4.5814,-4.5814,-4.593,-4.6439,-4.6554,-4.6643,-4.6984,-4.7159,-4.747,-4.7831,-4.7969,-4.8275,-4.9611,-4.9932,-5.0329,-5.1812,-5.2291,-5.2464,-5.2564,-5.2693,-5.2806,-5.2842,-5.2813,-5.2715,-5.2547,-5.2448,-5.2534,-5.2793,-5.2992,-5.3091,-5.3091,-5.3874,-5.4421,-5.4421,-5.5108,-5.5358,-5.4995,-5.5182,-5.476,-5.3577,-5.4961,-5.5897,-5.6222,-5.3256,-5.1994,-5.2438,-4.8968,-4.9087,-5.2614,-5.2695,-5.2695,-1.8459,-1.8369,-1.8089,-1.6919,-1.6828,0.0,0.0,-1.9772,-2.341,-2.7094,-2.786,-2.8846,-3.1871,-3.1601,-3.1263,-3.2429,-3.6003,-3.9636,-4.2531,-4.646,-4.9126,-4.9411,-4.8846,-4.8671,-4.8934,-4.7912,-4.7267,-4.7267,-4.663,-4.6246,-4.663,-4.6239,-4.6386,-4.7019,-4.7402,-4.7535,-4.7363,-4.7775,-4.7922,-4.7772,-4.8149,-4.8253,-4.8006,-4.6831,-4.6829,-4.7643,-4.617,-4.6113,-4.7078,-4.687,-4.7043,-4.738,-4.7211,-4.7103,-4.6936,-4.6845,-4.6668,-4.6439,-4.6414,-4.6389,-4.6275,-4.593,-4.6045,-4.6185,-4.5955,-4.607,-4.606,-4.5509,-4.6388,-4.7316,-4.6664,-4.7169,-4.8028,-4.899,-4.8963,-4.8885,-4.959,-5.0721,-5.1558,-5.1467,-5.3174,-5.473,-5.451,-5.451,-5.451,-5.4348,-5.4348,-5.4348,-5.4348,-5.4348,-5.4348,-5.4348,-5.4825,-5.5108,-5.5108,-5.5665,-5.588,-5.5757,-5.5819,-5.5699,-5.5152,-5.5448,-5.5713,-5.5975,-5.3736,-5.2575,-5.2575,-5.018,-4.9909,-5.1539,-5.3358,-5.3668,-1.7334,-1.6239,-1.4802,-1.5697,-1.7152,0.0,-1.9082,-2.1459,-2.4527,-2.809,-2.9393,-3.1192,-3.5456,-3.4854,-3.4307,-3.6146,-3.8243,-4.2666,-5.1368,-5.3235,-5.3805,-5.3896,-5.2989,-5.2423,-5.253,-5.0917,-4.979,-4.979,-4.8656,-4.7994,-4.797,-4.7386,-4.7179,-4.7584,-4.8144,-4.8167,-4.7806,-4.794,-4.794,-4.7609,-4.7737,-4.7898,-4.796,-4.8111,-4.8243,-4.8399,-4.776,-4.7511,-4.7557,-4.7161,-4.7359,-4.7975,-4.7589,-4.7388,-4.6996,-4.6952,-4.673,-4.6439,-4.6554,-4.6643,-4.6529,-4.593,-4.5955,-4.621,-4.5724,-4.5814,-4.596,-4.4971,-4.6194,-4.7657,-4.6529,-4.7079,-4.8086,-4.8772,-4.8443,-4.8071,-4.811,-4.9672,-5.0673,-5.0036,-5.2987,-5.5572,-5.5665,-5.5787,-5.5787,-5.5787,-5.5787,-5.5787,-5.5787,-5.5787,-5.5787,-5.5787,-5.5787,-5.5787,-5.5787,-5.5787,-5.5787,-5.5787,-5.5665,-5.5544,-5.5486,-5.4849,-5.4449,-5.4437,-5.4005,-5.3575,-5.3048,-5.2386,-5.1417,-5.0385,-5.3159,-5.3567,-1.5128,-1.5385,-1.5888,-1.8613,-1.6582,0.0,-3.1228,-3.2736,-3.422,-4.4899,-4.7338,-4.7937,-4.9284,-5.0205,-5.0744,-5.0604,-5.1853,-5.2337,-5.1495,-5.0492,-5.0188,-5.0739,-5.0737,-5.0854,-5.1475,-5.1185,-5.1136,-5.1136,-5.098,-5.0847,-5.0931,-5.0763,-5.0166,-4.9015,-4.9018,-4.8466,-4.7144,-4.7865,-4.8236,-4.8121,-4.8738,-4.863,-4.8001,-4.8395,-4.8153,-4.7622,-4.7801,-4.8002,-4.7978,-4.7856,-4.7853,-4.7694,-4.7926,-4.7564,-4.7094,-4.6971,-4.6802,-4.6325,-4.5839,-4.5839,-4.593,-4.5583,-4.5608,-4.5608,-4.5814,-4.6453,-4.7082,-4.7178,-4.8202,-4.9235,-4.9208,-4.9181,-4.9584,-5.1138,-5.1062,-5.1166,-5.2578,-5.3397,-5.3174,-5.0866,-5.2477,-5.4311,-5.4569,-5.4789,-5.4979,-5.4979,-5.5103,-5.5291,-5.5291,-5.5291,-5.5291,-5.5291,-5.5291,-5.5291,-5.5291,-5.5291,-5.5291,-5.5291,-5.5321,-5.4752,-5.3734,-5.488,-5.4941,-5.3968,-5.5062,-5.4602,-5.2447,-5.3324,-5.3199,-5.2163,-5.2025,-5.1773,-1.5564,-1.5991,-1.6508,-1.7415,0.0,0.0,-2.8227,-3.2237,-3.6777,-4.4461,-4.6947,-4.8746,-5.1791,-5.221,-5.2295,-5.2735,-5.4219,-5.4945,-5.3951,-5.3353,-5.3136,-5.3349,-5.34,-5.3453,-5.3812,-5.3863,-5.3863,-5.3863,-5.3863,-5.3425,-5.2593,-5.103,-4.9839,-4.9202,-4.9202,-4.9339,-4.9453,-4.9088,-4.8835,-4.9111,-4.8558,-4.819,-4.8186,-4.8346,-4.8361,-4.8403,-4.818,-4.8201,-4.8426,-4.8609,-4.8583,-4.8535,-4.9345,-4.9489,-4.9268,-4.9836,-5.0036,-4.9778,-4.8822,-4.859,-4.8574,-4.7987,-4.7754,-4.7754,-4.7642,-4.7976,-4.8307,-4.8417,-4.8107,-4.7766,-4.8455,-4.9311,-5.0066,-5.0805,-5.0567,-5.0165,-5.0433,-5.1607,-5.245,-5.1794,-5.2831,-5.3826,-5.3699,-5.4214,-5.4628,-5.4628,-5.4914,-5.5227,-5.5227,-5.5227,-5.5227,-5.5227,-5.5227,-5.5227,-5.5227,-5.5227,-5.5227,-5.5227,-5.5227,-5.4958,-5.4267,-5.4213,-5.3884,-5.3434,-5.3725,-5.3519,-5.2667,-5.4398,-5.5232,-5.5226,-5.5513,-5.494,-1.6339,0.0,0.0,0.0,0.0,0.0,-2.9711,-3.4472,-3.9437,-4.4488,-4.6847,-4.9047,-5.2575,-5.2562,-5.2429,-5.3671,-5.5072,-5.5819,-5.5819,-5.5819,-5.5819,-5.5819,-5.5819,-5.5694,-5.5694,-5.5568,-5.5568,-5.5568,-5.5694,-5.5164,-5.4094,-5.2224,-5.0896,-5.0111,-4.9975,-5.0134,-5.0429,-4.95,-4.895,-4.9088,-4.8141,-4.7767,-4.7908,-4.8047,-4.8304,-4.8766,-4.8407,-4.8781,-4.9539,-4.9039,-4.895,-4.9018,-4.9989,-5.0158,-5.0201,-5.1304,-5.1663,-5.1484,-5.1111,-5.0909,-5.0838,-4.9841,-4.9552,-4.9608,-4.9152,-4.918,-4.9504,-4.9504,-4.8752,-4.8186,-4.8864,-4.9859,-5.086,-5.0992,-5.0384,-4.9794,-4.9317,-5.0535,-5.1868,-5.2433,-5.2908,-5.3107,-5.2836,-5.3433,-5.3952,-5.3923,-5.4503,-5.4914,-5.5009,-5.5039,-5.5039,-5.5039,-5.5291,-5.5448,-5.5355,-5.5697,-5.5881,-5.5819,-5.5819,-5.5789,-5.5574,-5.473,-5.4365,-5.4454,-5.4174,-5.4103,-5.43,-5.6258,-5.7322,-5.7508,-5.8137,-5.7463,0.0,0.0,0.0,-2.9938,-2.8288,-2.7264,-4.2232,-4.4079,-4.4247,-5.0259,-5.206,-5.2949,-5.4046,-5.4165,-5.4658,-5.6146,-5.6537,-5.6564,-5.6564,-5.6564,-5.6564,-5.6564,-5.6193,-5.5944,-5.5944,-5.5694,-5.5568,-5.5568,-5.5819,-5.5819,-5.5568,-5.6042,-5.5112,-5.2331,-5.22,-5.092,-4.8326,-4.821,-4.8047,-4.7745,-4.7605,-4.7464,-4.7019,-4.7464,-4.7605,-4.7745,-4.8374,-4.974,-5.1284,-4.9113,-4.8187,-4.8326,-4.8904,-4.8818,-4.8478,-4.9889,-5.004,-4.9803,-5.0915,-5.1417,-5.1471,-5.0318,-5.0154,-5.0169,-4.9309,-4.9745,-5.065,-5.065,-5.1277,-5.1896,-5.1998,-5.2027,-5.2055,-5.2389,-5.1896,-5.1532,-5.1896,-5.2055,-5.2157,-5.2389,-5.2259,-5.2027,-5.1635,-5.2275,-5.2908,-5.2722,-5.3473,-5.4117,-5.4466,-5.4466,-5.4466,-5.4466,-5.5511,-5.6003,-5.576,-5.7017,-5.7688,-5.7285,-5.7429,-5.7484,-5.7429,-5.7453,-5.7508,-5.7766,-5.7734,-5.7788,-5.7788,-5.9242,-5.9435,-5.8472,-5.8337,-5.7829,-1.6608,-1.5946,-1.6516,-2.2007,-2.999,-3.7888,-4.3209,-4.7083,-5.0228,-5.2815,-5.3579,-5.4099,-5.5147,-5.5606,-5.5985,-5.651,-5.6564,-5.6564,-5.6564,-5.6564,-5.6564,-5.6564,-5.6193,-5.5944,-5.5944,-5.5694,-5.5694,-5.5819,-5.5819,-5.5819,-5.6193,-5.5112,-5.4299,-5.3761,-5.3503,-5.3399,-5.3837,-5.1828,-5.092,-5.0786,-5.0297,-4.9204,-4.7509,-5.0887,-5.1545,-5.0254,-5.0231,-5.1638,-5.4097,-5.3245,-5.2667,-5.2593,-5.3418,-5.3377,-5.3198,-5.466,-5.5041,-5.4832,-5.4589,-5.4555,-5.4456,-5.3465,-5.3282,-5.3175,-5.2189,-5.2261,-5.244,-5.184,-5.185,-5.2055,-5.2055,-5.2055,-5.2055,-5.2185,-5.2055,-5.1924,-5.2287,-5.2185,-5.2055,-5.1896,-5.1924,-5.1924,-5.1532,-5.2578,-5.3404,-5.3375,-5.451,-5.5295,-5.4789,-5.5014,-5.5108,-5.4436,-5.4789,-5.5202,-5.579,-5.6215,-5.6783,-5.7285,-5.7373,-5.7342,-5.711,-5.7223,-5.7366,-5.7453,-5.7967,-5.867,-5.9435,-5.9977,-5.9977,-5.9548,-5.9306,-5.8981,-1.6622,-1.8628,-2.2158,-2.8163,-3.6559,-4.3972,-4.6318,-5.0231,-5.3499,-5.4179,-5.4536,-5.5067,-5.5811,-5.644,-5.681,-5.6933,-5.6933,-5.6933,-5.6933,-5.6933,-5.6933,-5.6933,-5.644,-5.6193,-5.644,-5.5944,-5.5819,-5.6193,-5.6068,-5.6068,-5.6564,-5.5489,-5.4959,-5.5212,-5.468,-5.4933,-5.6042,-5.3786,-5.2793,-5.2929,-5.1655,-5.0766,-5.0324,-5.2396,-5.3225,-5.2702,-5.3321,-5.4586,-5.6308,-5.5459,-5.4892,-5.4573,-5.5306,-5.5426,-5.5285,-5.658,-5.7001,-5.692,-5.6879,-5.6751,-5.6441,-5.5551,-5.5278,-5.5142,-5.4253,-5.3999,-5.3747,-5.2833,-5.26,-5.2516,-5.2168,-5.2055,-5.2055,-5.2055,-5.2055,-5.2185,-5.2389,-5.2287,-5.2055,-5.1896,-5.1924,-5.1924,-5.1429,-5.2376,-5.3007,-5.2879,-5.4222,-5.5108,-5.4919,-5.5358,-5.5606,-5.5388,-5.5667,-5.6095,-5.6663,-5.7074,-5.7453,-5.7977,-5.8062,-5.8062,-5.7806,-5.7999,-5.8137,-5.8221,-5.8835,-5.9435,-6.0055,-6.0055,-5.9977,-5.9739,-5.958,-5.9419,-1.7097,-2.3389,-3.3264,-4.7129,-4.7378,-4.5798,-5.1602,-5.3659,-5.4324,-5.4324,-5.5174,-5.5944,-5.6068,-5.6687,-5.73,-5.7543,-5.7543,-5.7543,-5.7543,-5.7543,-5.7543,-5.7543,-5.6933,-5.6687,-5.7055,-5.6193,-5.5944,-5.6564,-5.6564,-5.6564,-5.6564,-5.7178,-5.7178,-5.6564,-5.5837,-5.5311,-5.5112,-5.4069,-5.3802,-5.401,-5.1675,-5.1848,-5.4464,-5.2349,-5.2798,-5.5231,-5.7458,-5.8363,-5.812,-5.6026,-5.4933,-5.4455,-5.5209,-5.5071,-5.4859,-5.6033,-5.6307,-5.636,-5.7582,-5.773,-5.7499,-5.6586,-5.6229,-5.6098,-5.5198,-5.4922,-5.4672,-5.3803,-5.3547,-5.3295,-5.2459,-5.2252,-5.2224,-5.2168,-5.2168,-5.2242,-5.2417,-5.2344,-5.2344,-5.249,-5.236,-5.2027,-5.1429,-5.1794,-5.2157,-5.1822,-5.2793,-5.3982,-5.5044,-5.5418,-5.6034,-5.6986,-5.7797,-5.8253,-5.8284,-5.9306,-5.9772,-5.9176,-5.9419,-5.958,-5.9338,-5.958,-5.9819,-6.0009,-6.0133,-6.0055,-5.966,-5.966,-5.958,-5.9338,-5.9176,-5.9176,-2.0144,-3.3903,-4.8871,-5.262,-5.2546,-5.1967,-5.3579,-5.4547,-5.5271,-5.5519,-5.5731,-5.6193,-5.6687,-5.7178,-5.7421,-5.7543,-5.7543,-5.7543,-5.7543,-5.7543,-5.7543,-5.7543,-5.7178,-5.7055,-5.7178,-5.6687,-5.6564,-5.6933,-5.6687,-5.6687,-5.6933,-5.6933,-5.6687,-5.6564,-5.6414,-5.629,-5.6166,-5.5917,-5.5269,-5.4376,-5.4415,-5.3208,-5.1154,-5.6049,-5.8655,-5.9432,-6.0856,-6.1493,-6.1388,-6.0377,-5.9832,-5.9333,-5.8744,-5.8293,-5.8095,-5.7965,-5.7878,-5.7905,-5.8265,-5.8265,-5.8237,-5.764,-5.753,-5.7309,-5.6125,-5.5767,-5.5634,-5.47,-5.4477,-5.4393,-5.4225,-5.4113,-5.3999,-5.3318,-5.3093,-5.2974,-5.2383,-5.3173,-5.3925,-5.3815,-5.3709,-5.3582,-5.3455,-5.3962,-5.4828,-5.5881,-5.6992,-5.7588,-5.7242,-5.7959,-5.8015,-5.6306,-5.6663,-5.7311,-5.7914,-5.842,-5.8949,-5.95,-5.958,-5.966,-5.958,-5.966,-5.966,-5.9739,-5.9819,-5.966,-5.9419,-5.958,-5.958,-5.9338,-5.9225,-5.9225,-2.4584,-3.7631,-5.1753,-5.4557,-5.4817,-5.4351,-5.4882,-5.5368,-5.5819,-5.6193,-5.6317,-5.6687,-5.7178,-5.7421,-5.7543,-5.7543,-5.7543,-5.7543,-5.7543,-5.7884,-5.8088,-5.8088,-5.8176,-5.8032,-5.7895,-5.7699,-5.7653,-5.7895,-5.7826,-5.7994,-5.8347,-5.8221,-5.7967,-5.784,-5.7994,-5.7726,-5.7092,-5.7217,-5.6824,-5.5667,-5.5383,-5.47,-5.3925,-5.748,-5.9031,-5.8884,-6.0916,-6.1932,-6.221,-6.2189,-6.1953,-6.1448,-6.0901,-6.0446,-5.9973,-5.9415,-5.9188,-5.8956,-5.8817,-5.865,-5.8531,-5.8265,-5.8237,-5.798,-5.7199,-5.7006,-5.6758,-5.5662,-5.5417,-5.5306,-5.495,-5.4811,-5.4644,-5.4197,-5.403,-5.3971,-5.3379,-5.4489,-5.5452,-5.5287,-5.5544,-5.5872,-5.5872,-5.5685,-5.5792,-5.667,-5.7272,-5.753,-5.7591,-5.8374,-5.8622,-5.786,-5.7967,-5.8337,-5.8867,-5.903,-5.9225,-5.95,-5.9739,-5.9739,-5.9419,-5.958,-5.966,-5.95,-5.958,-5.9707,-5.9754,-5.9911,-5.999,-6.0035,-6.0035,-5.9957,-3.1054,-3.9072,-4.8403,-5.4922,-5.5485,-5.4696,-5.5731,-5.5944,-5.6068,-5.644,-5.6933,-5.73,-5.7543,-5.7543,-5.7624,-5.7639,-5.7652,-5.7652,-5.7857,-5.8399,-5.8743,-5.8933,-5.9307,-5.9417,-5.8913,-5.9126,-5.9182,-5.8886,-5.936,-5.966,-5.9923,-6.0054,-5.9923,-5.9422,-5.9791,-5.9337,-5.7935,-5.8321,-5.7987,-5.7176,-5.5574,-5.6058,-5.8362,-5.7547,-5.698,-5.6632,-5.9442,-6.1124,-6.1745,-6.2215,-6.2167,-6.1638,-6.1638,-6.1307,-6.0738,-6.0187,-5.9814,-5.9347,-5.8929,-5.8713,-5.8531,-5.8531,-5.8531,-5.8412,-5.809,-5.797,-5.775,-5.6758,-5.6366,-5.6235,-5.5361,-5.5198,-5.5142,-5.5004,-5.5312,-5.5647,-5.573,-5.6443,-5.7055,-5.7239,-5.7754,-5.8184,-5.8213,-5.7226,-5.6549,-5.6826,-5.65,-5.6609,-5.7606,-5.819,-5.8949,-5.9819,-5.9898,-6.0009,-6.0133,-6.0088,-5.9819,-5.9338,-5.9739,-5.9772,-5.9176,-5.9419,-5.95,-5.9338,-5.95,-5.9786,-6.0191,-6.0345,-6.0541,-6.0809,-6.1032,-6.0917,-4.3096,-4.7594,-5.018,-5.7011,-5.7012,-5.5456,-5.5667,-5.5819,-5.6068,-5.644,-5.7055,-5.7421,-5.7543,-5.7543,-5.7748,-5.8355,-5.7952,-5.8007,-5.9426,-5.9048,-5.894,-5.9781,-5.9947,-6.0,-5.9785,-5.9816,-5.9869,-5.9785,-5.9947,-5.9791,-5.9528,-5.9923,-5.9845,-5.9236,-5.9448,-5.9342,-5.8786,-5.8918,-5.8441,-5.7249,-5.6992,-5.6006,-5.4477,-5.736,-5.8548,-5.8363,-5.9655,-6.0508,-6.1188,-6.1248,-6.1221,-6.108,-6.0736,-6.0088,-5.9482,-5.9039,-5.8569,-5.8218,-5.8145,-5.8448,-5.8831,-5.8531,-5.8531,-5.8531,-5.8412,-5.8237,-5.7915,-5.7695,-5.764,-5.7493,-5.7209,-5.7034,-5.6907,-5.6153,-5.7693,-5.9542,-6.0522,-6.0114,-5.9806,-6.0746,-6.0311,-5.9785,-5.9617,-5.9337,-5.9746,-6.1244,-6.1669,-6.1439,-6.0457,-6.1167,-6.0912,-5.859,-5.8899,-5.9338,-5.9387,-5.966,-5.966,-5.958,-5.966,-5.966,-5.958,-5.9419,-5.9306,-5.9338,-5.9257,-5.9095,-5.8981,-5.9642,-5.9957,-5.9944,-6.1024,-6.1503,-4.0634,-4.7054,-5.2303,-5.5169,-5.5728,-5.5568,-5.5819,-5.6068,-5.6725,-5.8307,-5.8074,-5.7543,-5.7543,-5.7543,-5.7803,-5.8626,-5.8355,-5.8599,-5.9943,-5.9976,-6.0217,-6.0647,-6.1153,-6.1151,-6.078,-6.1153,-6.1151,-6.0754,-6.118,-6.1254,-6.1117,-6.1254,-6.128,-6.0896,-6.1007,-6.0716,-5.9999,-5.9999,-5.9526,-5.8441,-5.8363,-5.7653,-5.6684,-5.831,-5.9156,-5.9378,-5.9682,-6.043,-6.1364,-6.0977,-6.0982,-6.1442,-6.0866,-6.0527,-6.0137,-5.9553,-5.9178,-5.8796,-5.8551,-5.8595,-5.8622,-5.8531,-5.8531,-5.8531,-5.8265,-5.8237,-5.8237,-5.797,-5.809,-5.8265,-5.8025,-5.8265,-5.8456,-5.7988,-5.8879,-6.0085,-6.105,-6.1139,-6.1271,-6.1807,-6.2091,-6.2138,-6.1801,-6.1699,-6.1873,-6.2158,-6.1778,-6.1301,-6.098,-6.1484,-6.1164,-5.9149,-5.9818,-6.0143,-5.9371,-5.9739,-5.9898,-5.966,-5.9851,-5.9739,-5.95,-5.966,-5.9898,-5.9977,-6.0178,-6.0454,-6.0725,-6.1098,-6.1391,-6.1608,-6.2243,-6.2381,-3.8616,-4.593,-5.3193,-5.4054,-5.4589,-5.5181,-5.6494,-5.6849,-5.7544,-5.9304,-5.8659,-5.7784,-5.7543,-5.7883,-5.8335,-5.8878,-5.894,-5.9324,-6.0512,-6.0993,-6.1364,-6.1493,-6.2117,-6.2328,-6.1626,-6.2117,-6.2302,-6.1599,-6.2143,-6.2557,-6.2557,-6.2557,-6.2557,-6.2557,-6.2557,-6.2109,-6.1212,-6.1074,-6.0579,-5.9794,-5.9445,-5.9313,-5.9448,-5.9473,-5.982,-6.0192,-5.9793,-6.0485,-6.169,-6.0841,-6.0923,-6.1551,-6.082,-6.0455,-6.0346,-5.9911,-5.9525,-5.9114,-5.8662,-5.8622,-5.8531,-5.8531,-5.8531,-5.8504,-5.8329,-5.8476,-5.8504,-5.821,-5.8357,-5.8531,-5.8531,-5.8887,-5.9447,-6.0085,-6.0315,-6.0543,-6.105,-6.1858,-6.2297,-6.2297,-6.3143,-6.3705,-6.3463,-6.3463,-6.3102,-6.2255,-6.1359,-6.0871,-6.103,-6.1319,-6.1204,-6.0262,-6.1079,-6.1179,-6.0139,-6.0534,-6.0598,-5.9984,-6.0145,-5.9983,-5.9338,-6.0642,-6.1472,-6.155,-6.1645,-6.2032,-6.2607,-6.248,-6.2585,-6.302,-6.3217,-6.3186,-4.8251,-5.0366,-5.128,-5.7501,-5.5766,-5.3783,-5.8152,-5.8741,-5.7998,-5.7041,-5.7933,-5.8476,-5.7664,-5.8934,-5.9939,-5.9965,-5.992,-6.0566,-6.2177,-6.1785,-6.1546,-6.2381,-6.2478,-6.2504,-6.254,-6.2478,-6.2504,-6.254,-6.2504,-6.2557,-6.2557,-6.2557,-6.2557,-6.2557,-6.2557,-6.2504,-6.2399,-6.2116,-6.1539,-6.0658,-6.041,-5.9858,-5.9129,-6.0402,-6.0879,-6.0742,-6.0299,-6.0657,-6.1588,-6.0629,-6.0586,-6.0804,-5.955,-5.8781,-5.8152,-5.8163,-5.7773,-5.7436,-5.757,-5.8053,-5.8531,-5.8531,-5.8622,-5.8949,-5.9302,-5.9067,-5.8831,-5.8804,-5.8831,-5.8831,-5.8531,-5.8531,-5.933,-6.1968,-6.3143,-6.3493,-6.322,-6.322,-6.322,-6.322,-6.3357,-6.3463,-6.3841,-6.3599,-6.3297,-6.3282,-6.3433,-6.3128,-6.1925,-6.2176,-6.2178,-6.1328,-6.1483,-6.1848,-6.244,-6.2496,-6.2073,-6.0998,-6.0934,-6.0441,-5.929,-6.2855,-6.4718,-6.4557,-6.3273,-6.2693,-6.2771,-6.2059,-6.1751,-6.1789,-6.2853,-6.3381,-3.7008,-4.2111,-4.6725,-4.7786,-5.1395,-5.494,-5.6033,-5.6711,-5.747,-5.8725,-5.8546,-5.7811,-5.587,-5.7593,-5.9087,-5.8207,-5.9581,-6.1177,-6.246,-6.2275,-6.2143,-6.2504,-6.2557,-6.2557,-6.2557,-6.2557,-6.2557,-6.2557,-6.2557,-6.2557,-6.2557,-6.2557,-6.2416,-6.2274,-6.2416,-6.2416,-6.2274,-6.2274,-6.2179,-6.1871,-6.1731,-6.1495,-6.1186,-6.1773,-6.1985,-6.1845,-6.1621,-6.1529,-6.1286,-6.0645,-6.0975,-6.1679,-6.0795,-6.0422,-6.0339,-5.9864,-5.9343,-5.9017,-5.8486,-5.8384,-5.8531,-5.8531,-5.8531,-5.8622,-5.8859,-5.8831,-5.9039,-5.9507,-5.9855,-6.0229,-6.0543,-6.0854,-6.1526,-6.2946,-6.3297,-6.3433,-6.3916,-6.3811,-6.3705,-6.3705,-6.3705,-6.3841,-6.3946,-6.3841,-6.3599,-6.3463,-6.3705,-6.3629,-6.2845,-6.2963,-6.2787,-6.2013,-6.2508,-6.2765,-6.2408,-6.2796,-6.2951,-6.2942,-6.291,-6.2651,-6.2166,-6.436,-6.5627,-6.5548,-6.5328,-6.5258,-6.5342,-6.5034,-6.4581,-6.3978,-6.4424,-6.4178,-3.1225,-3.6671,-4.249,-4.2027,-4.7011,-5.2227,-5.3367,-5.3899,-5.5251,-5.956,-5.92,-5.7343,-5.5119,-5.7272,-5.8828,-5.7431,-5.9628,-6.1832,-6.2425,-6.2557,-6.2557,-6.2557,-6.2557,-6.2557,-6.2557,-6.2557,-6.2557,-6.2557,-6.2557,-6.2557,-6.2557,-6.2557,-6.2416,-6.2132,-6.2416,-6.2416,-6.2132,-6.2274,-6.2416,-6.2557,-6.2416,-6.2416,-6.2557,-6.2557,-6.2557,-6.2557,-6.2557,-6.2196,-6.1626,-6.1316,-6.169,-6.2336,-6.1741,-6.1505,-6.165,-6.1197,-6.0891,-6.0477,-5.9596,-5.9179,-5.9003,-5.8762,-5.8769,-5.8769,-5.8769,-5.8949,-5.9185,-5.9855,-6.0229,-6.0685,-6.1444,-6.2544,-6.3509,-6.372,-6.372,-6.375,-6.4334,-6.4364,-6.4364,-6.4364,-6.426,-6.426,-6.423,-6.4156,-6.3946,-6.3675,-6.3811,-6.3841,-6.3463,-6.3357,-6.3177,-6.2757,-6.3342,-6.3661,-6.3203,-6.3576,-6.3995,-6.4278,-6.4451,-6.4988,-6.5986,-6.7037,-6.7434,-6.7243,-6.7342,-6.7411,-6.7493,-6.7161,-6.6594,-6.5926,-6.5926,-6.5381,-3.7046,-3.7708,-3.9315,-4.4231,-4.3754,-4.3898,-5.0773,-5.071,-5.1313,-5.8702,-5.9323,-5.7944,-5.6168,-5.8576,-6.0276,-5.8524,-6.0666,-6.2531,-6.2557,-6.2557,-6.2557,-6.2557,-6.2557,-6.2557,-6.2557,-6.2557,-6.2557,-6.2557,-6.2557,-6.2557,-6.2557,-6.2557,-6.2557,-6.2557,-6.2557,-6.2557,-6.2557,-6.2274,-6.2274,-6.2557,-6.2274,-6.2274,-6.2557,-6.2557,-6.2557,-6.2557,-6.2557,-6.2557,-6.2672,-6.2874,-6.2735,-6.2336,-6.1352,-6.0991,-6.112,-6.1478,-6.1405,-6.1139,-6.0505,-6.0213,-6.0114,-5.9223,-5.9185,-5.9447,-5.9447,-5.9419,-5.9419,-5.9419,-5.9535,-5.9651,-6.0572,-6.2761,-6.4747,-6.4747,-6.4921,-6.5023,-6.4849,-6.4921,-6.5124,-6.5124,-6.4921,-6.4819,-6.5023,-6.4644,-6.4334,-6.4364,-6.4156,-6.3841,-6.3463,-6.3357,-6.3463,-6.3946,-6.3946,-6.4303,-6.5365,-6.5465,-6.517,-6.4523,-6.5289,-6.7235,-7.0774,-7.1116,-7.1002,-7.053,-6.9214,-6.8598,-6.8598,-6.7437,-6.6836,-6.6836,-6.6836,-6.6803,-2.9637,-3.3559,-3.8449,-4.0863,-4.246,-4.5381,-5.3192,-5.3781,-5.3689,-5.7246,-5.6289,-5.4383,-5.3004,-5.7384,-6.0335,-5.796,-6.0403,-6.2557,-6.2557,-6.2557,-6.2557,-6.2557,-6.2557,-6.2557,-6.2557,-6.2557,-6.2557,-6.2557,-6.2557,-6.2557,-6.2557,-6.2557,-6.2416,-6.2274,-6.2416,-6.2416,-6.2274,-6.2274,-6.2416,-6.2557,-6.2416,-6.2416,-6.2557,-6.2557,-6.2557,-6.2557,-6.2557,-6.2557,-6.2557,-6.2672,-6.2601,-6.2508,-6.2357,-6.247,-6.2905,-6.364,-6.3876,-6.3835,-6.4138,-6.4302,-6.4214,-6.3925,-6.3926,-6.3867,-6.2906,-6.2614,-6.2553,-6.2204,-6.2158,-6.2572,-6.4577,-6.5181,-6.5357,-6.5707,-6.5319,-6.4819,-6.4747,-6.4819,-6.4819,-6.4819,-6.4849,-6.4716,-6.4849,-6.4747,-6.4541,-6.4334,-6.423,-6.4156,-6.3841,-6.3841,-6.3841,-6.3946,-6.4716,-6.5627,-6.6286,-6.6961,-6.7581,-6.7997,-6.8487,-6.9198,-7.0166,-7.0955,-7.1229,-7.1149,-7.0677,-7.052,-7.052,-7.008,-6.9457,-6.8449,-6.8449,-6.8015,-2.824,-3.2877,-3.805,-4.0137,-4.0889,-4.3367,-5.1795,-5.1581,-5.0325,-5.3022,-5.2561,-5.1801,-5.1866,-5.6751,-6.0014,-5.7606,-6.0127,-6.2414,-6.2566,-6.2927,-6.3207,-6.3207,-6.3598,-6.4175,-6.4634,-6.4532,-6.4561,-6.4885,-6.4505,-6.4123,-6.3319,-6.3319,-6.304,-6.2274,-6.2416,-6.2416,-6.2274,-6.2416,-6.2557,-6.2557,-6.2557,-6.2557,-6.2557,-6.2557,-6.2557,-6.2557,-6.2557,-6.2557,-6.2557,-6.2557,-6.2557,-6.2557,-6.2786,-6.304,-6.3463,-6.4198,-6.4453,-6.4679,-6.5432,-6.5728,-6.591,-6.6003,-6.6089,-6.5941,-6.5114,-6.4877,-6.4814,-6.443,-6.4412,-6.4941,-6.6987,-6.6918,-6.6535,-6.6754,-6.644,-6.6041,-6.6041,-6.6147,-6.6098,-6.568,-6.5588,-6.5434,-6.4911,-6.4849,-6.4819,-6.4541,-6.4438,-6.4334,-6.4156,-6.4051,-6.4051,-6.3977,-6.5485,-6.6844,-6.7757,-6.7658,-6.8076,-6.9265,-7.0532,-7.1201,-7.0916,-7.1305,-7.1659,-7.1878,-7.1579,-7.1388,-7.1342,-7.1342,-7.0914,-6.9975,-6.9898,-6.9424,-3.113,-3.4368,-3.7751,-4.1203,-3.974,-3.958,-4.7678,-4.5655,-4.3026,-4.6533,-4.8064,-4.9432,-5.1652,-5.5945,-5.8789,-5.7712,-5.9906,-6.2064,-6.2785,-6.3715,-6.4343,-6.4316,-6.5612,-6.6913,-6.7958,-6.7535,-6.76,-6.8306,-6.7479,-6.6303,-6.4452,-6.4452,-6.3821,-6.2698,-6.2557,-6.2557,-6.2557,-6.2557,-6.2557,-6.2557,-6.2557,-6.2557,-6.2557,-6.2557,-6.2557,-6.2557,-6.2557,-6.2557,-6.2557,-6.2557,-6.2557,-6.2557,-6.2778,-6.3059,-6.3287,-6.4036,-6.4505,-6.4861,-6.5367,-6.5839,-6.617,-6.6415,-6.6588,-6.6588,-6.6499,-6.6469,-6.644,-6.6351,-6.644,-6.682,-6.81,-6.8263,-6.7979,-6.7979,-6.8171,-6.8221,-6.8221,-6.8442,-6.8263,-6.7324,-6.7078,-6.6677,-6.5516,-6.53,-6.5229,-6.5023,-6.492,-6.4889,-6.4486,-6.4486,-6.4382,-6.4308,-6.608,-6.7998,-6.9804,-6.8108,-6.753,-6.9177,-7.1616,-7.2944,-7.2724,-7.2099,-7.2043,-7.2524,-7.1973,-7.1534,-7.1342,-7.1444,-7.1444,-7.1342,-7.1036,-7.0955,-2.6687,-2.9966,-3.4207,-3.7876,-4.2723,-4.6946,-4.8747,-4.5807,-4.2482,-4.1739,-4.1143,-4.189,-4.5612,-4.8851,-5.3418,-6.107,-6.1518,-6.2123,-6.5649,-6.6503,-6.6649,-6.6566,-6.7735,-6.8074,-6.7093,-6.6867,-6.6416,-6.5516,-6.5268,-6.4616,-6.304,-6.3067,-6.2927,-6.2531,-6.2557,-6.2557,-6.2557,-6.2557,-6.2557,-6.2557,-6.2557,-6.2557,-6.2557,-6.2557,-6.2557,-6.2557,-6.2557,-6.2557,-6.2557,-6.2557,-6.2557,-6.2778,-6.4872,-6.5757,-6.6257,-6.9778,-7.1059,-7.1282,-7.1909,-7.2106,-7.2138,-7.1462,-7.1299,-7.1086,-7.005,-6.9632,-6.9419,-6.8496,-6.9427,-7.0859,-7.0656,-7.0162,-6.9662,-6.9374,-6.881,-6.8271,-6.8271,-6.805,-6.7989,-6.7654,-6.7703,-6.7612,-6.7307,-6.7246,-6.7137,-6.7137,-6.7137,-6.6772,-6.5906,-6.589,-6.6177,-6.702,-6.7505,-6.8943,-7.1606,-7.1413,-7.1757,-7.3163,-7.2955,-7.2724,-7.2535,-7.1484,-7.0975,-7.1099,-7.1954,-7.1984,-7.1036,-7.2148,-7.2229,-7.1342,-7.1263,-7.1229,-2.6944,-3.1349,-3.5223,-3.3698,-3.7522,-4.1446,-4.0889,-3.8979,-3.6999,-3.5803,-3.569,-3.756,-4.3423,-4.426,-4.7509,-5.8027,-5.9806,-6.1091,-6.4707,-6.6796,-6.8068,-6.8901,-6.9467,-7.0025,-7.0587,-6.8986,-6.7678,-6.7355,-6.6877,-6.5957,-6.4376,-6.4236,-6.398,-6.3465,-6.2821,-6.2557,-6.2557,-6.4415,-6.4683,-6.3348,-6.4148,-6.3881,-6.2557,-6.2557,-6.2557,-6.2557,-6.2557,-6.2557,-6.2557,-6.2557,-6.2557,-6.2945,-6.559,-6.6725,-6.7141,-7.0846,-7.2115,-7.221,-7.3053,-7.3195,-7.3097,-7.3271,-7.317,-7.2932,-7.2192,-7.1863,-7.1596,-7.0716,-7.1315,-7.2182,-7.183,-7.1462,-7.1061,-7.0799,-7.0338,-6.9936,-6.9936,-6.9677,-6.9266,-6.8889,-6.8654,-6.8359,-6.7949,-6.8271,-6.8678,-6.8678,-6.9111,-6.9259,-6.8648,-6.8586,-6.8866,-6.948,-7.0422,-7.1369,-7.209,-7.348,-7.4274,-7.4133,-7.4271,-7.4115,-7.3361,-7.2289,-7.1602,-7.1267,-7.1736,-7.1682,-7.1149,-7.1926,-7.2087,-7.1623,-7.1433,-7.1466,-2.8416,-3.3889,-3.7291,-3.0789,-3.0933,-3.2452,-3.1544,-3.084,-3.0364,-3.0126,-3.1172,-3.4317,-4.1393,-4.0581,-4.186,-5.1203,-5.5536,-5.9097,-6.2772,-6.6386,-6.9435,-7.131,-7.1234,-7.2138,-7.4873,-7.2014,-7.0182,-7.0905,-7.0046,-6.8679,-6.6917,-6.6917,-6.641,-6.4945,-6.3989,-6.3484,-6.3484,-6.6811,-6.7156,-6.4535,-6.6208,-6.5667,-6.3342,-6.3439,-6.3473,-6.3473,-6.3287,-6.3207,-6.3207,-6.3207,-6.3207,-6.3453,-6.6259,-6.7252,-6.7694,-7.0438,-7.1439,-7.1539,-7.2218,-7.2376,-7.2278,-7.32,-7.3398,-7.317,-7.317,-7.3055,-7.2825,-7.2416,-7.2269,-7.2385,-7.2299,-7.2126,-7.2039,-7.2039,-7.2039,-7.2039,-7.2039,-7.1653,-7.1172,-7.0258,-6.9931,-6.9453,-6.8533,-6.9213,-6.9838,-7.0053,-7.1007,-7.1667,-7.1647,-7.1716,-7.1817,-7.1917,-7.3608,-7.4229,-7.2898,-7.5103,-7.5901,-7.4335,-7.5736,-7.5988,-7.4589,-7.3857,-7.3122,-7.24,-7.1919,-7.16,-7.1406,-7.1723,-7.1828,-7.1821,-7.1667,-7.1589,-2.5591,-3.0256,-3.4808,-3.3868,-3.4092,-3.4193,-3.2767,-3.0701,-2.8724,-2.7511,-2.7683,-2.9237,-3.2979,-3.5284,-3.8051,-4.2282,-4.8381,-5.5502,-6.3669,-6.819,-7.1343,-7.2941,-7.4079,-7.4703,-7.4818,-7.4031,-7.3072,-7.2007,-7.174,-7.1096,-6.9614,-6.992,-6.9363,-6.7832,-6.7443,-6.7334,-6.7334,-6.7975,-6.739,-6.5722,-6.7045,-6.7517,-6.7012,-6.7335,-6.7387,-6.7331,-6.638,-6.6039,-6.6039,-6.6039,-6.6039,-6.6311,-6.9008,-7.0181,-7.0456,-7.3131,-7.4181,-7.4281,-7.4329,-7.4062,-7.3527,-7.3108,-7.2971,-7.2971,-7.2971,-7.2971,-7.2825,-7.2416,-7.2501,-7.2532,-7.2126,-7.2126,-7.2299,-7.2299,-7.2299,-7.2299,-7.2299,-7.2008,-7.1742,-7.1648,-7.1351,-7.0993,-7.0812,-7.0782,-7.1106,-7.2118,-7.2624,-7.2824,-7.2939,-7.3191,-7.3666,-7.4653,-7.4881,-7.5664,-7.7167,-7.7528,-7.7691,-7.7556,-7.7658,-7.7034,-7.5618,-7.5416,-7.4757,-7.3446,-7.4493,-7.4043,-7.1996,-7.3542,-7.3296,-7.1388,-7.1744,-7.1898,-2.7345,-3.0299,-3.2911,-3.1983,-3.2754,-3.3364,-3.1949,-3.0665,-2.95,-2.8238,-2.7693,-2.8787,-3.3171,-3.4041,-3.6554,-4.4237,-4.7722,-5.2237,-6.0125,-6.6229,-7.1143,-7.4305,-7.4971,-7.5504,-7.6329,-7.4546,-7.3179,-7.2459,-7.2256,-7.1939,-7.141,-7.155,-7.1269,-7.0562,-6.9948,-7.0199,-7.1337,-7.2226,-7.149,-6.944,-7.0018,-6.9856,-6.9077,-6.8383,-6.8415,-6.8944,-6.8466,-6.7986,-6.7503,-6.8312,-6.8172,-6.8016,-7.1451,-7.29,-7.312,-7.5142,-7.59,-7.5691,-7.4663,-7.4254,-7.4011,-7.3486,-7.317,-7.3086,-7.3086,-7.3086,-7.3055,-7.2909,-7.3024,-7.3108,-7.294,-7.2825,-7.2909,-7.3024,-7.2794,-7.2679,-7.2794,-7.236,-7.1921,-7.2096,-7.2065,-7.2152,-7.2208,-7.3129,-7.4029,-7.447,-7.5164,-7.568,-7.5817,-7.592,-7.6219,-7.6775,-7.671,-7.707,-7.828,-7.8119,-7.8022,-7.8119,-7.7989,-7.7628,-7.697,-7.6214,-7.5491,-7.4833,-7.4005,-7.3216,-7.2363,-7.259,-7.2673,-7.2493,-7.2119,-7.153,-3.2756,0.0,-3.5635,-3.4187,-3.4485,-3.4704,0.0,-3.2359,-3.1354,-2.9553,-2.8898,-2.9831,-3.3824,-3.3196,-3.51,-4.4388,-4.5787,-4.8113,-5.5018,-6.1402,-6.7402,-7.3026,-7.3757,-7.4681,-7.6823,-7.5228,-7.4088,-7.4088,-7.3848,-7.367,-7.367,-7.381,-7.367,-7.3219,-7.2783,-7.3212,-7.4641,-7.5811,-7.5179,-7.2793,-7.2964,-7.2369,-7.0931,-6.9971,-6.986,-7.051,-7.0509,-7.008,-6.953,-7.0603,-7.0568,-7.0124,-7.329,-7.4305,-7.4175,-7.5451,-7.59,-7.5571,-7.3827,-7.3588,-7.41,-7.3486,-7.3284,-7.317,-7.317,-7.32,-7.3284,-7.317,-7.3398,-7.3624,-7.3624,-7.3511,-7.3398,-7.3624,-7.3284,-7.3086,-7.3284,-7.274,-7.2274,-7.2446,-7.2733,-7.3046,-7.3325,-7.4765,-7.5969,-7.6281,-7.7029,-7.7793,-7.8022,-7.8086,-7.8086,-7.8086,-7.8119,-7.8119,-7.8313,-7.7823,-7.7528,-7.7528,-7.7824,-7.7692,-7.7097,-7.6277,-7.5717,-7.5482,-7.3423,-7.2566,-7.2949,-7.187,-7.1864,-7.2932,-7.2255,-7.1435,0.0,-4.5963,-4.6967,-4.6994,-4.4677,-4.1863,-3.9658,-3.7141,0.0,-3.0152,-3.0625,-3.1488,-3.0551,-3.0989,-3.2446,-3.5196,-3.7847,-4.1977,-4.9151,-5.3101,-5.8316,-6.6573,-6.9668,-7.2131,-7.4805,-7.6776,-7.7995,-7.7995,-7.7918,-7.7842,-7.7842,-7.8084,-7.7616,-7.6117,-7.7391,-7.7557,-7.6262,-7.6262,-7.5499,-7.3921,-7.4756,-7.4641,-7.3483,-7.4344,-7.4101,-7.3184,-7.3337,-7.3311,-7.3223,-7.334,-7.3442,-7.3383,-7.4081,-7.3529,-7.2461,-7.3023,-7.3178,-7.2968,-7.1684,-7.2379,-7.371,-7.2494,-7.2391,-7.2971,-7.2971,-7.3086,-7.317,-7.2971,-7.3284,-7.3624,-7.3398,-7.3511,-7.3624,-7.3624,-7.3511,-7.3284,-7.3284,-7.3086,-7.2856,-7.2856,-7.3449,-7.3949,-7.3949,-7.4548,-7.5271,-7.6455,-7.666,-7.7097,-7.8119,-7.8506,-7.8697,-7.8697,-7.841,-7.8346,-7.8346,-7.7124,-7.6364,-7.6364,-7.7394,-7.6867,-7.4589,-7.5598,-7.5631,-7.4356,-7.4158,-7.4115,-7.4115,-7.3089,-7.2137,-7.1342,-7.1744,-7.1947,-4.5988,-4.8557,-4.956,-4.842,-4.6658,-4.4481,-4.1818,-3.8896,-3.5937,-3.2895,-3.224,-3.231,-3.2676,-3.3382,-3.556,-4.0554,-4.2401,-4.5114,-5.0483,-5.5903,-6.0833,-6.4887,-7.1534,-7.6096,-7.7123,-7.8007,-7.8533,-7.8533,-7.8533,-7.8533,-7.8533,-7.8638,-7.8368,-7.7627,-7.8232,-7.8232,-7.7657,-7.7657,-7.7352,-7.7017,-7.632,-7.6096,-7.6125,-7.5634,-7.5402,-7.5431,-7.5493,-7.5095,0.0,-7.5483,-7.55,-7.5119,-7.6079,-7.6079,-7.568,-7.4881,-7.4715,-7.4418,-7.2475,-7.2553,-7.3284,-7.2256,-7.2391,-7.2856,-7.2856,-7.4109,-7.5366,-7.4798,-7.5012,-7.5054,-7.4068,-7.3962,-7.4074,-7.4074,-7.4122,-7.4281,-7.4564,-7.4611,-7.4657,-7.4937,-7.5442,-7.5937,-7.6041,-7.6761,-7.7397,-7.7825,-7.7727,-7.7891,-7.8313,-7.8313,-7.795,-7.7186,-7.712,-7.7388,-7.8247,-7.6259,-7.5392,-7.6132,-7.5895,-7.526,-7.4314,-7.4754,-7.4788,-7.4281,-7.3506,-7.3074,-7.2952,-7.2562,-7.2253,-7.207,-7.1715,-7.1267,-5.109,-5.3396,-5.4442,-5.3209,-5.1753,-4.9583,-4.5437,-4.2394,-3.9242,-3.4923,-3.3804,-3.3782,-3.4417,-3.5157,-3.7411,-4.2645,-4.4426,-4.7007,-5.2148,-5.7683,-6.2194,-6.4951,-7.1403,-7.5865,-7.6851,-7.8019,-7.8772,-7.8772,-7.8772,-7.8772,-7.8772,-7.8772,-7.8533,-7.8156,-7.8156,-7.8156,-7.8292,-7.8292,-7.8398,-7.8638,-7.7627,-7.7076,-7.7273,-7.6547,-7.6154,-7.6183,-7.6606,-7.6389,-7.5767,-7.6674,-7.6666,-7.6099,-7.7117,-7.7343,-7.6901,-7.6152,-7.5827,-7.5503,-7.3489,-7.362,-7.4397,-7.3102,-7.3284,-7.4023,-7.3359,-7.4887,-7.6724,-7.6189,-7.6132,-7.5802,-7.4835,-7.4386,-7.4185,-7.4074,-7.4533,-7.4874,-7.5153,-7.5516,-7.5905,-7.6177,-7.6794,-7.7265,-7.7497,-7.8247,-7.8792,-7.8792,-7.8602,-7.841,-7.841,-7.8313,-7.7917,-7.7086,-7.6557,-7.6783,-7.7744,-7.614,-7.541,-7.6287,-7.5484,-7.467,-7.3827,-7.3705,-7.3384,-7.3007,-7.213,-7.163,-7.1458,-7.1458,-7.1597,-7.1819,-7.1345,-7.089,-5.9128,-6.1966,-6.3083,-6.3357,-6.1475,-5.7981,-5.1449,-4.8327,-4.4399,-3.5803,-3.5376,-3.6169,-3.5029,-3.5681,-3.701,-3.8969,-4.1839,-4.6223,-5.306,-5.671,-6.0673,-6.6249,-6.8108,-6.9953,-7.2697,-7.6494,-7.8772,-7.8772,-7.8772,-7.8772,-7.8772,-7.8802,-7.8398,-7.7775,-7.7775,-7.7882,-7.8292,-7.8292,-7.8398,-7.8802,-7.8398,-7.7657,-7.6431,-7.7411,-7.6885,-7.5558,-7.6687,-7.7025,-7.6635,-7.6635,-7.6635,-7.6606,-7.6995,-7.6373,-7.5259,-7.5693,-7.5857,-7.565,-7.4132,-7.5302,-7.6978,-7.4915,-7.5456,-7.642,-7.4347,-7.5138,-7.6818,-7.6818,-7.6375,-7.5705,-7.541,-7.4763,-7.4216,-7.3737,-7.4281,-7.4842,-7.4842,-7.5622,-7.621,-7.621,-7.7097,-7.7759,-7.7759,-7.8535,-7.9108,-7.9108,-7.8887,-7.8697,-7.8697,-7.8697,-7.8697,-7.8664,-7.7402,-7.6631,-7.6781,-7.6839,-7.6806,-7.6839,-7.669,-7.5515,-7.301,-7.2449,-7.1578,-7.0366,-7.0133,-7.0048,-7.0015,-7.0015,-6.9931,-7.0015,-7.0399,-7.0888,-6.1106,-6.2801,-6.343,-6.4252,-6.2358,-5.8911,-5.3417,-4.9321,-4.4841,-3.825,-3.6722,-3.6522,-3.6471,-3.7461,-3.8827,-4.0472,-4.5491,-5.0321,-5.3597,-6.0689,-6.6482,-6.9091,-7.2372,-7.5106,-7.6814,-7.8109,-7.8772,-7.8772,-7.8772,-7.8668,-7.8398,-7.8126,-7.7882,-7.7302,-7.7302,-7.744,-7.7578,-7.7745,-7.8156,-7.8398,-7.8533,-7.8368,-7.7794,-7.799,-7.7716,-7.7025,-7.744,-7.7302,-7.7025,-7.7332,-7.7054,-7.6606,-7.6995,-7.6791,-7.6192,-7.6331,-7.636,-7.6156,-7.5113,-7.571,-7.6719,-7.54,-7.5802,-7.6757,-7.6564,-7.8067,-7.9459,-7.8538,-7.8078,-7.7893,-7.8046,-7.6705,-7.5147,-7.4611,-7.5303,-7.6249,-7.713,-7.7956,-7.8535,-7.8535,-7.8759,-7.9008,-7.9008,-7.9261,-7.9387,-7.9387,-7.9202,-7.9014,-7.9014,-7.8792,-7.8393,-7.7422,-7.7197,-7.7364,-7.8341,-7.6686,-7.5917,-7.6739,-7.5961,-7.5202,-7.4418,-7.4298,-7.3423,-7.1953,-7.1835,-7.1046,-6.9709,-6.9709,-6.959,-6.9417,-6.9898,-7.0432,-6.274,-6.3862,-6.4331,-6.5622,-6.4975,-6.2176,-5.5099,-5.134,-4.7295,-3.9737,-3.7299,-3.6801,-3.7673,-3.8548,-4.0426,-4.4331,-4.9243,-5.4343,-5.9322,-6.592,-7.1093,-7.3466,-7.5986,-7.7905,-7.8712,-7.8772,-7.8772,-7.8772,-7.8638,-7.8398,-7.7853,-7.7608,-7.7302,-7.7025,-7.6885,-7.7025,-7.7134,-7.744,-7.7745,-7.8156,-7.8398,-7.8533,-7.8292,-7.8993,-7.9094,-7.8789,-7.8789,-7.8512,-7.8175,-7.7814,-7.747,-7.7054,-7.7302,-7.7164,-7.6885,-7.6885,-7.6746,-7.6518,-7.601,-7.64,-7.7088,-7.6416,-7.7025,-7.8067,-7.8508,-7.9685,-8.0688,-7.9889,-7.9644,-7.9616,-7.9835,-7.874,-7.7502,-7.69,-7.7639,-7.8721,-7.9432,-8.0228,-8.0905,-8.0905,-8.0905,-8.0905,-8.0905,-8.0905,-8.0905,-8.0905,-8.0714,-8.0514,-8.0042,-7.9847,-7.9281,-7.7999,-7.8015,-7.8441,-7.9228,-7.7713,-7.7077,-7.7857,-7.6073,-7.5256,-7.586,-7.4666,-7.381,-7.3303,-7.2629,-7.1637,-7.0548,-6.9834,-6.9331,-6.9244,-6.9504,-6.9931,-6.379,-6.481,-6.528,-6.7002,-6.8293,-6.6435,-5.6516,-5.4059,-5.0921,-4.0625,-3.7643,-3.7248,-3.8471,-3.9517,-4.2365,-4.9042,-5.3165,-5.8735,-6.7693,-7.1545,-7.471,-7.8307,-7.8772,-7.8772,-7.8772,-7.8772,-7.8772,-7.8772,-7.8533,-7.799,-7.7302,-7.7134,-7.7025,-7.6635,-7.6635,-7.6746,-7.7164,-7.7134,-7.7302,-7.7745,-7.8156,-7.8292,-7.8321,-8.0101,-8.0699,-8.0392,-8.0511,-8.0291,-7.9781,-7.874,-7.8129,-7.8129,-7.8099,-7.7961,-7.7486,-7.7369,-7.706,-7.678,-7.6664,-7.7054,-7.7775,-7.7775,-7.8668,-7.9703,-7.9834,-8.0326,-8.0841,-8.0841,-8.0841,-8.0789,-8.0724,-8.0438,-8.0181,-7.9852,-8.0588,-8.1496,-8.1602,-8.2301,-8.3014,-8.3014,-8.3014,-8.3014,-8.3014,-8.3014,-8.2981,-8.2848,-8.2848,-8.2416,-8.1243,-8.1077,-8.0638,-7.9614,-7.948,-7.948,-7.948,-7.9446,-7.9446,-7.9446,-7.6932,-7.596,-7.7133,-7.4579,-7.3569,-7.457,-7.3185,-7.2289,-7.2245,-7.056,-6.9714,-6.9669,-6.9834,-7.0059,-6.4051,-6.4393,-6.4814,-6.733,-6.8337,-6.6716,-5.826,-5.5693,-5.2314,-4.2081,-3.9762,-3.9071,-3.7387,-4.2704,-4.7565,-4.8115,-5.8067,-6.6406,-6.8586,-7.377,-7.7749,-7.8653,-7.8772,-7.8772,-7.8772,-7.8772,-7.8772,-7.8772,-7.8533,-7.8156,-7.7608,-7.7054,-7.6606,-7.6635,-7.6635,-7.6606,-7.6746,-7.7025,-7.7164,-7.7302,-7.7745,-7.8019,-7.8321,-7.9796,-8.053,-8.0758,-8.1804,-8.2081,-8.1738,-8.1642,-8.1382,-8.0814,-8.1211,-8.1069,-8.0524,-7.918,-7.8658,-7.837,-7.7095,-7.7054,-7.7775,-7.7775,-7.8019,-7.8398,-7.9173,-7.9703,-8.0096,-8.0326,-8.0425,-8.0493,-8.0727,-8.0301,-7.9889,-8.015,-8.085,-8.1708,-8.2507,-8.2812,-8.3014,-8.3014,-8.3014,-8.3014,-8.3014,-8.3014,-8.2648,-8.178,-8.1614,-8.1177,-8.0024,-7.9823,-7.9815,-7.948,-7.9295,-7.9202,-7.9202,-7.8981,-7.8887,-7.8887,-7.8287,-7.7648,-7.6873,-7.7373,-7.6706,-7.4637,-7.5505,-7.5494,-7.4638,-7.4303,-7.375,-7.306,-7.4246,-7.4388,-6.4645,-6.5442,-6.6415,-6.8633,-6.9348,-6.7968,-6.1785,-5.9591,-5.6059,-4.6641,-4.4056,-4.2673,-4.0114,-4.5556,-5.0966,-5.2483,-6.2354,-7.0245,-7.1781,-7.5843,-7.8772,-7.8772,-7.8772,-7.9042,-7.97,-7.9161,-7.9071,-7.973,-7.892,-7.8156,-7.744,-7.6914,-7.6635,-7.6635,-7.6635,-7.6635,-7.6635,-7.6746,-7.7346,-7.8072,-7.8521,-7.9153,-8.0193,-8.1783,-8.252,-8.2721,-8.3409,-8.3566,-8.3363,-8.2909,-8.2528,-8.2214,-8.2356,-8.2214,-8.175,-8.0276,-7.9522,-7.8892,-7.7323,-7.7025,-7.7193,-7.7193,-7.7608,-7.8262,-7.8906,-7.9703,-8.0326,-8.0455,-8.0455,-8.0455,-8.1097,-8.1356,-8.1494,-8.2123,-8.3148,-8.4122,-8.4652,-8.4757,-8.4757,-8.4757,-8.4757,-8.4757,-8.4757,-8.4233,-8.3607,-8.3047,-8.2449,-8.168,-8.0499,-8.0237,-7.9875,-7.9268,-7.8981,-7.8887,-7.8887,-7.8792,-7.8697,-7.8697,-7.8033,-7.7695,-7.7722,-7.7881,-7.764,-7.6773,-7.7256,-7.7152,-7.6636,-7.6179,-7.5646,-7.5185,-7.5971,-7.6142,-6.4947,-6.6471,-6.8183,-6.9695,-7.0143,-6.9201,-6.4947,-6.3266,-6.0239,-5.2159,-4.9172,-4.7215,-4.4597,-4.9004,-5.434,-5.8149,-6.609,-7.2633,-7.5471,-7.7667,-7.8873,-7.8742,-7.8772,-7.9221,-8.0388,-7.9325,-7.9146,-8.028,-7.9261,-7.8089,-7.7164,-7.6746,-7.6635,-7.6635,-7.6635,-7.6722,-7.7095,-7.7095,-7.7849,-7.9562,-7.9876,-8.0862,-8.2214,-8.3954,-8.4696,-8.4726,-8.4935,-8.5025,-8.4965,-8.3918,-8.3499,-8.3499,-8.3499,-8.3178,-8.2505,-8.1055,-7.9981,-7.9034,-7.7603,-7.6885,-7.6635,-7.6635,-7.744,-7.8533,-7.8638,-7.9642,-8.0939,-8.0969,-8.0939,-8.1066,-8.1979,-8.2869,-8.3764,-8.4465,-8.5732,-8.667,-8.667,-8.667,-8.667,-8.667,-8.667,-8.667,-8.667,-8.5799,-8.4982,-8.4823,-8.3972,-8.2781,-8.138,-8.1186,-8.0689,-7.9228,-7.9062,-7.8963,-7.873,-7.8568,-7.8568,-7.8568,-7.7474,-7.7242,-7.8265,-7.7322,-7.744,-7.8767,-7.825,-7.8231,-7.8554,-7.7829,-7.7398,-7.7203,-7.7478,-7.7601,-6.3982,-6.5626,-6.7052,-6.8356,-6.9305,-6.8872,-6.4379,-6.3657,-6.2167,-5.6037,-5.3631,-5.1817,-4.9136,-5.4561,-5.9758,-6.056,-6.9003,-7.5968,-7.7283,-7.8717,-7.9336,-7.8757,-7.8772,-7.8862,-7.9042,-7.8652,-7.8487,-7.8665,-7.8837,-7.8476,-7.7193,-7.6746,-7.6635,-7.6635,-7.6635,-7.727,-7.8804,-7.8833,-7.9621,-8.1374,-8.1374,-8.175,-8.2214,-8.3666,-8.4406,-8.4756,-8.5893,-8.6401,-8.6371,-8.6222,-8.6132,-8.6132,-8.6132,-8.5444,-8.4133,-8.2135,-8.0666,-7.9345,-7.7352,-7.6606,-7.6635,-7.6635,-7.7193,-7.7882,-7.8203,-7.9582,-8.1258,-8.1572,-8.2443,-8.3295,-8.3535,-8.4244,-8.494,-8.5054,-8.5909,-8.667,-8.667,-8.667,-8.667,-8.667,-8.667,-8.667,-8.667,-8.6614,-8.5988,-8.4883,-8.4625,-8.3637,-8.1254,-8.1984,-8.2184,-8.0756,-8.0394,-7.9766,-7.8542,-7.8216,-7.7989,-7.7989,-7.7824,-7.7553,-7.6871,-7.6731,-7.6881,-7.7379,-7.8006,-7.92,-8.0935,-8.1381,-8.12,-8.0499,-8.1832,-8.1726,-6.1939,-6.4534,-6.6678,-6.7596,-6.8515,-6.8903,-6.7115,-6.7288,-6.6554,-6.1631,-5.969,-5.7764,-5.4091,-5.8728,-6.2912,-6.2108,-6.9533,-7.5626,-7.6114,-7.721,-7.8197,-7.8593,-7.8772,-7.9235,-8.059,-7.9886,-7.949,-8.0151,-7.9327,-7.8549,-7.7995,-7.7824,-7.7362,-7.6635,-7.6635,-7.7008,-7.7984,-7.8999,-8.0666,-8.2993,-8.2993,-8.367,-8.482,-8.5388,-8.5656,-8.5833,-8.6401,-8.6641,-8.6581,-8.5716,-8.5417,-8.5474,-8.4611,-8.3984,-8.3469,-8.159,-8.0306,-7.9375,-7.7603,-7.6746,-7.6635,-7.6635,-7.7054,-7.799,-7.892,-8.0173,-8.151,-8.2566,-8.3143,-8.3471,-8.3471,-8.418,-8.476,-8.476,-8.5765,-8.667,-8.667,-8.667,-8.667,-8.667,-8.667,-8.667,-8.667,-8.6054,-8.5444,-8.4856,-8.42,-8.3505,-8.287,-8.3365,-8.32,-8.1748,-8.0957,-8.0197,-7.9569,-7.8873,-7.828,-7.8216,-7.8119,-7.7952,-7.7388,-7.7483,-7.8287,-7.9856,-8.0695,-8.2309,-8.458,-8.4546,-8.4267,-8.3855,-8.3788,-8.3329,-5.9924,-6.2779,-6.5444,-6.6572,-6.7557,-6.8334,-6.8957,-6.9826,-6.9614,-6.682,-6.5045,-6.3079,-5.9656,-6.2601,-6.5362,-6.4642,-7.0194,-7.4708,-7.5072,-7.6156,-7.7508,-7.8563,-7.8937,-7.9904,-8.1946,-8.0795,-8.0424,-8.1703,-8.033,-7.9368,-7.9164,-7.9135,-7.8581,-7.744,-7.7241,-7.7522,-7.794,-7.9516,-8.1745,-8.4436,-8.4406,-8.4913,-8.6162,-8.6491,-8.6641,-8.6641,-8.6641,-8.6641,-8.6551,-8.4943,-8.4551,-8.4576,-8.3005,-8.229,-8.2183,-8.0749,-7.9876,-7.9073,-7.7486,-7.6885,-7.6635,-7.6635,-7.7302,-7.8473,-7.9753,-8.1039,-8.2349,-8.3773,-8.4095,-8.4031,-8.4031,-8.4613,-8.5103,-8.5103,-8.5877,-8.667,-8.667,-8.6779,-8.6746,-8.6779,-8.6746,-8.6746,-8.6779,-8.5931,-8.5246,-8.5246,-8.4563,-8.4162,-8.4828,-8.4993,-8.4401,-8.2921,-8.2009,-8.1154,-8.0527,-8.0158,-7.9557,-7.8476,-7.8933,-7.887,-7.8216,-7.8506,-7.9803,-8.2085,-8.3251,-8.4898,-8.7124,-8.6722,-8.6575,-8.654,-8.5522,-8.4816,-5.8125,-6.0158,-6.2364,-6.4973,-6.6091,-6.6912,-6.816,-6.8754,-6.9348,-7.0425,-6.8576,-6.6628,-6.6349,-6.6566,-6.7364,-6.9191,-7.1803,-7.4211,-7.5584,-7.684,-7.7923,-7.871,-7.9439,-8.058,-8.2035,-8.0401,-8.0122,-8.2194,-8.234,-8.1906,-8.0972,-8.0884,-8.0472,-7.9493,-7.9122,-7.9404,-8.0134,-8.1441,-8.3207,-8.5217,-8.487,-8.4726,-8.4846,-8.6072,-8.6641,-8.6641,-8.6641,-8.6641,-8.6551,-8.5234,-8.4696,-8.4546,-8.329,-8.2063,-8.0956,-8.0422,-7.9174,-7.7696,-7.6914,-7.6635,-7.6635,-7.6635,-7.7901,-7.9683,-8.0013,-8.2164,-8.4594,-8.4972,-8.5798,-8.6527,-8.6527,-8.6527,-8.6637,-8.6637,-8.6637,-8.667,-8.667,-8.6854,-8.6962,-8.6746,-8.6854,-8.6962,-8.6746,-8.6571,-8.6647,-8.6647,-8.6581,-8.6548,-8.6538,-8.6538,-8.5946,-8.4467,-8.4236,-8.3157,-8.0692,-8.2344,-8.2137,-7.8958,-8.0404,-8.0632,-7.873,-7.9379,-8.0634,-8.2394,-8.4004,-8.5626,-8.7124,-8.7619,-8.7932,-8.7932,-8.7862,-8.7017,-5.8177,-5.9745,-6.0555,-6.3778,-6.5211,-6.593,-6.641,-6.7963,-6.9314,-6.9706,-6.9275,-6.8866,-6.8512,-6.8555,-6.8835,-6.948,-7.0842,-7.24,-7.3799,-7.4377,-7.5677,-7.8353,-7.8785,-7.9965,-8.2875,-8.1998,-8.1845,-8.344,-8.28,-8.2461,-8.229,-8.229,-8.1851,-8.0991,-8.0789,-8.1075,-8.1501,-8.361,-8.4969,-8.5361,-8.6318,-8.671,-8.674,-8.7223,-8.6836,-8.5879,-8.5879,-8.5254,-8.4068,-8.2468,-8.2072,-8.2093,-8.0471,-7.9696,-7.9142,-7.8867,-7.8129,-7.7302,-7.7025,-7.6746,-7.6746,-7.7657,-7.8443,-7.945,-8.1543,-8.2985,-8.4233,-8.5395,-8.6242,-8.667,-8.667,-8.667,-8.6746,-8.6962,-8.6962,-8.6962,-8.6962,-8.707,-8.7037,-8.6779,-8.6746,-8.6746,-8.6746,-8.667,-8.667,-8.667,-8.667,-8.667,-8.667,-8.667,-8.6439,-8.5913,-8.5067,-8.4256,-8.3303,-8.3874,-8.3247,-8.0888,-8.297,-8.3379,-8.1581,-8.2733,-8.4408,-8.6625,-8.7298,-8.8602,-9.0706,-8.9059,-8.8339,-8.8421,-8.637,-8.5205,-5.5548,-5.7714,-5.9394,-6.1534,-6.3448,-6.4879,-6.5221,-6.6664,-6.7963,-6.8328,-6.9125,-6.9621,-6.9388,-6.9806,-7.0084,-6.9925,-7.0587,-7.1354,-7.2101,-7.2609,-7.4218,-7.8056,-7.8619,-8.004,-8.3704,-8.3458,-8.3324,-8.4167,-8.3469,-8.3307,-8.3788,-8.3788,-8.3469,-8.2753,-8.2549,-8.2694,-8.3297,-8.4854,-8.5803,-8.5993,-8.7157,-8.7725,-8.7725,-8.7725,-8.6951,-8.5819,-8.5368,-8.4534,-8.332,-8.1276,-8.0829,-8.1405,-7.9755,-7.9248,-7.9112,-7.8808,-7.8521,-7.8394,-7.7814,-7.7779,-7.794,-7.8563,-7.962,-8.1173,-8.2779,-8.4083,-8.5225,-8.604,-8.6527,-8.667,-8.667,-8.6746,-8.6854,-8.7037,-8.7037,-8.7037,-8.7037,-8.7037,-8.7037,-8.6779,-8.6746,-8.6746,-8.6746,-8.667,-8.667,-8.667,-8.667,-8.667,-8.667,-8.667,-8.667,-8.667,-8.5964,-8.5319,-8.5275,-8.5874,-8.5392,-8.3424,-8.5497,-8.5934,-8.4004,-8.5674,-8.7386,-8.8945,-8.9439,-9.0086,-9.1171,-8.9363,-8.7851,-8.683,-8.5274,-8.4356,-5.041,-5.3979,-5.8702,-5.8357,-6.0832,-6.3477,-6.4492,-6.4821,-6.5271,-6.6626,-6.8118,-6.9047,-6.9077,-7.0214,-7.1205,-7.1055,-7.1145,-7.1265,-7.1055,-7.2041,-7.4158,-7.7668,-7.8887,-8.0906,-8.4492,-8.4416,-8.4138,-8.4167,-8.4196,-8.4562,-8.5505,-8.5505,-8.5363,-8.4786,-8.4466,-8.4641,-8.5421,-8.5104,-8.5734,-8.7228,-8.7318,-8.7318,-8.7228,-8.7288,-8.7112,-8.6521,-8.5234,-8.4666,-8.4427,-8.1944,-8.1674,-8.2691,-8.1405,-8.0926,-8.0926,-8.0392,-8.0572,-8.0883,-7.925,-7.9434,-8.0388,-7.9296,-8.1732,-8.4916,-8.4035,-8.5708,-8.772,-8.6987,-8.667,-8.6779,-8.667,-8.6854,-8.7037,-8.7037,-8.7037,-8.7037,-8.7037,-8.7037,-8.7037,-8.6779,-8.6854,-8.6929,-8.6746,-8.667,-8.667,-8.667,-8.667,-8.667,-8.667,-8.667,-8.667,-8.667,-8.667,-8.6655,-8.6415,-8.8345,-8.8694,-8.635,-8.8045,-8.8097,-8.5846,-8.7924,-8.903,-8.8996,-9.0096,-8.9787,-8.7968,-8.8163,-8.654,-8.3321,-8.4799,-8.4694,-5.72,-5.6537,-5.591,-5.8043,-5.9343,-6.017,-6.0377,-6.1368,-6.2826,-6.5021,-6.7433,-6.9095,-6.9216,-7.0132,-7.1109,-7.2287,-7.1799,-7.1623,-7.2182,-7.1925,-7.2703,-7.5213,-7.6996,-7.948,-8.3109,-8.2283,-8.2288,-8.4178,-8.4282,-8.4562,-8.5505,-8.5505,-8.5778,-8.6132,-8.6102,-8.6132,-8.6279,-8.7208,-8.7535,-8.7258,-8.9156,-8.9275,-8.7755,-8.8663,-8.7912,-8.5699,-8.5338,-8.4504,-8.329,-8.2572,-8.2482,-8.2781,-8.2422,-8.2132,-8.1701,-8.0719,-8.0818,-8.1519,-8.0747,-8.1853,-8.3933,-8.4942,-8.6115,-8.7271,-8.8511,-8.8748,-8.8563,-8.8281,-8.7645,-8.6962,-8.6779,-8.6854,-8.7144,-8.7357,-8.7251,-8.7144,-8.7324,-8.7251,-8.7037,-8.6779,-8.6746,-8.6746,-8.6779,-8.667,-8.667,-8.667,-8.667,-8.667,-8.667,-8.667,-8.667,-8.667,-8.667,-8.6946,-8.7525,-8.8825,-8.9198,-8.8148,-9.0395,-9.0413,-8.7555,-8.9117,-8.9478,-8.8356,-8.7503,-8.6882,-8.6348,-8.4205,-8.2727,-8.1951,-8.1104,-8.0399,-5.3768,-5.2635,-5.1193,-5.3538,-5.4254,-5.5308,-5.9002,-5.959,-6.0206,-6.3447,-6.579,-6.7411,-6.7446,-6.9267,-7.0951,-7.146,-7.1872,-7.2238,-7.2817,-7.1917,-7.2349,-7.5438,-7.6948,-7.8159,-7.9434,-8.0191,-8.1227,-8.2671,-8.3136,-8.4008,-8.5173,-8.5505,-8.5806,-8.6344,-8.667,-8.6641,-8.6641,-8.7418,-8.7837,-8.7924,-8.9185,-8.9277,-8.8279,-8.8854,-8.7924,-8.5824,-8.5254,-8.4594,-8.3529,-8.2452,-8.2632,-8.3499,-8.2422,-8.2162,-8.2379,-8.1714,-8.2184,-8.3115,-8.2207,-8.3307,-8.5098,-8.5824,-8.6934,-8.7984,-8.8748,-8.8793,-8.853,-8.805,-8.748,-8.7037,-8.6746,-8.6962,-8.7251,-8.7357,-8.7144,-8.7144,-8.7251,-8.7144,-8.6854,-8.6779,-8.667,-8.667,-8.667,-8.667,-8.667,-8.667,-8.667,-8.667,-8.667,-8.667,-8.667,-8.667,-8.667,-8.7185,-8.8567,-8.9642,-9.0044,-8.9543,-9.0881,-9.0643,-8.8144,-8.8918,-8.8988,-8.8073,-8.5966,-8.4522,-8.3779,-8.2055,-8.0611,-7.9377,-7.8955,-7.8324,-4.3871,-4.4606,-4.5392,-4.6557,-4.7069,-4.9332,0.0,-5.7068,-5.632,-6.0653,-6.2724,-6.3871,-6.4517,-6.7772,-7.0162,-6.9836,-7.1443,-7.2779,-7.2933,-7.1908,-7.2674,-7.7063,-7.747,-7.6803,-7.5685,-7.8413,-8.0262,-8.0589,-8.1733,-8.3136,-8.4634,-8.5416,-8.5927,-8.6076,-8.6523,-8.667,-8.6493,-8.667,-8.7239,-8.8255,-8.8101,-8.8101,-8.8255,-8.8101,-8.7446,-8.6433,-8.5268,-8.476,-8.4726,-8.2303,-8.2542,-8.4247,-8.1944,-8.1813,-8.2932,-8.2909,-8.3835,-8.5006,-8.3836,-8.4449,-8.5598,-8.4744,-8.6114,-8.8013,-8.7015,-8.7519,-8.8142,-8.7228,-8.7061,-8.7037,-8.6746,-8.7037,-8.7463,-8.7144,-8.7037,-8.7037,-8.707,-8.6854,-8.667,-8.667,-8.667,-8.667,-8.667,-8.667,-8.667,-8.667,-8.667,-8.667,-8.667,-8.667,-8.667,-8.667,-8.6746,-8.7574,-8.9223,-9.0345,-9.0732,-9.0387,-9.022,-8.9411,-8.7862,-8.7792,-8.7721,-8.7545,-8.4842,-8.2656,-8.1103,-8.1105,-7.9623,-7.6844,-7.797,-7.7621,0.0,0.0,0.0,0.0,0.0,0.0,0.0,-4.5581,-4.7288,-5.1493,-5.4352,-5.7618,-6.2314,-6.4377,-6.6722,-7.1014,-7.1153,-7.1194,-7.2322,-7.2262,-7.3098,-7.6085,-7.5367,-7.5682,-7.8517,-7.7356,-7.7645,-8.0623,-8.2168,-8.319,-8.3286,-8.5865,-8.6728,-8.5656,-8.6374,-8.6374,-8.5777,-8.6076,-8.6195,-8.6191,-8.7075,-8.7045,-8.6221,-8.7104,-8.6868,-8.5777,-8.551,-8.5421,-8.5273,-8.4026,-8.319,-8.2654,-8.2148,-8.2866,-8.4,-8.2468,-8.3571,-8.5733,-8.5964,-8.7303,-8.9053,-8.9466,-8.991,-9.0484,-9.075,-9.0022,-8.9008,-8.8854,-8.8145,-8.7251,-8.6854,-8.7037,-8.7463,-8.7144,-8.6962,-8.6854,-8.707,-8.6854,-8.667,-8.667,-8.667,-8.667,-8.667,-8.667,-8.667,-8.667,-8.667,-8.667,-8.667,-8.667,-8.667,-8.667,-8.7364,-8.7993,-8.8366,-8.8889,-8.9584,-9.0317,-8.92,-8.7792,-8.6243,-8.6172,-8.5574,-8.4307,-8.2511,-8.1385,-8.1103,-7.9836,-7.8921,-7.8322,-7.7407,-7.6639,0.0,0.0,0.0,0.0,0.0,0.0,0.0,0.0,0.0,0.0,0.0,-5.2122,-5.5779,0.0,-6.3417,-6.7092,-6.8659,-7.0149,-7.2221,-7.1983,-7.2247,-7.3905,-7.488,-7.5582,-7.639,-7.6615,-7.7147,-7.8371,-7.9955,-8.1276,-8.2174,-8.4206,-8.5213,-8.48,-8.5868,-8.6076,-8.5505,-8.5927,-8.5927,-8.5505,-8.6031,-8.5819,-8.5231,-8.5878,-8.5819,-8.5173,-8.5096,-8.48,-8.4562,-8.4103,-8.3965,-8.3747,-8.0774,-8.0385,-8.1368,-8.1033,-8.2253,-8.4132,-8.4546,-8.5367,-8.6385,-8.6821,-8.7004,-8.7004,-8.7324,-8.6721,-8.5913,-8.6125,-8.5699,-8.5135,-8.496,-8.5595,-8.6367,-8.6019,-8.6294,-8.6746,-8.6854,-8.6746,-8.667,-8.667,-8.667,-8.667,-8.667,-8.556,-8.4909,-8.542,-8.5519,-8.5815,-8.6571,-8.667,-8.5774,-8.3479,-8.3628,-8.4256,-8.538,-8.4974,-8.626,-9.0185,-8.8179,-8.5856,-8.3497,-8.3353,-8.2541,-8.096,-8.0187,-7.9378,-7.8534,-7.857,-7.8184,-7.7342,-7.6743,-7.6323,0.0,0.0,0.0,0.0,0.0,0.0,0.0,0.0,0.0,0.0,0.0,0.0,0.0,0.0,0.0,-6.2263,-6.6007,-6.9448,-7.1768,-7.1225,-7.0923,-7.1897,-7.4493,-7.5477,-7.3672,-7.5823,-7.7058,-7.6348,-7.8258,-8.0055,-8.1535,-8.3065,-8.3844,-8.3959,-8.5271,-8.5571,-8.4887,-8.5689,-8.5808,-8.5272,-8.5114,0.0,-8.5202,-8.4967,-8.4698,-8.4732,-8.4026,-8.3487,-8.2964,-8.2631,-8.3134,-8.3669,-7.9094,-7.7594,-7.8235,-7.9603,-8.1046,-8.2367,-8.2642,-8.2744,-8.2744,-8.2913,-8.3014,-8.3014,-8.3014,-8.2845,0.0,-8.2946,-8.3014,-8.3014,-8.3047,-8.3943,-8.4737,-8.4393,-8.5107,-8.5815,-8.5815,-8.5815,-8.5782,-8.5923,-8.589,-8.589,-8.589,-8.4124,-8.2708,-8.3009,-8.3662,-8.4283,-8.4965,-8.5721,-8.471,-8.0893,-8.1122,-8.2049,-8.3433,-8.1805,-8.3112,-8.8672,-8.5653,-8.2375,-7.9482,-7.9343,-7.8674,-7.7339,-7.7304,-7.7025,-7.643,-7.7868,-7.7832,-7.636,-7.2632,-7.1705,0.0,0.0,0.0,0.0,0.0,0.0,0.0,0.0,0.0,0.0,0.0,0.0,0.0,0.0,0.0,0.0,-6.5151,-6.8362,-6.9579,-6.9997,-7.0569,-7.1611,-7.3225,-7.4208,-7.4117,-7.4873,-7.5593,-7.629,-8.0363,-8.2688,-8.2135,-8.5042,0.0,0.0,0.0,-8.4337,-8.2456,-8.4503,-8.5333,-8.4615,-8.4794,-8.5354,-8.5897,-8.4711,-8.403,-8.3911,-8.182,-8.0888,-8.068,-7.874,-7.7981,-7.8159,-7.8371,-7.7923,-7.7209,-7.9411,-8.1227,-8.2642,-8.3114,0.0,0.0,-8.3047,-8.3014,-8.3014,-8.3014,-8.3014,-8.2946,-8.3047,-8.3214,-8.3313,-8.3014,-8.3147,-8.3178,-8.2906,-8.28,-8.2724,-8.2724,-8.2724,-8.2795,-8.3035,-8.3068,-8.3068,-8.3068,-8.2942,-8.188,-7.8818,-8.1095,-8.2144,-7.9283,-8.2085,-8.4099,-8.3584,-8.6058,0.0,-8.6202,-8.3394,-8.2372,-8.4099,-7.9075,-7.5273,-7.3553,-7.3577,-7.3446,-7.3005,-7.2994,-7.4703,-7.8075,-7.825,-7.825,-7.7655,-6.0183,-5.5607,0.0,0.0,0.0,0.0,0.0,0.0,0.0,0.0,0.0,0.0,0.0,0.0,0.0,0.0,0.0,0.0,-5.9492,-6.2676,-6.3559,-6.6697,-6.916,-6.9733,-7.1883,-7.3282,-7.3161,-7.3977,-7.4942,-7.5752,-7.7902,-7.9655,-8.053,-8.175,-8.2103,-8.1471,-8.1636,-8.1094,-7.9757,-8.0995,-8.1619,-8.1969,-8.2135,-8.2372,-8.2743,-8.2207,-8.1553,-8.0719,-7.9416,-7.8577,-7.816,-7.7281,-7.6777,-7.6408,0.0,0.0,0.0,0.0,-7.9432,-8.062,-8.1005,-8.1005,-8.0717,-8.0717,-8.062,-8.049,-8.049,-8.0426,-8.0328,-8.062,-8.0717,-8.0684,-8.091,-8.1447,-8.1982,-8.1884,-8.2115,-8.2437,-8.2437,-8.2334,-8.2301,-8.254,-8.2675,0.0,-8.0428,-8.0328,-8.0188,-7.9208,-8.0554,-8.1913,-8.2558,-8.3442,-8.3444,-8.2044,-8.2368,-8.2558,-8.2513,-7.9669,0.0,0.0,0.0,-7.6819,-7.6147,-7.5361,0.0,0.0,0.0,-6.7018,-6.7727,-6.3461,0.0,0.0,-5.5872,-5.3459,0.0,0.0,0.0,0.0,0.0,0.0,0.0,0.0,0.0,0.0,0.0,0.0,0.0,0.0,0.0,0.0,-5.3861,-5.7741,-5.7483,-6.2263,-6.5854,-6.5755,-6.926,-7.135,-7.041,-7.2573,-7.4208,-7.4782,-7.5957,-7.7361,-7.8864,-7.8799,-7.8878,-7.9231,-7.9023,-7.8452,-7.7725,-7.8413,-7.9206,-7.9835,-7.9755,-8.0042,-8.0421,-8.0091,-7.94,-7.841,-7.7402,-7.6646,-7.6114,-7.6083,-7.5651,-7.4864,-7.5446,-7.5484,-7.5452,-7.6863,-7.7923,-7.8759,-7.9261,-7.9202,-7.9014,-7.9014,-7.8887,-7.8697,-7.8697,-7.8602,-7.8539,-7.892,-7.8887,-7.8759,-7.9168,-7.9875,-8.0484,-8.0484,-8.0891,-8.1352,-8.1352,-8.1149,-8.1116,-8.1352,-8.1486,-8.0792,-7.8677,-7.8792,-7.9035,-7.8641,-7.999,-8.163,-8.3073,-8.3413,-8.2927,-8.1188,-8.0573,-8.0398,-8.0724,-7.7177,-7.7026,-8.1809,-7.8107,-7.6274,-7.7442,-7.5422,-7.365,-7.2289,-6.6416,-6.2081,0.0,0.0,0.0,0.0,0.0,0.0,0.0,0.0,0.0,0.0,0.0,0.0,0.0,0.0,0.0,0.0,0.0,0.0,0.0,0.0,0.0,0.0,0.0,0.0,-5.2698,-5.6961,-5.9989,-5.9262,-6.476,-6.7732,-6.5587,-7.0298,-7.3377,-7.3229,-7.6126,-7.7812,-7.758,-7.8184,-7.8335,-7.7948,-7.8282,-7.7728,-7.6418,-7.8142,-7.9067,-7.8934,-7.9128,-7.9601,-8.0196,-7.8977,-7.8398,-7.8185,-7.59,-7.4856,-7.4883,-7.4605,-7.3706,-7.2508,-7.3917,-7.4516,-7.4734,-7.666,-7.7595,-7.7987,-7.8792,-7.9014,-7.8792,-7.8792,-7.8759,-7.8697,-7.8697,-7.8697,-7.8697,-7.8759,-7.8697,-7.8697,-7.8792,-7.8539,-7.8412,-7.8412,-7.8218,-7.812,-7.812,-7.8055,-7.8153,-7.8446,-7.8479,-7.8446,-7.8346,-7.9287,-7.8912,-7.5388,-7.862,0.0,-7.7085,-8.0072,-8.2481,-8.2307,-8.4252,-8.487,-8.343,-7.8077,-7.6039,-7.8674,-7.226,-7.0176,-7.4269,-7.0473,-6.8248,-6.8213,-6.6357,-6.2908,-5.779,0.0,0.0,0.0,0.0,0.0,0.0,0.0,0.0,0.0,0.0,0.0,0.0,0.0,0.0,0.0,0.0,0.0,0.0,0.0,0.0,0.0,0.0,0.0,0.0,-5.2182,-5.6936,-5.6527,-6.1128,-6.2788,-5.891,-6.4109,-6.7682,-6.7682,-7.2154,-7.525,-7.6108,-7.5657,-7.5237,-7.514,-7.4334,-7.3402,-7.2307,-7.284,-7.3324,-7.3764,-7.4464,-7.5106,-7.5678,-7.5899,-7.5502,-7.4733,-7.3931,-7.3531,-7.347,-7.3438,-7.214,-7.044,-7.3578,-7.4003,-7.301,-7.487,-7.5742,-7.6015,-7.6048,-7.6139,-7.6229,-7.6082,-7.5866,-7.5775,-7.5775,-7.5775,-7.5775,-7.5957,-7.5866,-7.6007,-7.7156,-7.7329,-7.7441,-7.8369,-7.841,-7.8216,-7.8216,-7.8119,-7.8022,-7.8313,-7.5661,-7.2403,-6.9209,-7.437,-7.682,-7.0672,-7.5925,-8.0836,-8.1583,-8.2148,-8.2951,-8.4497,-8.4257,-8.3876,-8.3349,-7.959,-7.7618,-7.8535,-7.4546,-7.2803,-7.4234,-7.1919,-7.0627,-7.0592,-6.9011,-6.1937,-4.9063,0.0,0.0,0.0,0.0,0.0,0.0,0.0,0.0,0.0,0.0,0.0,0.0,0.0,0.0,0.0,0.0,0.0,0.0,0.0,0.0,0.0,0.0,0.0,0.0,0.0,0.0,-5.4395,-5.7279,0.0,-5.4444,-5.7449,-5.9844,-6.0401,-6.439,-6.8067,-7.0968,-7.07,-7.1242,-7.2894,-7.18,-7.1031,-7.0726,-7.0315,-7.0368,-7.0768,-7.1114,-7.1463,-7.175,-7.2531,-7.2522,-7.1992,-7.1831,-7.1943,-7.2213,-7.18,-7.0116,-6.8122,-7.1108,-7.0708,-6.8696,-7.1483,-7.2658,-7.3011,-7.396,-7.4437,-7.4504,-7.3489,-7.1468,-6.9449,-6.973,-6.8945,-6.8213,-6.9591,-7.0314,-7.1201,-7.3594,-7.4181,-7.4323,-7.531,-7.5359,-7.53,-7.53,-7.4636,-7.4193,-7.4976,-7.2758,-6.9161,-6.3893,-6.8709,-7.2088,-6.8334,-7.2719,-7.8319,-8.3395,-8.3273,-8.3334,-8.4764,-8.3876,-8.3239,-8.3279,-8.0323,-7.8569,-7.8605,-7.5862,-7.3993,-7.343,-7.2508,-7.0667,-6.7986,-6.5829,-5.8427,0.0,0.0,0.0,0.0,0.0,0.0,0.0,0.0,0.0,0.0,0.0,0.0,0.0,0.0,0.0,0.0,0.0,0.0,0.0,0.0,0.0,0.0,0.0,0.0,0.0,0.0,0.0,-5.2368,-5.3115,0.0,0.0,0.0,0.0,-5.157,-5.3624,-5.7156,-6.2509,-6.3536,-6.6183,-7.1007,-7.0189,-7.0263,-7.1411,-7.0479,-7.0,-6.9897,-6.9095,-6.8678,-6.8678,-6.8957,-6.957,-7.0418,-6.9782,-6.9961,-7.0796,-6.9335,-6.7402,-6.5314,-6.6301,-6.4537,-6.1906,-6.6308,-6.8035,-6.8594,-7.1902,-7.3101,-7.2864,-7.053,-6.5476,-6.0379,-6.0882,-5.8554,0.0,0.0,-6.2109,-6.4279,-6.812,-6.9179,-6.9312,-6.9628,-6.978,-6.978,-6.978,-6.8314,-6.7279,-6.822,-6.9034,-6.7655,-6.1363,0.0,-6.4444,-6.695,-6.8716,-7.2934,-8.1739,-8.3183,-8.3356,-8.3356,-8.3279,-8.3204,-8.3286,-8.0325,-7.8535,-7.8464,-7.5753,-7.343,-7.1845,-7.1451,-6.788,-6.0756,-5.7198,0.0,0.0,0.0,0.0,0.0,0.0,0.0,0.0,0.0,0.0,0.0,0.0,0.0,0.0,0.0,0.0,0.0,0.0,0.0,0.0,0.0,0.0,0.0,0.0,0.0,0.0,-3.9728,-4.3739,-4.6736,-4.6951,-4.4736,0.0,0.0,0.0,0.0,0.0,0.0,-5.4957,-5.5414,-5.7946,-6.3194,-6.3176,-6.4318,-6.6838,-6.755,-6.7167,-6.5848,-6.7325,-6.7702,-6.6944,-6.7844,-6.8271,-6.8569,-6.8381,-6.8895,-6.9304,-6.3566,-6.0113,-5.8342,-5.6891,-5.4675,-5.284,-5.6865,-5.7692,-5.7383,-6.2278,-6.3296,-6.1872,-5.895,-5.6815,-5.4669,-5.0735,0.0,0.0,0.0,0.0,-5.4935,-6.0822,-6.3146,-6.4846,-6.8433,-6.9331,-6.9331,-6.9331,-6.8915,-6.6305,-5.856,-5.6944,-5.3583,-4.3403,-4.7894,0.0,-5.0115,-5.9756,-6.9161,-7.4618,-8.0042,-8.3356,-8.3356,-8.3279,-8.2748,-8.1772,-7.9729,-7.7552,-7.5404,-7.3535,-7.181,-7.0261,-6.4879,-6.0481,-5.7315,0.0,0.0,0.0,0.0,0.0,0.0,0.0,0.0,0.0,0.0,0.0,0.0,0.0,0.0,0.0,0.0,0.0,0.0,0.0,0.0,0.0,0.0,0.0,0.0,0.0,0.0,0.0,-3.6101,-4.0158,-4.2918,-4.0959,-3.8091,0.0,0.0,0.0,0.0,0.0,0.0,0.0,0.0,0.0,-5.4717,-5.5216,-5.6721,-5.9539,-6.2103,-6.2903,-6.2023,-6.4112,-6.4879,-6.4413,-6.5084,-6.5393,-6.5464,-6.5628,-6.483,-6.3134,-5.7904,-5.3791,-5.0537,0.0,0.0,0.0,0.0,-4.7414,-4.7301,-5.2032,-5.3028,-5.1866,-4.9242,0.0,0.0,0.0,0.0,0.0,0.0,0.0,-4.8288,-5.361,-5.7456,-6.0749,-6.4075,-6.4832,-6.503,-6.5576,-6.1405,-5.5805,-4.9626,-4.7932,-4.459,-3.5417,-3.8591,0.0,0.0,0.0,-6.2612,-7.0496,-7.7713,-8.2471,-8.3286,-8.3204,-8.2217,-8.0188,-7.85,-7.6219,-7.3259,-7.174,-6.9045,-6.4895,-5.9992,-5.4236,0.0,0.0,0.0,0.0,0.0,0.0,0.0,0.0,0.0,0.0,0.0,0.0,0.0,0.0,0.0,0.0,0.0,0.0,0.0,0.0,0.0,0.0,0.0,0.0,0.0,0.0,0.0,0.0,0.0,-3.7918,-3.9629,0.0,0.0,0.0,0.0,0.0,0.0,0.0,0.0,0.0,0.0,0.0,0.0,0.0,-4.8152,-5.0881,-5.4895,-5.6854,-5.6921,-5.8855,-5.9859,-5.9946,-6.0175,-6.0547,-6.096,-6.0285,0.0,-5.4815,-5.1652,0.0,0.0,0.0,0.0,0.0,0.0,0.0,0.0,0.0,0.0,0.0,0.0,0.0,0.0,0.0,0.0,0.0,0.0,0.0,0.0,0.0,0.0,-5.5646,-5.712,-5.7825,-5.8224,-5.8422,-5.0006,-4.2127,-4.1253,-4.0552,-3.8132,0.0,0.0,0.0,0.0,0.0,0.0,-6.6872,-7.4969,-8.0387,-8.2509,-8.2038,-8.0741,-7.8288,-7.6569,-7.4392,-7.1521,-6.9083,-6.4813,-5.8141,-5.5717,0.0,0.0,0.0,0.0,0.0,0.0,0.0,0.0,0.0,0.0,0.0,0.0,0.0,0.0,0.0,0.0,0.0,0.0,0.0,0.0,0.0,0.0,0.0,0.0,0.0,0.0,0.0,0.0,0.0,0.0,0.0,0.0,0.0,0.0,0.0,0.0,0.0,0.0,0.0,0.0,0.0,0.0,0.0,0.0,0.0,0.0,0.0,0.0,0.0,0.0,-4.8937,-4.9779,-4.901,-4.9171,-5.0988,-5.3537,-4.7893,-4.7269,-4.9623,-4.2221,0.0,0.0,0.0,0.0,0.0,0.0,0.0,0.0,0.0,0.0,0.0,0.0,0.0,0.0,0.0,0.0,0.0,0.0,0.0,0.0,0.0,0.0,-4.594,-4.741,-5.003,-5.0684,-4.5086,0.0,0.0,0.0,0.0,0.0,0.0,0.0,0.0,0.0,0.0,0.0,-5.7978,-6.8556,-7.6356,-7.8954,-7.7131,-7.551,-7.4943,-7.3535,-7.1415,-6.8422,-6.2021,-5.7188,0.0,0.0,0.0,0.0,0.0,0.0,0.0,0.0,0.0,0.0,0.0,0.0,0.0,0.0,0.0,0.0,0.0,0.0,0.0,0.0,0.0,0.0,0.0,0.0,0.0,0.0,0.0,0.0,0.0,0.0,0.0,0.0,0.0,0.0,0.0,0.0,0.0,0.0,0.0,0.0,0.0,0.0,0.0,0.0,0.0,0.0,0.0,0.0,0.0,0.0,0.0,0.0,0.0,0.0,0.0,0.0,0.0,0.0,-4.029,-3.7317,0.0,0.0,0.0,0.0,0.0,0.0,0.0,0.0,0.0,0.0,0.0,0.0,0.0,0.0,0.0,0.0,0.0,0.0,0.0,0.0,0.0,0.0,0.0,0.0,0.0,0.0,0.0,0.0,0.0,0.0,0.0,0.0,0.0,0.0,0.0,0.0,0.0,0.0,0.0,0.0,-5.3516,-6.5077,-7.3624,-7.5972,-7.5018,-7.3629,-7.2034,-7.1441,-6.8429,-6.2176,-5.7458,0.0,0.0,0.0,0.0,0.0,0.0,0.0,0.0,0.0,0.0,0.0,0.0,0.0,0.0,0.0,0.0,0.0,0.0,0.0,0.0,0.0,0.0,0.0,0.0,0.0,0.0,0.0,0.0,0.0,0.0,0.0,0.0,0.0,0.0,0.0,0.0,0.0,0.0,0.0,0.0,0.0,0.0,0.0,0.0,0.0,0.0,0.0,0.0,0.0,0.0,0.0,0.0,0.0,0.0,0.0,0.0,0.0,0.0,0.0,-3.3903,-2.9409,0.0,0.0,0.0,0.0,0.0,0.0,0.0,0.0,0.0,0.0,0.0,0.0,0.0,0.0,0.0,0.0,0.0,0.0,0.0,0.0,0.0,0.0,0.0,0.0,0.0,0.0,0.0,0.0,0.0,0.0,0.0,0.0,0.0,0.0,0.0,0.0,0.0,0.0,0.0,0.0,-5.0872,-6.231,-7.0789,-7.3007,-7.2677,-7.1592,-6.9718,-6.9416,-6.568,-5.7098,-5.342,0.0,0.0,0.0,0.0,0.0,0.0,0.0,0.0,0.0,0.0,0.0,0.0,0.0,0.0,0.0,0.0,0.0,0.0,0.0,0.0,0.0,0.0,0.0,0.0,0.0,0.0,0.0,0.0,0.0,0.0,0.0,0.0,0.0,0.0,0.0,0.0,0.0,0.0,0.0,0.0,0.0,0.0,0.0,0.0,0.0,0.0,0.0,0.0,0.0,0.0,0.0,0.0,0.0,0.0,0.0,0.0,0.0,0.0,0.0,0.0,0.0,0.0,0.0,0.0,0.0,0.0,0.0,0.0,0.0,0.0,0.0,0.0,0.0,0.0,0.0,0.0,0.0,0.0,0.0,0.0,0.0,0.0,0.0,0.0,0.0,0.0,0.0,0.0,0.0,0.0,0.0,0.0,0.0,0.0,0.0,0.0,0.0,0.0,0.0,0.0,0.0,-4.9,-5.8935,-6.6612,-6.9531,-6.761,-6.6635,-6.7938,-6.6749,-6.3274,-5.6954,0.0,0.0,0.0,0.0,0.0,0.0,0.0,0.0,0.0,0.0,0.0,0.0,0.0,0.0,0.0,0.0,0.0,0.0,0.0,0.0,0.0,0.0,0.0,0.0,0.0,0.0,0.0,0.0,0.0,0.0,0.0,0.0,0.0,0.0,0.0,0.0,0.0,0.0,0.0,0.0,0.0,0.0,0.0,0.0,0.0,0.0,0.0,0.0,0.0,0.0,0.0,0.0,0.0,0.0,0.0,0.0,0.0,0.0,0.0,0.0,0.0,0.0,0.0,0.0,0.0,0.0,0.0,0.0,0.0,0.0,0.0,0.0,0.0,0.0,0.0,0.0,0.0,0.0,0.0,0.0,0.0,0.0,0.0,0.0,0.0,0.0,0.0,0.0,0.0,0.0,0.0,0.0,0.0,0.0,0.0,0.0,0.0,0.0,0.0,0.0,0.0,0.0,-4.7828,-5.8244,-6.5729,-6.6933,-6.6269,-6.5981,-6.6624,-6.5435,-6.0918,-5.1993,0.0,0.0,0.0,0.0,0.0,0.0,0.0,0.0,0.0,0.0,0.0,0.0,0.0,0.0,0.0,0.0,0.0,0.0,0.0,0.0,0.0,0.0,0.0,0.0,0.0,0.0,0.0,0.0,0.0,0.0,0.0,0.0,0.0,0.0,0.0,0.0,0.0,0.0,0.0,0.0,0.0,0.0,0.0,0.0,0.0,0.0,0.0,0.0,0.0,0.0,0.0,0.0,0.0,0.0,0.0,0.0,0.0,0.0,0.0,0.0,0.0,0.0,0.0,0.0,0.0,0.0,0.0,0.0,0.0,0.0,0.0,0.0,0.0,0.0,0.0,0.0,0.0,0.0,0.0,0.0,0.0,0.0,0.0,0.0,0.0,0.0,0.0,0.0,0.0,0.0,0.0,0.0,0.0,0.0,0.0,0.0,0.0,0.0,0.0,0.0,0.0,0.0,-4.65,-5.7002,-6.41,-6.4169,-6.4425,-6.4589,-6.4589,-6.3777,-5.8726,-4.8012,0.0,0.0,0.0,0.0,0.0,0.0,0.0,0.0,0.0,0.0,0.0,0.0,0.0,0.0,0.0,0.0,0.0,0.0,0.0,0.0,0.0,0.0,0.0,0.0,0.0,0.0,0.0,0.0,0.0,0.0,0.0,0.0,0.0,0.0,0.0,0.0,0.0,0.0,0.0,0.0,0.0,0.0,0.0,0.0,0.0,0.0,0.0,0.0,0.0,0.0,0.0,0.0,0.0,0.0,0.0,0.0,0.0,0.0,0.0,0.0,0.0,0.0,0.0,0.0,0.0,0.0,0.0,0.0,0.0,0.0,0.0,0.0,0.0,0.0,0.0,0.0,0.0,0.0,0.0,0.0,0.0,0.0,0.0,0.0,0.0,0.0,0.0,0.0,0.0,0.0,0.0,0.0,0.0,0.0,0.0,0.0,0.0,0.0,0.0,0.0,0.0,0.0,-4.488,-5.431,-6.0817,-6.1077,-6.1077,-6.1186,-6.142,-6.1327,-5.6829,0.0,0.0,0.0,0.0,0.0,0.0,0.0,0.0,0.0,0.0,0.0,0.0,0.0,0.0,0.0,0.0,0.0,0.0,0.0,0.0,0.0,0.0,0.0,0.0,0.0,0.0,0.0,0.0,0.0,0.0,0.0,0.0,0.0,0.0,0.0,0.0,0.0,0.0,0.0,0.0,0.0,0.0,0.0,0.0,0.0,0.0,0.0,0.0,0.0,0.0,0.0,0.0,0.0,0.0,0.0,0.0,0.0,0.0,0.0,0.0,0.0,0.0,0.0,0.0,0.0,0.0,0.0,0.0,0.0,0.0,0.0,0.0,0.0,0.0,0.0,0.0,0.0,0.0,0.0,0.0,0.0,0.0,0.0,0.0,0.0,0.0,0.0,0.0,0.0,0.0,0.0,0.0,0.0,0.0,0.0,0.0,0.0,0.0,0.0,0.0,0.0,0.0,0.0,-4.459,-5.194,-5.7715,-6.0875,-6.1245,-6.1291,-6.1291,-6.0369,-5.6219,-4.7784,0.0,0.0,0.0,0.0,0.0,0.0,0.0,0.0,0.0,0.0,0.0,0.0,0.0,0.0,0.0,0.0,0.0,0.0,0.0,0.0,0.0,0.0,0.0,0.0,0.0,0.0,0.0,0.0,0.0,0.0,0.0,0.0,0.0,0.0,0.0,0.0,0.0,0.0,0.0,0.0,0.0,0.0,0.0,0.0,0.0,0.0,0.0,0.0,0.0,0.0,0.0,0.0,0.0,0.0,0.0,0.0,0.0,0.0,0.0,0.0,0.0,0.0,0.0,0.0,0.0,0.0,0.0,0.0,0.0,0.0,0.0,0.0,0.0,0.0,0.0,0.0,0.0,0.0,0.0,0.0,0.0,0.0,0.0,0.0,0.0,0.0,0.0,0.0,0.0,0.0,0.0,0.0,0.0,0.0,0.0,0.0,0.0,0.0,0.0,0.0,0.0,0.0,0.0,-5.0442,-5.6365,-5.9112,-5.9444,-5.949,-5.9398,-5.8585,-5.4946,-4.7612,0.0,0.0,0.0,0.0,0.0,0.0,0.0,0.0,0.0,0.0,0.0,0.0,0.0,0.0,0.0,0.0,0.0,0.0,0.0,0.0,0.0,0.0,0.0,0.0,0.0,0.0,0.0,0.0,0.0,0.0,0.0,0.0,0.0,0.0,0.0,0.0,0.0,0.0,0.0,0.0,0.0,0.0,0.0,0.0,0.0,0.0,0.0,0.0,0.0,0.0,0.0,0.0,0.0,0.0,0.0,0.0,0.0,0.0,0.0,0.0,0.0,0.0,0.0,0.0,0.0,0.0,0.0,0.0,0.0,0.0,0.0,0.0,0.0,0.0,0.0,0.0,0.0,0.0,0.0,0.0,0.0,0.0,0.0,0.0,0.0,0.0,0.0,0.0,0.0,0.0,0.0,0.0,0.0,0.0,0.0,0.0,0.0,0.0,0.0,0.0,0.0,0.0,0.0,-4.9737,-5.5949,-5.6368,-5.6359,-5.6359,-5.6359,-5.6359,-5.3375,-4.6297,-4.0983,0.0,0.0,0.0,0.0,0.0,0.0,0.0,0.0,0.0,0.0,0.0,0.0,0.0,0.0,0.0,0.0,0.0,0.0,0.0,0.0,0.0,0.0,0.0,0.0,0.0,0.0,0.0,0.0,0.0,0.0,0.0,0.0,0.0,0.0,0.0,0.0,0.0,0.0,0.0,0.0,0.0,0.0,0.0,0.0,0.0,0.0,0.0,0.0,0.0,0.0,0.0,0.0,0.0,0.0,0.0,0.0,0.0,0.0,0.0,0.0,0.0,0.0,0.0,0.0,0.0,0.0,0.0,0.0,0.0,0.0,0.0,0.0,0.0,0.0,0.0,0.0,0.0,0.0,0.0,0.0,0.0,0.0,0.0,0.0,0.0,0.0,0.0,0.0,0.0,0.0,0.0,0.0,0.0,0.0,0.0,0.0,0.0,0.0,0.0,0.0,0.0,0.0,-4.8502,-5.1631,-5.5877,-5.6359,-5.6359,-5.6359,-5.6359,-5.3854,-4.7837,-4.1574,0.0,0.0,0.0,0.0,0.0,0.0,0.0,0.0,0.0,0.0,0.0,0.0,0.0,0.0,0.0,0.0,0.0,0.0,0.0,0.0,0.0,0.0,0.0,0.0,0.0,0.0,0.0,0.0,0.0,0.0,0.0,0.0,0.0,0.0,0.0,0.0,0.0,0.0,0.0,0.0,0.0,0.0,0.0,0.0,0.0,0.0,0.0,0.0,0.0,0.0,0.0,0.0,0.0,0.0,0.0,0.0,0.0,0.0,0.0,0.0,0.0,0.0,0.0,0.0,0.0,0.0,0.0,0.0,0.0,0.0,0.0,0.0,0.0,0.0,0.0,0.0,0.0,0.0,0.0,0.0,0.0,0.0,0.0,0.0,0.0,0.0,0.0,0.0,0.0,0.0,0.0,0.0,0.0,0.0,0.0,0.0,0.0,0.0,0.0,0.0,0.0,0.0,-4.2246,-4.6794,-5.5457,-5.6359,-5.6359,-5.6359,-5.6448,-5.407,-4.8489,-4.2515,0.0,0.0,0.0,0.0,0.0,0.0,0.0,0.0,0.0,0.0,0.0,0.0,0.0,0.0,0.0,0.0,0.0,0.0,0.0,0.0,0.0,0.0,0.0,0.0,0.0,0.0,0.0,0.0,0.0,0.0,0.0,0.0,0.0,0.0,0.0,0.0,0.0,0.0,0.0,0.0,0.0,0.0,0.0,0.0,0.0,0.0,0.0,0.0,0.0,0.0,0.0,0.0,0.0,0.0,0.0,0.0,0.0,0.0,0.0,0.0,0.0,0.0,0.0,0.0,0.0,0.0,0.0,0.0,0.0,0.0,0.0,0.0,0.0,0.0,0.0,0.0,0.0,0.0,0.0,0.0,0.0,0.0,0.0,0.0,0.0,0.0,0.0,0.0,0.0,0.0,0.0,0.0,0.0,0.0,0.0,0.0,0.0,0.0,0.0,0.0,0.0,0.0,0.0,-4.3316,-5.3958,-5.5893,-5.6404,-5.6359,-5.6493,-5.4034,-4.8196,0.0,0.0,0.0,0.0,0.0,0.0,0.0,0.0,0.0,0.0,0.0,0.0,0.0,0.0,0.0,0.0,0.0,0.0,0.0,0.0,0.0,0.0,0.0,0.0,0.0,0.0,0.0,0.0,0.0,0.0,0.0,0.0,0.0,0.0,0.0,0.0,0.0,0.0,0.0,0.0,0.0,0.0,0.0,0.0,0.0,0.0,0.0,0.0,0.0,0.0,0.0,0.0,0.0,0.0,0.0,0.0,0.0,0.0,0.0,0.0,0.0,0.0,0.0,0.0,0.0,0.0,0.0,0.0,0.0,0.0,0.0,0.0,0.0,0.0,0.0,0.0,0.0,0.0,0.0,0.0,0.0,0.0,0.0,0.0,0.0,0.0,0.0,0.0,0.0,0.0,0.0,0.0,0.0,0.0,0.0,0.0,0.0,0.0,0.0,0.0,0.0,0.0,0.0,0.0,-4.574,-4.8941,-5.366,-5.6493,-5.6404,-5.6493,-5.3581,-4.6501,0.0,0.0,0.0,0.0,0.0,0.0,0.0,0.0,0.0,0.0,0.0,0.0,0.0,0.0]}]]]